[[{"header":{"parameterUnit":"m.s-1","parameterCategory":1,"la1":30.6,"la2":29.2853,"lo1":-89.7004,"lo2":-87.6739,"dy":0.0162,"dx":0.0183,"nx":112,"ny":82,"refTime":"2025-01-20T06:00:00:Z","depth":0,"parameterNumber":2,"parameterNumberName":"U-component_of_WINDS"},"data":[0.0,0.0,0.0,0.0,0.0,0.0,0.0,0.0,0.0,0.0,0.0,0.0,0.0,0.0,0.0,0.0,0.0,0.0,0.0,0.0,0.0,0.0,0.0,0.0,0.0,0.0,0.0,0.0,0.0,0.0,0.0,0.0,0.0,0.0,0.0,0.0,0.0,0.0,0.0,0.0,0.0,0.0,0.0,0.0,0.0,0.0,0.0,0.0,0.0,0.0,0.0,0.0,0.0,0.0,0.0,0.0,0.0,0.0,0.0,0.0,0.0,0.0,0.0,0.0,0.0,0.0,0.0,0.0,0.0,0.0,0.0,0.0,0.0,0.0,0.0,0.0,0.0,0.0,0.0,0.0,0.0,0.0,0.0,0.0,0.0,0.0,0.0,0.0,0.0,0.0,0.0,5.1982,5.7245,5.9515,5.7291,5.6042,5.1807,4.3368,0.0,0.0,0.0,0.0,0.0,0.0,0.0,0.0,0.0,0.0,0.0,0.0,0.0,0.0,0.0,0.0,0.0,0.0,0.0,0.0,0.0,0.0,0.0,0.0,0.0,0.0,0.0,0.0,0.0,0.0,0.0,0.0,0.0,0.0,0.0,0.0,0.0,0.0,0.0,0.0,0.0,0.0,0.0,0.0,0.0,0.0,0.0,0.0,0.0,0.0,0.0,0.0,0.0,0.0,0.0,0.0,0.0,0.0,0.0,0.0,0.0,0.0,0.0,0.0,0.0,0.0,0.0,0.0,0.0,0.0,0.0,0.0,0.0,0.0,0.0,0.0,0.0,0.0,0.0,0.0,0.0,0.0,0.0,0.0,0.0,0.0,0.0,0.0,0.0,0.0,0.0,0.0,0.0,0.0,0.0,0.0,0.0,0.0,0.0,0.0,0.0,0.0,0.0,0.0,4.8083,5.5921,5.8208,5.8615,5.7204,5.4452,5.0531,4.5205,0.0,0.0,0.0,0.0,0.0,0.0,0.0,0.0,0.0,0.0,0.0,0.0,0.0,0.0,0.0,0.0,0.0,0.0,0.0,0.0,0.0,0.0,0.0,0.0,0.0,0.0,0.0,0.0,0.0,0.0,0.0,0.0,0.0,0.0,0.0,0.0,0.0,0.0,0.0,0.0,0.0,0.0,0.0,0.0,0.0,0.0,0.0,0.0,0.0,0.0,0.0,0.0,0.0,0.0,0.0,0.0,0.0,0.0,0.0,0.0,0.0,0.0,0.0,0.0,0.0,0.0,0.0,0.0,0.0,0.0,0.0,0.0,0.0,0.0,0.0,0.0,0.0,0.0,0.0,0.0,0.0,0.0,0.0,0.0,0.0,0.0,0.0,0.0,0.0,0.0,0.0,0.0,0.0,0.0,0.0,0.0,0.0,0.0,0.0,0.0,0.0,0.0,0.0,4.6481,5.0559,5.7208,5.8559,5.8499,5.7206,5.4401,5.0601,4.5603,4.0606,0.0,0.0,0.0,0.0,0.0,0.0,0.0,0.0,0.0,0.0,0.0,0.0,0.0,0.0,0.0,0.0,0.0,0.0,0.0,0.0,0.0,0.0,0.0,0.0,0.0,0.0,0.0,0.0,0.0,0.0,0.0,0.0,0.0,0.0,0.0,0.0,0.0,0.0,0.0,0.0,0.0,0.0,0.0,0.0,0.0,0.0,0.0,0.0,0.0,0.0,0.0,0.0,0.0,0.0,0.0,0.0,0.0,0.0,0.0,0.0,0.0,0.0,0.0,0.0,0.0,0.0,0.0,0.0,0.0,0.0,0.0,0.0,0.0,0.0,0.0,0.0,0.0,0.0,0.0,0.0,0.0,0.0,0.0,0.0,0.0,0.0,0.0,0.0,0.0,0.0,0.0,0.0,0.0,0.0,0.0,0.0,0.0,0.0,0.0,0.0,0.0,0.0,5.1392,5.3425,5.7862,5.8773,5.856,5.7214,5.4156,5.0295,4.5603,3.917,0.0,0.0,0.0,0.0,0.0,0.0,0.0,0.0,0.0,0.0,0.0,0.0,0.0,0.0,0.0,0.0,0.0,0.0,0.0,0.0,0.0,0.0,0.0,0.0,0.0,0.0,0.0,0.0,0.0,0.0,0.0,0.0,0.0,0.0,0.0,0.0,0.0,0.0,0.0,0.0,0.0,0.0,0.0,0.0,0.0,0.0,0.0,0.0,0.0,0.0,0.0,0.0,0.0,0.0,0.0,0.0,0.0,0.0,0.0,0.0,0.0,0.0,0.0,0.0,0.0,0.0,0.0,0.0,0.0,0.0,0.0,0.0,0.0,0.0,0.0,0.0,0.0,0.0,0.0,0.0,0.0,0.0,0.0,0.0,0.0,0.0,0.0,0.0,0.0,0.0,0.0,0.0,0.0,0.0,0.0,0.0,0.0,0.0,0.0,0.0,0.0,0.0,5.1878,5.5944,5.874,5.9069,5.856,5.7214,5.248,4.8349,4.5484,3.7434,0.0,0.0,0.0,0.0,0.0,0.0,0.0,0.0,0.0,0.0,0.0,0.0,0.0,0.0,0.0,0.0,0.0,0.0,0.0,0.0,0.0,0.0,0.0,0.0,0.0,0.0,0.0,0.0,0.0,0.0,0.0,0.0,0.0,0.0,0.0,0.0,0.0,0.0,0.0,0.0,0.0,0.0,0.0,0.0,0.0,0.0,0.0,0.0,0.0,0.0,0.0,0.0,0.0,0.0,0.0,0.0,0.0,0.0,0.0,0.0,0.0,0.0,0.0,0.0,0.0,0.0,0.0,0.0,0.0,0.0,0.0,0.0,0.0,0.0,0.0,0.0,0.0,0.0,0.0,0.0,0.0,0.0,0.0,0.0,0.0,0.0,0.0,0.0,0.0,0.0,0.0,0.0,0.0,0.0,0.0,0.0,0.0,0.0,0.0,0.0,0.0,0.0,5.0846,5.482,0.0,5.9099,5.856,5.7214,5.3797,4.9726,4.4975,0.0,0.0,0.0,0.0,0.0,0.0,0.0,0.0,0.0,0.0,0.0,0.0,0.0,0.0,0.0,0.0,0.0,0.0,0.0,0.0,0.0,0.0,0.0,0.0,0.0,0.0,0.0,0.0,0.0,0.0,0.0,0.0,0.0,0.0,0.0,0.0,0.0,0.0,0.0,0.0,0.0,0.0,0.0,0.0,0.0,0.0,0.0,0.0,0.0,0.0,0.0,0.0,0.0,0.0,0.0,0.0,0.0,0.0,0.0,0.0,0.0,0.0,0.0,0.0,0.0,0.0,0.0,0.0,0.0,0.0,0.0,0.0,0.0,0.0,0.0,0.0,0.0,0.0,0.0,0.0,0.0,0.0,0.0,0.0,0.0,0.0,0.0,0.0,0.0,0.0,0.0,0.0,0.0,0.0,0.0,0.0,0.0,0.0,0.0,0.0,0.0,0.0,4.6454,5.1079,5.5119,0.0,5.9099,5.856,5.7214,5.3947,4.9696,4.4347,0.0,0.0,0.0,0.0,0.0,0.0,0.0,0.0,0.0,0.0,0.0,0.0,0.0,0.0,0.0,0.0,0.0,0.0,0.0,0.0,0.0,0.0,0.0,0.0,0.0,0.0,0.0,0.0,0.0,0.0,0.0,0.0,0.0,0.0,0.0,0.0,0.0,0.0,0.0,0.0,0.0,0.0,0.0,0.0,0.0,0.0,0.0,0.0,0.0,0.0,0.0,0.0,0.0,0.0,0.0,0.0,0.0,0.0,0.0,0.0,0.0,0.0,0.0,0.0,0.0,0.0,0.0,0.0,0.0,0.0,0.0,0.0,0.0,0.0,0.0,0.0,0.0,0.0,0.0,0.0,0.0,0.0,0.0,0.0,0.0,0.0,0.0,0.0,0.0,0.0,0.0,0.0,0.0,0.0,0.0,0.0,0.0,0.0,0.0,0.0,0.0,0.0,4.6711,5.3025,5.7603,5.8949,5.9099,5.856,5.7184,5.233,4.763,0.0,0.0,0.0,0.0,0.0,0.0,0.0,0.0,0.0,0.0,0.0,0.0,0.0,0.0,0.0,0.0,0.0,0.0,0.0,0.0,0.0,0.0,0.0,0.0,0.0,0.0,0.0,0.0,0.0,0.0,0.0,0.0,0.0,0.0,0.0,0.0,0.0,0.0,0.0,0.0,0.0,0.0,0.0,0.0,0.0,0.0,0.0,0.0,0.0,0.0,0.0,0.0,0.0,0.0,0.0,0.0,0.0,0.0,0.0,0.0,0.0,0.0,0.0,0.0,0.0,0.0,0.0,0.0,0.0,0.0,0.0,0.0,0.0,0.0,0.0,0.0,0.0,0.0,0.0,0.0,0.0,0.0,0.0,0.0,0.0,0.0,0.0,0.0,0.0,0.0,0.0,0.0,0.0,0.0,0.0,0.0,0.0,0.0,0.0,0.0,0.0,0.0,0.0,0.0,5.3025,5.7603,5.8949,5.9099,5.8381,5.6611,5.3767,4.9187,4.2421,0.0,0.0,0.0,0.0,0.0,0.0,0.0,0.0,0.0,0.0,0.0,0.0,0.0,0.0,0.0,0.0,0.0,0.0,0.0,0.0,0.0,0.0,0.0,0.0,0.0,0.0,0.0,0.0,0.0,0.0,0.0,0.0,0.0,0.0,0.0,0.0,0.0,0.0,0.0,0.0,0.0,0.0,0.0,0.0,0.0,0.0,0.0,0.0,0.0,0.0,0.0,0.0,0.0,0.0,0.0,0.0,0.0,0.0,0.0,0.0,0.0,0.0,0.0,0.0,0.0,0.0,0.0,0.0,0.0,0.0,0.0,0.0,0.0,0.0,0.0,0.0,0.0,0.0,0.0,0.0,0.0,0.0,0.0,0.0,0.0,0.0,0.0,0.0,0.0,0.0,0.0,0.0,0.0,0.0,0.0,0.0,0.0,0.0,0.0,0.0,0.0,0.0,4.6681,5.3025,5.7603,5.8949,5.9099,5.8411,5.6701,5.4486,5.0055,4.2641,0.0,0.0,0.0,0.0,0.0,0.0,0.0,0.0,0.0,0.0,0.0,0.0,0.0,0.0,0.0,0.0,0.0,0.0,0.0,0.0,0.0,0.0,0.0,0.0,0.0,0.0,0.0,0.0,0.0,0.0,0.0,0.0,0.0,0.0,0.0,0.0,0.0,0.0,0.0,0.0,0.0,0.0,0.0,0.0,0.0,0.0,0.0,0.0,0.0,0.0,0.0,0.0,0.0,0.0,0.0,0.0,0.0,0.0,0.0,0.0,0.0,0.0,0.0,0.0,0.0,0.0,0.0,0.0,0.0,0.0,0.0,0.0,0.0,0.0,0.0,0.0,0.0,0.0,0.0,0.0,0.0,0.0,0.0,0.0,0.0,0.0,0.0,0.0,0.0,0.0,0.0,0.0,0.0,0.0,0.0,0.0,0.0,0.0,0.0,0.0,0.0,0.0,4.6711,5.3054,5.7603,5.8949,5.9099,5.853,5.7124,5.4725,5.0481,4.3908,0.0,0.0,0.0,0.0,0.0,0.0,0.0,0.0,0.0,0.0,0.0,0.0,0.0,0.0,0.0,0.0,0.0,0.0,0.0,0.0,0.0,0.0,0.0,0.0,0.0,0.0,0.0,0.0,0.0,0.0,0.0,0.0,0.0,0.0,0.0,0.0,0.0,0.0,0.0,0.0,0.0,0.0,0.0,0.0,0.0,0.0,0.0,0.0,0.0,0.0,0.0,0.0,0.0,0.0,0.0,0.0,0.0,0.0,0.0,0.0,3.7811,0.0,0.0,0.0,0.0,0.0,0.0,0.0,0.0,0.0,0.0,0.0,0.0,0.0,0.0,0.0,0.0,0.0,0.0,0.0,0.0,0.0,0.0,0.0,0.0,0.0,0.0,0.0,0.0,0.0,0.0,0.0,0.0,0.0,0.0,0.0,0.0,0.0,0.0,0.0,0.0,0.0,4.7399,5.3354,5.7603,5.8949,5.9099,5.8351,5.6551,5.491,5.1379,4.5274,0.0,0.0,0.0,0.0,0.0,0.0,0.0,0.0,0.0,0.0,0.0,0.0,0.0,0.0,0.0,0.0,0.0,0.0,0.0,0.0,0.0,0.0,0.0,0.0,0.0,0.0,0.0,0.0,0.0,0.0,0.0,0.0,0.0,0.0,0.0,0.0,0.0,0.0,0.0,0.0,0.0,0.0,0.0,0.0,0.0,0.0,0.0,0.0,0.0,0.0,0.0,0.0,0.0,0.0,0.0,0.0,0.0,0.0,0.0,0.0,0.0,3.9966,0.0,0.0,0.0,0.0,0.0,0.0,0.0,0.0,0.0,0.0,0.0,0.0,0.0,0.0,0.0,0.0,0.0,0.0,0.0,0.0,0.0,0.0,0.0,0.0,0.0,0.0,0.0,0.0,0.0,0.0,0.0,0.0,0.0,0.0,0.0,0.0,0.0,0.0,0.0,0.0,4.766,5.3443,5.7603,5.8949,5.9099,5.8441,5.6765,5.5418,5.2546,4.754,4.315,0.0,0.0,0.0,0.0,0.0,0.0,0.0,0.0,0.0,0.0,0.0,0.0,0.0,0.0,0.0,0.0,0.0,0.0,0.0,0.0,0.0,0.0,0.0,0.0,0.0,0.0,0.0,0.0,0.0,0.0,0.0,0.0,0.0,0.0,0.0,0.0,0.0,0.0,0.0,0.0,0.0,0.0,0.0,0.0,0.0,0.0,0.0,0.0,0.0,0.0,0.0,0.0,0.0,0.0,5.0474,5.1013,5.1013,5.1672,5.2492,4.8057,4.6082,4.5723,0.0,0.0,0.0,0.0,0.0,0.0,0.0,0.0,0.0,0.0,0.0,0.0,0.0,0.0,0.0,0.0,0.0,0.0,0.0,0.0,0.0,0.0,0.0,0.0,0.0,4.8071,4.7329,0.0,0.0,0.0,0.0,0.0,0.0,0.0,0.0,0.0,0.0,0.0,0.0,4.8207,5.3743,5.7752,5.8979,5.9099,5.856,5.7214,5.6017,5.3827,5.0205,4.6322,4.2382,0.0,0.0,0.0,0.0,0.0,0.0,0.0,0.0,0.0,0.0,0.0,0.0,0.0,0.0,0.0,0.0,0.0,0.0,0.0,0.0,0.0,0.0,0.0,0.0,0.0,0.0,0.0,0.0,0.0,0.0,0.0,0.0,3.5868,3.7289,0.0,0.0,0.0,0.0,0.0,0.0,0.0,0.0,0.0,0.0,0.0,0.0,0.0,0.0,4.9149,5.0796,5.2504,5.4192,5.6555,5.7723,5.7812,5.7812,5.8201,5.886,5.7573,0.0,4.8678,4.76,0.0,0.0,0.0,0.0,0.0,0.0,0.0,0.0,0.0,0.0,0.0,0.0,0.0,0.0,0.0,0.0,0.0,0.0,0.0,0.0,0.0,0.0,5.2561,5.1822,5.1705,5.1104,0.0,4.3844,3.878,3.5376,0.0,0.0,0.0,0.0,0.0,0.0,0.0,0.0,5.0219,5.5004,5.8264,5.9009,5.9099,5.856,5.7214,5.6462,5.5114,5.2839,4.9516,4.686,4.5074,4.0427,0.0,0.0,0.0,0.0,0.0,0.0,0.0,0.0,0.0,0.0,0.0,0.0,0.0,0.0,0.0,0.0,0.0,0.0,0.0,0.0,0.0,0.0,0.0,0.0,0.0,0.0,0.0,0.0,0.0,3.6018,3.8464,3.865,3.8792,3.8574,0.0,0.0,0.0,0.0,0.0,0.0,0.0,0.0,0.0,4.778,4.872,5.0144,5.2162,5.3978,5.5498,5.6592,5.8135,5.9021,5.9392,5.9392,6.0106,6.1321,6.1028,5.9432,5.6731,5.2719,4.9404,4.6651,0.0,0.0,0.0,0.0,0.0,4.4676,4.6531,0.0,0.0,0.0,0.0,0.0,0.0,0.0,0.0,0.0,0.0,0.0,0.0,0.0,0.0,5.4478,5.4808,5.461,5.3294,5.0095,4.6011,0.0,3.8931,3.6957,3.3366,0.0,0.0,0.0,0.0,0.0,5.1201,5.4676,5.7347,5.8958,5.9099,5.871,5.7752,5.7064,5.6042,5.4401,5.227,5.0145,4.8057,4.4676,4.0756,0.0,0.0,0.0,0.0,0.0,0.0,0.0,0.0,0.0,0.0,0.0,0.0,0.0,0.0,0.0,0.0,0.0,0.0,0.0,0.0,0.0,0.0,0.0,0.0,0.0,0.0,0.0,0.0,3.8599,4.0365,3.9639,4.0906,4.1276,0.0,0.0,0.0,0.0,0.0,0.0,4.6746,4.8494,4.9984,5.1132,5.2466,5.3965,5.5655,5.6677,5.7786,5.8874,5.9319,5.9902,6.054,6.054,6.1216,6.2338,6.2641,6.2913,6.2735,5.7235,5.4072,5.2402,4.9471,4.8334,4.8454,4.9434,5.0025,5.0684,5.3109,5.3977,5.3528,5.072,0.0,4.6599,4.2488,0.0,0.0,0.0,0.0,4.8326,5.1731,0.0,5.505,5.6586,5.742,5.7513,5.6226,5.4999,5.2396,0.0,4.4736,4.2752,3.763,0.0,0.0,0.0,0.0,4.7872,5.2083,5.4563,5.6748,5.8877,5.9099,5.883,5.8145,5.7483,5.6615,5.5534,5.4216,5.245,5.0145,4.8297,4.4954,0.0,0.0,0.0,0.0,0.0,0.0,0.0,0.0,0.0,0.0,0.0,0.0,0.0,0.0,0.0,0.0,0.0,0.0,0.0,0.0,0.0,0.0,0.0,0.0,0.0,0.0,0.0,0.0,0.0,0.0,3.9827,4.2045,0.0,0.0,0.0,0.0,4.6419,4.937,5.071,4.9746,5.2584,5.5104,5.6999,5.6744,5.795,6.0902,5.9464,5.982,6.2082,6.2109,6.2474,6.3115,6.3115,6.2853,6.2477,6.3549,6.3757,6.3116,6.0722,5.859,5.6585,5.461,5.3778,5.3832,5.3892,5.47,5.5833,5.5983,5.6042,5.6102,5.6466,5.4945,5.2826,5.1921,5.093,0.0,0.0,5.2016,5.3553,5.5446,5.6903,5.8048,5.877,5.9458,5.9578,5.8234,5.7393,5.5508,0.0,4.8364,4.6205,4.3344,0.0,4.2984,4.342,4.5799,4.9014,5.3179,5.544,5.727,5.8907,5.9099,5.883,5.8145,5.7483,5.6825,5.6192,5.488,5.3533,5.2097,5.0727,4.8125,4.4087,4.0157,0.0,0.0,0.0,0.0,0.0,0.0,0.0,0.0,0.0,0.0,0.0,0.0,0.0,0.0,0.0,0.0,0.0,0.0,0.0,0.0,0.0,0.0,0.0,0.0,0.0,0.0,0.0,0.0,4.4364,4.5974,0.0,0.0,4.6782,4.8324,5.0961,5.2955,5.4151,5.4347,5.5814,5.6818,5.716,5.7021,5.7646,5.9118,5.8514,5.8654,5.9466,5.9466,5.9607,5.9815,5.9815,6.0349,6.1264,6.1682,6.2831,6.4361,6.3167,6.2234,6.1343,5.9398,5.865,5.859,5.8171,5.856,5.9338,5.9338,5.9638,5.9727,5.8231,5.6582,5.5082,5.4418,5.4207,5.4361,5.4909,5.5746,5.6817,5.8338,5.9039,5.9548,6.0236,6.0565,6.0625,6.0119,5.8335,5.6357,5.4698,5.2111,4.9499,4.7296,4.669,4.6291,4.5649,4.7243,4.9561,5.2519,5.4256,5.582,5.7384,5.8468,5.883,5.8145,5.7483,5.6645,5.5623,5.47,5.3593,5.2247,5.0907,4.8962,4.6292,4.318,3.8901,0.0,0.0,0.0,0.0,0.0,0.0,0.0,0.0,0.0,0.0,0.0,0.0,0.0,0.0,0.0,0.0,0.0,0.0,0.0,0.0,0.0,0.0,0.0,0.0,0.0,0.0,4.6823,4.7575,4.964,5.072,4.9971,5.0865,5.2526,5.5081,5.6451,5.723,5.7416,5.8218,5.8481,5.8102,5.829,5.8629,5.9006,5.9006,5.8905,5.8704,5.8704,5.8604,5.8428,5.8428,5.902,5.999,6.0587,6.1914,6.3633,6.4177,6.4418,6.4213,6.2937,6.2422,6.2362,6.1912,6.1882,6.2061,6.1852,6.1912,6.1822,6.0027,5.874,5.7752,5.7334,5.7483,5.7958,5.8351,5.877,5.9371,6.0475,6.0745,6.0864,6.1343,6.1433,6.1204,6.0398,5.8694,5.7139,5.6561,5.4063,5.1384,4.9367,4.9009,4.8561,4.7174,4.8084,4.9744,5.1977,5.3506,5.4976,5.6537,5.8136,5.883,5.8145,5.7094,5.5987,5.494,5.3832,5.2606,5.1282,5.0361,4.8962,4.6988,4.4167,4.0325,3.5476,0.0,0.0,0.0,0.0,0.0,0.0,0.0,0.0,0.0,0.0,0.0,0.0,0.0,0.0,0.0,0.0,0.0,0.0,0.0,0.0,0.0,0.0,0.0,4.2501,4.7079,5.0117,4.917,5.2829,5.4994,5.3876,5.6266,5.8123,5.8621,5.9732,5.9942,5.8831,5.9745,6.0337,6.0337,6.0889,6.119,6.119,6.119,6.0889,6.0337,6.0337,6.0035,5.9508,5.9508,5.9232,5.8806,6.0587,6.1069,6.0825,6.3763,6.4999,6.5026,6.5044,6.5024,6.5024,6.5024,6.4575,6.3917,6.3347,6.2689,6.2121,6.2121,6.1702,6.1136,6.1136,6.1136,6.1136,6.1136,6.1136,6.1313,6.1972,6.2121,6.2121,6.2064,6.2064,6.1398,5.8985,5.8431,5.79,5.6274,5.4009,5.176,4.9767,4.9841,4.9663,4.8176,4.8435,0.0,5.1662,5.3338,5.4888,5.6394,5.7998,5.8695,5.8035,5.6239,5.483,5.4167,5.2252,5.0601,4.9337,4.9247,4.8319,4.636,4.312,4.0157,3.7524,0.0,0.0,0.0,0.0,0.0,0.0,0.0,0.0,0.0,0.0,0.0,0.0,0.0,0.0,0.0,0.0,0.0,0.0,0.0,0.0,0.0,0.0,4.7268,4.7543,5.0268,5.282,5.4526,5.5842,5.6742,5.7244,5.7684,5.8447,5.9719,6.0138,6.0402,6.0501,6.0788,6.0939,6.0939,6.109,6.119,6.119,6.119,6.1115,6.0939,6.0512,6.0236,6.0085,5.9684,5.9408,5.932,5.9833,6.0472,6.1242,6.2068,6.2957,6.3925,6.52,6.5742,6.5682,6.5174,6.4575,6.3977,6.3797,6.3348,6.2838,6.2838,6.2718,6.254,6.254,6.254,6.254,6.254,6.254,6.2599,6.2778,6.2838,6.252,6.1262,6.0936,6.0432,5.8561,5.684,5.5532,5.5055,5.3142,5.1669,5.1803,5.07,4.9622,4.9202,0.0,0.0,5.0155,5.1647,5.2822,5.3251,5.4713,5.5681,5.5732,5.4335,5.3264,0.0,5.0923,4.9666,4.9307,4.8379,4.7578,4.704,4.4287,4.2032,0.0,0.0,0.0,0.0,0.0,0.0,0.0,0.0,0.0,0.0,0.0,0.0,0.0,0.0,0.0,0.0,0.0,0.0,0.0,0.0,0.0,0.0,4.8413,5.1448,5.3181,5.4536,5.6082,5.8139,5.8629,5.9031,5.9684,5.9458,5.9759,6.0939,6.1014,6.1266,6.1843,6.1868,6.1868,6.1868,6.1868,6.1868,6.1868,6.1868,6.1768,6.1517,6.119,6.0914,6.0663,6.0085,5.9834,0.0,5.9583,5.9934,6.0674,6.1169,6.184,0.0,0.0,0.0,0.0,0.0,6.5173,6.4814,6.4515,6.4006,6.3468,6.3468,6.3317,6.3108,6.3108,6.3108,6.2933,6.2233,6.1998,6.1851,6.1138,6.0958,6.0718,5.9688,5.9444,5.898,5.7277,5.5874,5.4722,5.4015,0.0,0.0,5.2413,5.1274,5.0293,5.0293,5.0293,5.0218,0.0,5.1347,5.2253,5.202,5.3429,5.4352,5.4234,5.2765,0.0,0.0,0.0,4.8249,4.8035,4.701,0.0,0.0,0.0,0.0,0.0,0.0,0.0,0.0,4.3743,4.4278,0.0,0.0,0.0,0.0,0.0,0.0,0.0,0.0,0.0,0.0,0.0,0.0,0.0,0.0,0.0,0.0,5.2026,5.5315,5.8554,5.9018,5.9369,6.0311,6.0864,6.1215,6.1266,6.1266,6.1492,6.2044,6.2094,6.232,6.2756,0.0,0.0,0.0,0.0,6.2781,6.2781,6.2781,6.2531,6.2094,6.2044,6.1743,6.1266,6.0613,6.0311,6.0286,5.9734,5.9483,5.9612,6.0734,6.1169,6.1348,6.2988,6.4218,6.5185,6.5965,6.6131,0.0,0.0,0.0,0.0,6.4006,6.3617,6.3169,6.2905,6.2817,6.2438,6.072,6.0237,5.9902,5.8383,5.8005,5.7941,5.7751,5.7719,5.7213,5.5485,5.5115,5.4675,5.3179,5.2528,5.2201,5.2201,5.1699,5.1306,5.1306,5.1306,0.0,5.0569,5.1775,5.2439,5.1972,0.0,0.0,5.3261,5.1557,5.0683,5.1012,4.8862,4.7334,4.6745,4.6322,4.6651,4.7818,4.8506,4.9404,5.0548,5.1738,5.292,5.3922,4.7044,4.7006,0.0,0.0,0.0,0.0,0.0,0.0,0.0,0.0,0.0,0.0,0.0,0.0,0.0,0.0,0.0,5.1523,5.4913,5.7926,6.0362,6.109,6.1291,6.104,6.1115,6.1366,6.1793,6.1843,6.2069,6.2581,6.2631,6.2681,6.2781,6.2781,0.0,6.2781,6.2781,6.2781,6.2781,6.2781,6.2731,6.2631,0.0,0.0,6.1818,6.0788,6.0311,6.0286,5.9734,5.9483,5.9521,5.9781,5.9883,6.0252,6.4076,6.5383,6.53,6.7004,6.6909,6.5981,6.5862,6.5353,6.4725,6.4186,6.3917,6.3473,6.1582,6.099,0.0,5.8977,5.8477,5.8415,5.81,5.8005,5.7656,5.6239,5.5912,5.5446,5.3742,5.3393,5.3316,5.2964,5.282,5.2744,5.2744,5.195,5.1306,5.1306,5.1306,5.128,5.1122,5.1395,5.1575,5.1448,5.1685,5.1962,5.2125,5.0823,5.0739,5.2303,5.1673,5.0679,4.9478,5.0361,5.099,5.1259,5.1911,5.2366,5.2606,5.2899,5.395,5.5676,5.3407,5.373,0.0,0.0,0.0,0.0,0.0,0.0,0.0,0.0,0.0,0.0,0.0,4.4375,4.6978,0.0,5.1825,5.4913,5.775,6.0035,6.1391,6.2069,6.232,6.2044,6.1994,6.2119,6.2395,6.2421,6.248,6.2756,6.2781,6.2781,6.2781,6.2781,6.2781,6.2781,6.2781,6.2781,6.2781,6.2781,6.2781,6.2781,6.2546,6.2421,6.2395,6.1542,6.1014,6.0713,6.0161,5.9759,5.9483,5.9483,5.9483,5.9908,6.4029,6.5255,6.4905,6.7162,6.7598,6.6939,6.661,6.5464,6.408,6.3758,6.2826,6.1528,6.0093,5.9645,5.9217,5.7263,5.6699,5.6531,5.567,5.5439,5.5241,5.4366,5.413,5.392,5.3076,5.2895,5.2895,5.2895,5.2895,5.2895,5.2895,5.2477,5.2101,5.2101,5.2101,5.2,5.1724,5.1699,5.1599,5.1322,5.1306,5.1352,5.1556,5.1839,5.2436,5.3296,5.3562,5.3084,5.1768,5.2336,5.3025,5.3683,5.4366,5.5025,5.5658,5.6342,5.718,5.8138,5.7993,5.8192,0.0,0.0,0.0,0.0,0.0,0.0,0.0,0.0,4.2999,4.5683,4.7043,4.8636,5.1568,5.358,5.5616,5.7976,6.0035,6.1542,6.2094,6.2546,6.2781,6.2781,6.2781,6.2781,6.2781,6.2781,6.2781,6.2781,6.2781,6.2781,6.2781,6.2781,6.2781,6.2781,6.2781,6.2781,6.2781,6.2781,6.2781,6.2781,6.2781,6.2781,6.2781,6.2245,6.1768,6.1316,6.0613,6.001,5.9483,5.9483,5.9483,5.9843,6.3329,6.4305,6.4189,6.7125,6.7889,6.74,6.6715,6.4942,6.2933,6.2819,6.1425,5.9626,5.8756,5.8417,5.7868,5.5703,5.4994,5.4608,5.3247,5.2895,5.2895,5.2895,5.2895,5.2895,5.2895,5.2895,5.2895,5.2895,5.2895,5.2895,5.2895,5.2895,5.2895,5.2895,5.2895,5.2719,5.2327,5.2277,5.2101,5.1649,5.1599,5.1716,5.1897,5.357,5.4613,5.4636,5.5591,5.5598,5.4396,5.4486,5.5055,5.6107,5.6821,5.7663,5.8683,5.9757,6.0356,6.0475,6.1044,6.1014,3.7362,3.6248,3.6597,3.9395,4.0639,4.2836,0.0,0.0,4.7983,5.1728,5.3119,5.3917,5.4774,5.7083,5.9106,5.991,6.109,6.2094,6.2647,6.2756,6.2781,6.2781,6.2781,6.2781,6.2781,6.2781,6.2781,6.2781,6.2781,6.2781,6.2781,6.2781,6.2781,6.2781,6.2781,6.2781,6.2781,6.2781,6.2781,6.2781,6.2781,6.2781,6.2781,6.2245,6.1969,6.1843,6.0788,6.001,5.9483,5.9483,5.9483,5.9714,6.1891,6.2667,6.3114,6.7342,6.7489,6.5502,6.4833,6.3354,6.1669,6.1109,6.0722,6.0093,5.7952,5.6975,5.6216,5.4414,5.3567,5.3145,5.2964,5.2895,5.2895,5.2895,5.2895,5.2895,5.2895,5.2895,5.2895,5.2895,5.2895,5.2895,5.2895,5.2895,5.2895,5.2895,5.2895,5.287,5.282,5.2795,5.277,5.2719,5.2719,5.3123,5.4132,5.532,5.6351,5.7226,5.8721,5.9219,5.8471,5.9009,5.9425,5.9575,6.0206,6.0625,6.0747,6.0896,6.1283,6.1882,6.1942,6.1942,4.163,4.1042,0.0,0.0,4.4018,4.6616,4.9628,5.028,5.1085,5.4014,5.5604,5.6771,5.7625,5.9257,6.0663,0.0,6.1969,6.2531,6.2756,6.2781,6.2556,6.1943,6.2446,6.2781,6.2781,6.2781,6.2781,6.2781,6.2781,6.2781,6.2781,6.2781,6.2781,6.2781,6.2781,6.2781,6.2781,6.2781,6.2781,6.2781,6.2781,6.2781,6.2781,6.2556,6.2144,6.1492,6.0663,6.001,5.9483,5.9483,5.9483,5.9676,6.1629,6.2413,6.2724,6.5283,6.5362,6.4105,6.342,6.1798,5.997,5.9693,5.8881,5.7816,5.6498,5.5944,5.5548,5.4532,5.3808,5.3381,5.3381,5.3121,5.2895,5.2895,5.2895,5.2895,5.2895,5.2895,5.2895,5.2895,5.2895,5.2895,5.2895,5.2895,5.2895,5.2895,5.2895,5.2895,5.2895,5.2895,5.2895,5.2895,5.2895,5.391,5.6374,5.6989,5.8091,6.0116,6.0886,6.0954,6.0296,6.0535,6.0864,6.1253,6.1553,6.1882,6.2241,6.2241,6.2391,6.266,6.266,6.266,4.379,0.0,0.0,4.4622,4.7311,4.9992,5.0326,5.1975,5.4009,5.5917,5.7499,5.8905,5.9985,6.0989,6.1768,6.2169,6.2571,6.2781,6.2781,6.2571,6.2069,6.1291,6.1617,6.2019,6.2345,6.2647,6.2781,6.2781,6.2781,6.2781,6.2781,6.2781,6.2781,6.2781,6.2781,6.2781,6.2781,6.2781,6.2781,6.2781,6.2781,6.2781,6.2781,6.2781,6.222,6.1205,6.0738,6.0161,5.9483,5.9483,5.9483,5.9637,6.1051,6.1591,6.1689,6.2555,6.2892,6.2754,6.1956,6.0223,5.8352,5.8205,5.7267,5.6143,5.5742,5.5516,5.5315,5.4949,5.4421,5.3909,5.3733,5.3432,5.3071,5.292,5.2895,5.2895,5.2895,5.2895,5.2895,5.2895,5.2895,5.2895,5.2895,5.2895,5.2895,5.2895,5.2895,5.2895,5.2895,5.2895,5.2895,5.2895,5.3291,5.4801,5.7751,5.8446,5.9761,6.2219,6.2361,6.2151,6.1672,6.1642,6.1882,6.2361,6.2361,6.26,6.3108,6.3108,6.3108,6.3108,6.3108,6.3108,0.0,0.0,4.5242,4.7964,5.072,5.308,5.417,5.5691,5.7186,5.834,5.9483,6.0588,6.1718,6.2395,6.2756,6.2756,6.2781,6.2781,6.2781,6.1893,6.1215,6.119,6.0236,6.0035,0.0,6.2195,6.2781,6.2781,6.2781,6.2781,6.2781,6.2781,6.2781,6.2781,6.2781,6.2781,6.2781,6.2781,6.2781,6.2781,6.2781,6.2781,6.2781,6.2781,6.222,6.119,6.1165,6.0537,5.9483,5.9483,5.9483,5.9483,5.956,5.9599,5.9599,5.9612,6.0476,6.1377,6.0205,5.8606,5.6996,5.6443,5.6255,5.6219,5.6194,5.5817,5.539,5.5365,5.4999,5.4446,5.3858,5.3683,5.3557,5.302,5.2895,5.2895,5.2895,5.2895,5.2895,5.2895,5.2895,5.2895,5.2895,5.2895,5.2895,5.2895,5.2895,5.2895,5.2895,5.2895,5.2895,5.2895,5.4366,5.6043,5.7846,5.9475,6.1169,6.2962,6.3078,6.3078,6.3048,6.3048,6.3048,6.3078,6.3078,6.3078,6.3108,6.3108,6.3108,6.3108,6.3108,6.3108,0.0,0.0,4.9439,5.1122,5.3607,5.5906,5.7084,5.775,5.8541,6.006,6.0035,6.001,6.0763,6.104,6.1251,6.1667,6.2044,6.2395,6.2731,6.2496,6.1718,6.0236,6.0713,0.0,0.0,0.0,0.0,6.2731,6.2781,6.2781,6.2781,6.2781,6.2781,6.2781,6.2781,6.2781,6.2781,6.2781,6.2781,6.2781,6.2781,6.2781,6.2781,6.2781,6.222,6.119,6.119,6.0537,5.9483,5.9483,5.9483,5.9483,5.9483,5.9483,5.9483,5.9483,5.9781,6.0086,5.9308,5.8147,5.696,5.6784,5.6483,5.6219,5.6219,5.6068,5.5942,5.5942,5.5541,5.5064,5.4863,5.4561,5.427,5.4059,5.4009,5.4009,5.4009,5.4009,5.4009,5.4009,5.4009,5.3884,5.3507,5.3432,5.3331,5.2945,5.2895,5.2895,5.2895,5.2895,5.2895,5.2895,5.44,5.6108,5.7846,5.9565,6.1258,6.2992,6.3108,6.3108,6.3108,6.3108,6.3108,6.3108,6.3108,6.3108,6.3108,6.3108,6.3317,6.3677,6.3677,6.3947,4.7732,5.0218,5.2854,5.4526,5.6584,5.8453,5.9357,5.9433,5.9533,6.0412,5.9684,5.9031,5.9382,5.9282,5.9533,6.0688,6.1165,6.1743,6.2656,6.228,6.1466,6.0236,6.0537,6.0512,0.0,0.0,0.0,6.2446,6.2681,6.2781,6.2781,6.2781,6.2781,6.2781,6.2781,6.2781,6.2781,6.2781,6.2781,6.2781,6.2781,6.2781,6.2781,6.2781,6.2345,6.1466,6.1266,6.0663,5.9784,5.9583,5.9483,5.9483,5.9483,5.9483,5.9483,5.9483,5.9483,5.9408,5.8905,5.8215,5.7537,5.7136,5.6759,5.647,5.6269,5.6219,5.6219,5.6219,5.5968,5.5641,5.544,5.5114,5.4848,5.4647,5.4597,5.4597,5.4597,5.4597,5.4597,5.4597,5.4597,5.4471,5.4084,5.3833,5.3532,5.297,5.2895,5.2895,5.2895,5.2895,5.2895,5.2895,5.4975,5.6763,5.791,6.0114,6.191,6.305,6.3108,6.3108,6.3108,6.3108,6.3108,6.3108,6.3108,6.3108,6.3108,6.3317,6.3617,6.4006,6.4246,6.4575,5.0745,5.314,5.5501,5.8127,5.9583,6.0512,6.1065,6.0688,6.006,5.9483,5.8453,5.7625,0.0,0.0,5.7562,5.967,6.0236,6.0939,6.2556,6.1426,6.0638,0.0,0.0,0.0,0.0,0.0,0.0,6.1918,0.0,6.2756,6.2781,6.2781,6.2781,6.2781,6.2781,6.2781,6.2781,6.2781,6.2781,6.2781,6.2781,6.2781,6.2781,6.2781,6.2521,6.1969,6.1441,6.0889,6.0286,5.9759,5.9508,5.9483,5.9483,5.9483,5.9483,5.9483,5.9483,5.9433,5.893,5.8716,5.8516,5.7437,5.7035,5.691,5.642,5.6244,5.6219,5.6219,5.6219,5.6093,5.5566,5.544,5.529,5.4798,5.4672,5.4672,5.4672,5.4672,5.4672,5.4672,5.4672,5.4647,5.4647,5.411,5.3532,5.2995,5.292,5.2895,5.2895,5.2895,5.2895,5.2895,5.5972,5.8005,5.8005,6.1138,6.3108,6.3108,6.3108,6.3108,6.3108,6.3108,6.3108,6.3168,6.3168,6.3168,6.3197,6.3767,6.4066,6.4126,6.4636,6.4935,5.3708,5.6244,5.8504,5.9633,6.0437,6.0989,6.114,6.0111,5.8817,5.7838,5.5781,5.3773,0.0,0.0,0.0,5.6495,5.9081,0.0,6.2606,6.243,0.0,6.1266,0.0,6.1014,6.0588,6.1165,0.0,0.0,6.2144,6.2395,6.2756,6.2781,6.2781,6.2781,6.2781,6.2781,6.2781,6.2781,6.2781,6.2781,6.2781,6.2781,6.2781,6.2781,6.2521,6.1994,6.1868,6.124,6.0311,6.0161,5.9859,5.9483,5.9483,5.9483,5.9483,5.9483,5.9483,5.9483,5.9332,5.9056,5.8641,5.834,5.7688,5.696,5.6835,5.6508,5.6219,5.6219,5.6219,5.6168,5.6043,5.6018,5.5968,5.5817,5.5792,5.5792,5.5792,5.5792,5.5792,5.5792,5.5465,5.5189,5.5189,5.4361,5.3658,5.3532,5.3146,5.2895,5.2895,5.2895,5.2895,5.2895,5.5972,5.8005,5.8005,6.1138,6.3108,6.3108,6.3108,6.3108,6.3108,6.3108,6.3317,6.3767,6.3767,6.4006,6.4516,6.4665,6.4994,6.5473,6.4285,6.3987,5.6595,5.8855,6.0663,6.0989,6.1291,6.124,6.001,5.8654,5.6897,5.4275,5.2151,0.0,0.0,0.0,0.0,0.0,0.0,0.0,6.1236,6.2158,6.2596,0.0,6.1969,0.0,6.1466,6.1768,6.2094,0.0,6.237,6.2496,6.2781,6.2781,6.2781,6.2781,6.2781,6.2781,6.2781,6.2781,6.2781,6.2781,6.2781,6.2781,6.2781,6.2781,6.2647,6.2345,0.0,6.1517,6.0688,6.0412,5.9985,5.9483,5.9483,5.9483,5.9483,5.9483,5.9483,5.9483,5.9483,5.9307,5.9031,5.8805,5.8265,5.7637,5.7136,5.6784,5.6483,5.6269,5.6219,5.6219,5.6219,5.6219,5.6219,5.6219,5.6219,5.6219,5.6219,5.6219,5.6219,5.6219,5.5968,5.5666,5.544,5.4863,5.4361,5.411,5.3833,5.3658,5.3658,5.3196,5.2895,5.2895,5.5972,5.8005,5.8005,6.1138,6.3227,6.3468,6.3468,6.3617,6.3917,6.3947,6.4096,6.4455,6.4455,6.4219,6.3821,6.4115,6.404,6.3612,6.2886,6.2745,5.8458,6.0213,6.1624,6.1549,6.1667,6.1065,5.8303,5.6646,5.4436,5.0067,0.0,4.7004,4.5874,4.7914,4.9986,5.0673,0.0,5.9715,5.9482,6.1448,6.2973,6.3048,6.2621,6.2521,6.2957,6.2546,6.2421,6.2857,6.2832,6.2781,6.2781,6.2781,6.2781,6.2781,6.2781,6.2781,6.2781,6.2781,6.2781,6.2781,6.2781,6.2781,6.2781,6.2781,6.2781,6.2756,0.0,0.0,6.1266,6.0763,6.0161,5.9608,5.9608,5.9558,5.9483,5.9483,5.9483,5.9483,5.9483,5.9483,5.9408,5.8981,5.8742,5.8529,5.7512,5.7111,5.6885,5.6433,5.6269,5.6219,5.6219,5.6219,5.6219,5.6219,5.6219,5.6219,5.6219,5.6219,5.6219,5.6219,5.6219,5.6068,5.5591,5.544,5.5214,5.4773,5.4647,5.4597,5.4597,5.3733,5.3155,5.3155,5.6211,5.8253,5.8253,6.14,6.347,6.3743,6.3772,6.404,6.4606,6.4636,6.4665,6.4755,6.4755,6.3937,6.22,6.2775,6.2292,6.0722,6.1079,6.1225,5.5938,5.7738,5.9637,5.9205,5.9852,5.9846,5.7123,5.4587,0.0,0.0,0.0,4.4041,4.2457,4.4579,4.7136,4.8768,5.3675,5.7903,5.9767,0.0,6.3701,0.0,0.0,0.0,0.0,0.0,0.0,0.0,0.0,6.2781,6.2781,6.2781,6.2781,6.2781,6.2781,6.2781,6.2781,6.2781,6.2781,6.2781,6.2781,6.2781,6.2781,6.2781,6.2781,6.2781,0.0,0.0,6.1843,6.1743,6.1115,6.0186,6.0186,5.991,5.9483,5.9483,5.9483,5.9483,5.9483,5.9483,5.9483,5.9382,5.9081,5.8641,5.8478,5.7738,5.6985,5.6885,5.6533,5.6219,5.6219,5.6219,5.6219,5.6219,5.6219,5.6219,5.6219,5.6219,5.6219,5.6219,5.6219,5.6168,5.6093,5.5691,5.5365,5.53,5.4898,5.4597,5.4597,5.4446,5.4321,5.4321,5.741,5.9496,5.9496,6.2677,6.4099,6.2699,6.2606,6.2635,6.2751,6.278,6.3012,6.3564,6.3593,6.2972,6.1725,6.1836,6.1731,6.139,6.0004,5.9392,5.5509,5.6455,5.7681,5.833,5.8047,5.6745,5.3284,0.0,0.0,0.0,4.1219,4.1089,3.9279,4.2636,0.0,4.5359,5.1091,5.5878,5.6796,6.007,0.0,0.0,0.0,0.0,0.0,0.0,0.0,0.0,0.0,6.3149,6.2807,6.2781,6.2781,6.2781,6.2781,6.2781,6.2781,6.2781,6.2781,6.2781,6.2781,6.2781,6.2781,6.2781,6.2781,6.2781,6.2781,0.0,6.1994,6.1994,6.1517,6.0763,6.0763,6.0613,6.0337,6.0035,5.9935,5.9885,5.9583,5.9483,5.9483,5.9483,5.9332,5.9081,5.8767,5.8315,5.7813,5.7575,5.7298,5.7097,5.7097,5.6872,5.6609,5.6609,5.642,5.6219,5.6219,5.6219,5.6219,5.6219,5.6219,5.6219,5.6219,5.5993,5.5817,5.5817,5.5591,5.5415,5.5415,5.5415,5.5225,5.4672,5.6907,5.8408,5.8408,6.0738,6.1959,6.1474,6.1409,6.1997,6.3265,6.2433,6.2543,6.3789,6.2892,6.1686,6.0195,6.0195,5.9712,5.8789,5.8206,5.7893,5.4281,5.4785,5.5395,5.6471,5.5463,5.3146,4.9024,4.6989,0.0,0.0,3.7687,3.8913,3.7517,4.1041,4.3899,0.0,4.8843,5.368,5.4439,5.8467,6.2019,0.0,0.0,0.0,0.0,0.0,0.0,0.0,0.0,0.0,6.2832,6.2781,6.2781,6.2781,6.2781,6.2781,6.2781,6.2781,6.2781,6.2781,6.2781,6.2781,6.2781,6.2781,6.2781,6.2781,6.2781,0.0,0.0,6.2169,6.1868,6.1366,6.1366,6.1291,6.1115,6.0537,6.0311,6.0236,5.9684,5.9483,5.9483,5.9483,5.9483,5.9408,5.9006,5.8805,5.8591,5.8202,5.8001,5.7901,5.7901,5.7549,5.7186,5.7186,5.6897,5.657,5.657,5.657,5.657,5.657,5.647,5.6394,5.6394,5.6294,5.6219,5.6219,5.6219,5.6219,5.6219,5.6219,5.5892,5.5049,5.6469,5.7488,5.7488,5.9027,6.0083,6.0243,6.0237,6.1098,6.3056,6.1763,6.1696,6.3117,6.1868,6.0315,5.8478,5.8608,5.796,5.657,5.6985,5.7186,4.9999,5.11,5.2451,5.1249,5.1087,5.0081,4.5728,0.0,0.0,3.7391,3.7432,3.8291,3.8642,3.9304,4.0928,4.4454,0.0,5.1247,5.5966,5.9706,6.2722,6.4881,0.0,0.0,0.0,0.0,0.0,0.0,0.0,0.0,6.2832,6.2781,6.2781,6.2781,6.2781,6.2781,6.2781,6.2781,6.2781,6.2781,6.2781,6.2781,6.2781,6.2781,6.2781,6.2781,0.0,0.0,0.0,6.2706,6.2421,6.1943,6.1943,6.1617,6.1115,6.0537,6.0311,6.0236,5.9684,5.9483,5.9483,5.9483,5.9483,5.9483,5.9433,5.9106,5.8666,5.8616,5.8278,5.7901,5.7901,5.7851,5.7826,5.7826,5.7775,5.775,5.775,5.775,5.775,5.775,5.7323,5.6935,5.6935,5.6508,5.6219,5.6219,5.6219,5.6219,5.6219,5.6219,5.6168,5.6068,5.7633,5.871,5.871,6.041,6.0749,5.9173,5.9068,5.9165,5.9392,5.9253,5.9218,5.9392,5.9687,5.8971,5.7169,5.7735,5.7913,5.775,5.7801,5.7826,4.8397,4.9366,5.0297,5.021,4.898,4.6837,4.3257,0.0,3.8221,3.4413,3.5049,3.6477,3.7038,3.843,3.9958,4.1345,4.427,4.7406,5.0286,5.4334,5.777,5.9885,6.1195,0.0,0.0,0.0,0.0,0.0,0.0,0.0,6.2832,6.2781,6.2781,6.2781,6.2781,6.2781,6.2781,6.2781,6.2781,6.2781,6.2781,6.2781,6.2781,6.2781,6.2781,6.2781,0.0,0.0,0.0,6.2781,6.2656,6.2496,6.2496,6.237,6.2069,6.1165,6.0839,6.0713,5.9809,5.9483,5.9483,5.9483,5.9483,5.9483,5.9483,5.9357,5.9182,5.9182,5.9031,5.8855,5.8855,5.8629,5.8303,5.7976,5.7901,5.7901,5.7901,5.7901,5.7901,5.7901,5.77,5.7549,5.7549,5.7374,5.7123,5.6734,5.6659,5.6559,5.6244,5.6219,5.6219,5.6219,5.6859,5.7267,5.7267,5.7931,5.8037,5.7338,5.7574,5.8234,5.9324,5.8678,5.8812,5.9913,5.9056,5.8243,5.7549,5.7775,5.7901,5.7901,5.8227,5.897,4.7363,4.8242,4.875,4.8999,4.6885,4.4091,0.0,3.8955,3.6502,3.3491,3.4413,3.5938,3.647,3.8185,3.9632,0.0,4.2684,4.5447,4.7888,5.1029,5.3925,0.0,0.0,0.0,0.0,0.0,0.0,0.0,0.0,0.0,0.0,6.2781,6.2781,6.2781,6.2781,6.2781,6.2781,6.2781,6.2781,6.2781,6.2781,6.2781,6.2781,6.2781,6.2781,6.2781,0.0,0.0,0.0,6.2781,6.2781,6.2781,6.2781,6.2781,6.2656,6.1592,6.119,6.1014,5.9885,5.9483,5.9483,5.9483,5.9483,5.9483,5.9483,5.9483,5.9483,5.9483,5.9483,5.9483,5.9483,5.9232,5.8855,5.8453,5.8378,5.8378,5.8378,5.8378,5.8378,5.8378,5.8252,5.8152,5.8152,5.8001,5.775,5.7311,5.7261,5.7111,5.6771,5.6721,5.6721,5.6721,5.6721,5.6646,5.647,5.662,5.6721,5.6721,5.7072,5.7841,5.9118,5.8333,5.8488,5.9778,5.874,5.8152,5.8152,5.8303,5.8378,5.8378,5.878,5.9945,4.6484,4.7558,4.791,4.6665,4.4355,4.1915,3.9986,3.8103,3.6617,3.5908,3.6504,3.7362,3.789,3.8492,3.9798,4.2507,4.3887,4.6346,5.1331,5.1793,5.2655,0.0,0.0,5.4856,0.0,0.0,0.0,0.0,0.0,0.0,0.0,6.2781,6.2781,6.2781,6.2781,6.2781,6.2781,6.2781,6.2781,6.2781,6.2781,6.2781,6.2781,6.2781,6.2781,0.0,0.0,0.0,0.0,6.2781,6.2781,6.2781,6.2781,6.2781,6.2656,6.1592,6.119,6.1014,5.9885,5.9483,5.9483,5.9483,5.9483,5.9483,5.9483,5.9483,5.9483,5.9483,5.9483,5.9483,5.9483,5.9483,5.9483,5.9483,5.9483,5.9483,5.9483,5.9483,5.9483,5.9483,5.9056,5.8666,5.8666,5.8252,5.7901,5.7901,5.7901,5.7901,5.7876,5.7876,5.7876,5.7876,5.7876,5.765,5.7035,5.7549,5.7876,5.7876,5.7901,5.7901,5.7913,5.7901,5.7901,5.7939,5.8428,5.8666,5.8666,5.9232,5.9483,5.9483,5.9483,6.0545,4.2958,4.3828,4.4258,4.2383,4.0625,3.9017,3.7958,3.6079,3.4768,3.5614,3.583,3.6284,3.7717,3.8492,3.9784,4.2491,4.3006,0.0,0.0,0.0,0.0,5.0112,5.1232,5.3356,0.0,0.0,0.0,0.0,0.0,0.0,0.0,6.2781,6.2781,6.2781,6.2781,6.2781,6.2781,6.2781,6.2781,6.2781,6.2781,6.2781,6.2781,6.2781,0.0,0.0,0.0,0.0,0.0,6.2781,6.2781,6.2659,6.101,6.0403,6.0282,5.9217,5.883,5.8888,5.9352,5.9483,5.9483,5.9483,5.9483,5.9483,5.9483,5.9483,5.9483,5.9483,5.9483,5.9483,5.9483,5.9483,5.9483,5.9483,5.9483,5.9483,5.9483,5.9483,5.9483,5.9483,5.9357,5.9257,5.9257,5.9106,5.888,5.8504,5.8453,5.8328,5.7951,5.7901,5.7901,5.7901,5.8227,5.8227,5.7675,5.7801,5.7901,5.7901,5.8252,5.8453,5.8453,5.8805,5.8981,5.8981,5.9156,5.9257,5.9257,5.9408,5.9483,5.9521,6.0862,6.1089,4.0999,4.1578,4.1758,4.0273,3.907,3.8122,3.755,3.6091,3.5146,3.6134,3.628,3.6529,3.7516,3.8366,3.9511,4.1387,4.1465,4.2132,0.0,0.0,0.0,4.6797,0.0,0.0,0.0,0.0,0.0,0.0,0.0,0.0,0.0,6.2781,6.2781,6.2781,6.2781,6.2781,6.2781,6.2781,6.2781,6.2781,6.2781,6.2781,6.2781,6.2781,0.0,0.0,0.0,0.0,0.0,6.2781,6.2265,6.1325,5.9877,5.8658,5.7742,5.7716,5.7577,5.7618,5.9018,5.9483,5.9483,5.9483,5.9483,5.9483,5.9483,5.9483,5.9483,5.9483,5.9483,5.9483,5.9483,5.9483,5.9483,5.9483,5.9483,5.9483,5.9483,5.9483,5.9483,5.9483,5.9483,5.9483,5.9483,5.9483,5.9382,5.9056,5.9006,5.888,5.8554,5.8504,5.8504,5.8504,5.8805,5.888,5.8529,5.8504,5.8504,5.8504,5.883,5.9006,5.9006,5.9332,5.9483,5.9483,5.9483,5.9483,5.9483,5.9483,5.9483,5.9521,6.0736,6.066,0.0,4.0367,4.0144,3.9652,3.909,3.8531,3.8249,3.7548,0.0,3.717,3.7588,3.7839,3.7512,3.824,3.917,4.0023,4.0019,4.1058,0.0,4.3927,0.0,0.0,0.0,0.0,0.0,0.0,0.0,0.0,0.0,0.0,0.0,6.2781,6.2781,6.2781,6.2659,6.2618,6.2781,6.2659,6.2552,6.2552,6.2552,6.2552,6.2577,6.2741,0.0,0.0,0.0,0.0,0.0,6.2618,6.1284,5.9264,5.8921,5.7322,5.537,5.6846,5.7217,5.7228,5.8933,5.9483,5.9483,5.9483,5.9483,5.9483,5.9483,5.9483,5.9483,5.9483,5.9483,5.9483,5.9483,5.9483,5.9483,5.9483,5.9483,5.9483,5.9483,5.9483,5.9483,5.9483,5.9483,5.9483,5.9483,5.9483,5.9483,5.9483,5.9483,5.9483,5.9483,5.9483,5.9483,5.9483,5.9483,5.9483,5.9483,5.9483,5.9483,5.9483,5.9483,5.9483,5.9483,5.9483,5.9483,5.9483,5.9483,5.9483,5.9483,5.9483,5.9483,5.9483,5.9483,5.9483,3.7288,0.0,3.742,3.6346,3.5972,3.6038,0.0,3.642,3.6178,3.7045,0.0,3.7864,3.9446,3.927,4.02,4.4116,4.3741,4.3377,4.4494,0.0,0.0,0.0,0.0,0.0,0.0,0.0,0.0,0.0,0.0,0.0,0.0,6.2781,6.2781,6.2781,6.1076,6.0969,6.2781,6.1035,6.0111,6.0111,6.0111,6.0111,6.0194,6.1993,0.0,0.0,0.0,0.0,6.2659,6.0844,5.9793,5.8921,5.4998,5.4126,5.5005,5.4701,5.5559,5.7171,5.8894,5.9483,5.9483,5.9483,5.9483,5.9483,5.9483,5.9483,5.9483,5.9483,5.9483,5.9483,5.9483,5.9483,5.9483,5.9483,5.9483,5.9483,5.9483,5.9483,5.9483,5.9483,5.9483,5.9483,5.9483,5.9483,5.9483,5.9483,5.9483,5.9483,5.9483,5.9483,5.9483,5.9483,5.9483,5.9483,5.9483,5.9483,5.9483,5.9483,5.9483,5.9483,5.9483,5.9483,5.9483,5.9483,5.9483,5.9483,5.9483,5.9483,5.9483,5.9483,5.9483,5.9483,3.5939,3.6565,3.6904,3.622,3.6376,3.6828,3.7177,0.0,0.0,0.0,0.0,3.7587,3.8768,3.9145,4.0401,4.3869,4.3899,0.0,0.0,0.0,4.881,5.0879,0.0,0.0,0.0,0.0,0.0,0.0,0.0,0.0,0.0,6.1763,6.1201,6.1201,5.895,5.8842,6.1159,5.8884,5.7712,5.7778,5.8799,5.9307,5.9391,6.1722,0.0,0.0,0.0,0.0,6.1093,5.9637,5.7746,5.5539,5.258,5.1998,5.2842,5.34,5.4852,5.6861,5.8819,5.9483,5.9483,5.9483,5.9483,5.9483,5.9483,5.9483,5.9483,5.9483,5.9483,5.9483,5.9483,5.9483,5.9483,5.9483,5.9483,5.9483,5.9483,5.9483,5.9483,5.9483,5.9483,5.9483,5.9483,5.9483,5.9483,5.9483,5.9483,5.9483,5.9483,5.9483,5.9483,5.9483,5.9483,5.9483,5.9483,5.9483,5.9483,5.9483,5.9483,5.9483,5.9483,5.9483,5.9483,5.9483,5.9483,5.9483,5.9483,5.9483,5.9483,5.9483,5.9483,5.9483,3.5884,3.7066,3.801,3.7497,3.8204,3.8865,3.824,0.0,0.0,0.0,0.0,0.0,0.0,0.0,0.0,0.0,0.0,0.0,4.6793,4.9003,5.0216,4.9974,0.0,0.0,0.0,0.0,0.0,0.0,0.0,0.0,0.0,6.0069,5.8799,5.8799,5.655,5.6291,5.8224,5.6291,5.5464,5.5922,5.7863,5.8969,5.9391,6.1722,6.2781,0.0,0.0,0.0,5.9122,5.8084,5.5244,5.1526,5.0779,5.0558,5.0953,5.2839,5.4868,5.6956,5.8837,5.9483,5.9483,5.9483,5.9483,5.9483,5.9483,5.9483,5.9483,5.9483,5.9483,5.9483,5.9483,5.9483,5.9483,5.9483,5.9483,5.9483,5.9483,5.9483,5.9483,5.9483,5.9483,5.9483,5.9483,5.9483,5.9483,5.9483,5.9483,5.9483,5.9483,5.9483,5.9483,5.9483,5.9483,5.9483,5.9483,5.9483,5.9483,5.9483,5.9483,5.9483,5.9483,5.9483,5.9483,5.9483,5.9483,5.9483,5.9483,5.9483,5.9483,5.9483,5.9483,5.9483,3.7713,3.9885,4.078,3.7961,3.841,3.9311,0.0,0.0,0.0,0.0,0.0,0.0,0.0,0.0,0.0,0.0,0.0,0.0,0.0,0.0,0.0,0.0,0.0,0.0,0.0,0.0,0.0,0.0,0.0,0.0,0.0,5.7692,5.64,5.6334,5.4125,5.3125,5.346,5.3104,5.3903,5.5879,5.627,5.7412,5.9391,6.1722,6.2781,0.0,0.0,5.947,5.8498,5.445,5.2145,5.0933,4.8522,4.981,5.3072,5.3024,5.554,5.9032,5.9367,5.9483,5.9483,5.9483,5.9483,5.9483,5.9483,5.9483,5.9483,5.9483,5.9483,5.9483,5.9483,5.9483,5.9483,5.9483,5.9483,5.9483,5.9483,5.9483,5.9483,5.9483,5.9483,5.9483,5.9483,5.9483,5.9483,5.9483,5.9483,5.9483,5.9483,5.9483,5.9483,5.9483,5.9483,5.9483,5.9483,5.9483,5.9483,5.9483,5.9483,5.9483,5.9483,5.9483,5.9483,5.9483,5.9483,5.9483,5.9483,5.9483,5.9483,5.9483,5.9483,5.9483,3.6282,3.8241,3.9848,3.9496,4.1128,4.2534,0.0,0.0,0.0,0.0,0.0,0.0,0.0,0.0,0.0,0.0,0.0,0.0,0.0,0.0,0.0,0.0,0.0,0.0,0.0,0.0,0.0,0.0,0.0,0.0,0.0,0.0,5.3992,5.3948,5.1712,5.0484,5.0484,5.0484,5.1667,5.3992,5.5268,5.7091,5.9391,6.1722,6.1968,6.0512,0.0,5.7313,5.4415,5.198,5.0135,4.8678,4.7179,4.9309,5.3483,5.5685,5.777,5.9483,5.9483,5.9483,5.9483,5.9483,5.9483,5.9483,5.9483,5.9483,5.9483,5.9483,5.9483,5.9483,5.9483,5.9483,5.9483,5.9483,5.9483,5.9483,5.9483,5.9483,5.9483,5.9483,5.9483,5.9483,5.9483,5.9483,5.9483,5.9483,5.9483,5.9483,5.9483,5.9483,5.9483,5.9483,5.9483,5.9483,5.9483,5.9483,5.9483,5.9483,5.9483,5.9483,5.9483,5.9483,5.9483,5.9483,5.9483,5.9483,5.9483,5.9483,5.9483,5.9483,5.9483,5.9483,3.5832,3.7187,3.8944,0.0,0.0,0.0,0.0,0.0,0.0,0.0,0.0,0.0,0.0,4.3661,0.0,0.0,0.0,0.0,0.0,0.0,0.0,0.0,0.0,0.0,0.0,0.0,0.0,0.0,0.0,0.0,0.0,0.0,5.1577,5.1577,4.9839,4.8913,4.8913,4.8913,5.0348,5.3193,5.4477,5.655,5.9349,6.0594,5.9971,5.7854,5.7308,5.4738,5.0856,4.9957,4.8487,4.6714,4.6426,4.8998,5.3374,5.7273,5.9056,5.9483,5.9483,5.9483,5.9483,5.9483,5.9483,5.9483,5.9483,5.9483,5.9483,5.9483,5.9483,5.9483,5.9483,5.9483,5.9483,5.9483,5.9483,5.9483,5.9483,5.9483,5.9483,5.9483,5.9483,5.9483,5.9483,5.9608,5.9684,5.9684,5.9809,5.9885,5.9885,5.9885,5.9885,5.9885,5.9885,5.9834,5.9709,5.9558,5.9483,5.9483,5.9483,5.9483,5.9483,5.9483,5.9483,5.9483,5.9483,5.9483,5.9483,5.9483,5.9558,5.9684,5.9558,5.9633,3.9245,3.9848,4.0099,0.0,0.0,0.0,0.0,0.0,0.0,0.0,0.0,0.0,0.0,0.0,4.6389,0.0,0.0,0.0,0.0,0.0,0.0,0.0,0.0,0.0,0.0,0.0,0.0,0.0,0.0,0.0,0.0,0.0,0.0,4.917,4.8986,4.8913,4.8913,4.8913,5.1145,5.5551,5.3593,5.4983,5.9222,5.7306,5.6063,5.5352,5.3125,5.1563,5.0264,4.8085,4.6831,4.6348,4.6308,4.8998,5.3168,5.5574,5.7731,5.9483,5.9483,5.9483,5.9483,5.9483,5.9483,5.9483,5.9483,5.9483,5.9483,5.9483,5.9483,5.9483,5.9483,5.9483,5.9483,5.9483,5.9483,5.9483,5.9483,5.9483,5.9483,5.9483,5.9483,5.9483,5.9483,5.991,6.0261,6.0261,6.0713,6.1065,6.1065,6.1065,6.1065,6.1065,6.1065,6.0839,6.0311,5.9784,5.9483,5.9483,5.9483,5.9483,5.9483,5.9483,5.9483,5.9483,5.9483,5.9483,5.9483,5.9483,5.9759,6.0236,5.9734,6.006,3.8015,3.9044,0.0,0.0,0.0,0.0,0.0,0.0,0.0,0.0,0.0,0.0,0.0,0.0,0.0,0.0,0.0,0.0,0.0,0.0,0.0,0.0,0.0,0.0,0.0,0.0,0.0,0.0,0.0,0.0,0.0,0.0,0.0,4.8913,4.8913,4.8913,4.8913,4.8594,5.006,5.323,5.2369,5.3669,5.6692,5.5586,5.4028,5.2175,5.129,4.974,4.7795,4.6874,4.6445,4.642,4.7794,4.9361,5.1282,5.4864,5.6757,5.7628,5.9032,5.9483,5.9483,5.9483,5.9483,5.9483,5.9483,5.9483,5.9483,5.9483,5.9483,5.9483,5.9483,5.9483,5.9483,5.9483,5.9483,5.9483,5.9483,5.9759,6.001,6.001,6.0286,6.0537,6.0537,6.0713,6.0864,6.0864,6.104,6.119,6.119,6.119,6.119,6.119,6.119,6.0939,6.0362,6.0136,5.9859,5.9508,5.9483,5.9483,5.9483,5.9483,5.9483,5.9483,5.9834,6.001,6.001,6.0362,6.0638,6.0839,6.0638,6.0788,3.7738,3.8592,0.0,0.0,0.0,0.0,0.0,0.0,0.0,0.0,0.0,0.0,0.0,0.0,0.0,0.0,0.0,0.0,0.0,0.0,0.0,0.0,0.0,0.0,0.0,0.0,0.0,0.0,0.0,0.0,0.0,0.0,0.0,0.0,4.8776,4.8698,4.8698,4.8223,4.8827,5.0377,5.0234,5.1492,5.3883,5.2822,5.1249,4.9291,4.9291,4.8154,4.6308,4.6308,4.6308,4.6464,4.7966,4.8998,5.004,5.3783,5.559,5.6534,5.8759,5.9483,5.9483,5.9483,5.9483,5.9483,5.9483,5.9483,5.9483,5.9483,5.9483,5.9483,5.9483,5.9483,5.9533,5.9709,5.9759,5.9809,5.9985,6.0337,6.0588,6.0588,6.0914,6.119,6.119,6.1341,6.1441,6.1441,6.1592,6.1692,6.1692,6.1692,6.1692,6.1692,6.1542,6.1291,6.0889,6.0688,6.0437,6.006,6.0035,5.9859,5.9508,5.9659,5.9759,5.9759,6.0311,6.0588,6.0588,6.0989,6.1266,6.1441,6.1266,6.1366,3.9195,3.8894,0.0,0.0,0.0,0.0,0.0,0.0,0.0,0.0,0.0,0.0,0.0,0.0,0.0,0.0,0.0,0.0,0.0,0.0,0.0,0.0,0.0,0.0,0.0,0.0,0.0,0.0,0.0,0.0,0.0,0.0,0.0,0.0,4.8437,4.8203,4.8203,4.7793,4.7578,4.7578,4.7129,4.835,5.1001,4.8637,4.7324,4.687,4.687,4.6699,4.6308,4.6308,4.6308,4.6308,4.6308,4.7641,4.9871,5.2094,5.4296,5.6518,5.872,5.9483,5.9483,5.9483,5.9483,5.9483,5.9483,5.9483,5.9483,5.9483,5.9483,5.9483,5.9483,5.9483,5.9633,6.0186,6.0311,6.0487,6.1065,6.119,6.119,6.119,6.119,6.119,6.119,6.1642,6.2019,6.2019,6.2471,6.2781,6.2781,6.2781,6.2781,6.2781,6.2345,6.2019,6.1994,6.1492,6.119,6.119,6.119,6.0688,5.9558,6.0035,6.0337,6.0337,6.0889,6.119,6.119,6.119,6.1492,6.1994,6.1441,6.1793,3.8668,0.0,0.0,4.1246,0.0,0.0,0.0,0.0,0.0,0.0,0.0,0.0,0.0,0.0,0.0,0.0,0.0,0.0,0.0,0.0,0.0,0.0,0.0,0.0,0.0,0.0,0.0,0.0,0.0,0.0,0.0,0.0,0.0,0.0,4.8281,4.8066,4.7773,4.7344,4.7129,4.7109,4.6699,4.7052,4.8133,4.7106,4.6601,4.6484,4.6484,4.6426,4.6308,4.6308,4.6308,4.6308,4.6308,4.7641,4.9871,5.2094,5.4296,5.6518,5.872,5.9483,5.9483,5.9483,5.9483,5.9483,5.9483,5.9483,5.9483,5.9483,5.9483,5.9483,5.9483,5.9483,5.9633,6.0186,6.0638,6.0964,6.114,6.1492,6.1768,6.1768,6.2069,6.2345,6.2345,6.2471,6.2531,6.2531,6.2681,6.2781,6.2781,6.2781,6.2781,6.2781,6.2631,6.2421,6.2044,6.1843,6.1592,6.1215,6.119,6.104,6.0688,6.0839,6.0914,6.0914,6.1466,6.1768,6.1768,6.2144,6.2421,6.2531,6.2421,6.2521,3.9109,3.9654,0.0,4.1981,4.3257,0.0,0.0,0.0,0.0,0.0,0.0,0.0,0.0,0.0,0.0,0.0,0.0,0.0,0.0,0.0,0.0,0.0,0.0,0.0,0.0,0.0,0.0,0.0,0.0,0.0,0.0,0.0,0.0,0.0,4.7793,4.7578,4.7324,4.6894,4.668,4.668,4.6426,4.6426,4.668,4.6426,4.6308,4.6308,4.6308,4.6308,4.6308,4.6308,4.6308,4.6308,4.6308,4.7641,4.9871,5.2094,5.4296,5.6518,5.872,5.9483,5.9483,5.9483,5.9483,5.9483,5.9483,5.9483,5.9483,5.9483,5.9483,5.9483,5.9483,5.9659,5.996,6.0537,6.0939,6.1316,6.1743,6.2094,6.2345,6.2345,6.2596,6.2781,6.2781,6.2781,6.2781,6.2781,6.2781,6.2781,6.2781,6.2781,6.2781,6.2781,6.2781,6.2656,6.237,6.2345,6.2195,6.1868,6.1843,6.1843,6.1843,6.1617,6.1517,6.1517,6.2044,6.2345,6.2345,6.2631,6.2781,6.2781,6.2781,6.2781,3.9879,4.0674,0.0,4.2221,4.3108,0.0,0.0,0.0,0.0,0.0,0.0,0.0,0.0,0.0,0.0,0.0,0.0,0.0,0.0,0.0,0.0,0.0,0.0,0.0,0.0,0.0,0.0,0.0,0.0,0.0,0.0,0.0,0.0,4.7539,4.7129,4.687,4.6831,4.6484,4.6308,0.0,4.6308,4.6308,4.6308,4.6308,4.6308,4.6308,4.6308,4.6308,4.6308,4.6308,4.6308,4.6308,4.6308,4.7794,5.0146,5.2135,5.4459,5.6797,5.8798,5.9483,5.9483,5.9483,5.9483,5.9483,5.9483,5.9483,5.9483,5.9483,5.9483,5.9483,5.9483,5.9859,6.0387,6.0964,6.119,6.1542,6.2505,6.2756,6.2781,6.2781,6.2781,6.2781,6.2781,6.2781,6.2781,6.2781,6.2781,6.2781,6.2781,6.2781,6.2781,6.2781,6.2781,6.2781,6.2781,6.2781,6.2781,6.2781,6.2781,6.2781,6.2781,6.2345,6.2069,6.2069,6.2531,6.2781,6.2781,6.2781,6.2781,6.2781,6.2781,6.2781,3.8178,3.8744,0.0,0.0,4.4926,4.7041,4.8314,0.0,0.0,0.0,0.0,0.0,0.0,0.0,0.0,0.0,0.0,0.0,0.0,0.0,0.0,0.0,0.0,0.0,0.0,0.0,0.0,0.0,0.0,0.0,0.0,0.0,0.0,4.709,4.6928,4.6777,4.6445,4.6348,4.6308,0.0,4.6308,4.6308,4.6308,4.6308,4.6308,4.6308,4.6308,4.6308,4.6308,4.6308,4.6308,4.6308,4.6308,4.8699,5.226,5.2715,5.5389,5.8837,5.9328,5.9483,5.9483,5.9483,5.9483,5.9483,5.9483,5.9483,5.9483,5.9483,5.9483,5.9483,5.9483,5.9583,5.9809,6.0362,6.119,6.1893,6.2119,6.248,6.2781,6.2781,6.2781,6.2781,6.2781,6.2781,6.2781,6.2781,6.2781,6.2781,6.2781,6.2781,6.2781,6.2781,6.2781,6.2781,6.2781,6.2781,6.2781,6.2781,6.2781,6.2781,6.2781,6.2681,6.2647,6.2647,6.2731,6.2781,6.2781,6.2781,6.2781,6.2781,6.2781,6.2781,3.8171,3.9237,0.0,4.3938,0.0,4.8047,4.8757,4.8913,0.0,0.0,0.0,0.0,0.0,0.0,0.0,0.0,0.0,0.0,0.0,0.0,0.0,0.0,0.0,0.0,0.0,0.0,0.0,0.0,0.0,0.0,0.0,4.7383,4.707,4.6641,4.6621,4.6523,4.6308,4.6308,4.6308,4.6308,4.6094,4.5898,4.5703,4.6113,4.6308,4.6308,4.6308,4.6308,4.6308,4.6308,4.6308,4.6308,4.6308,4.8998,5.288,5.288,5.5711,5.9483,5.9483,5.9483,5.9483,5.9483,5.9483,5.9483,5.9483,5.9483,5.9483,5.9483,5.9483,5.9483,5.9483,5.9483,5.9558,5.9859,6.0588,6.1341,6.1893,6.222,6.248,6.2731,6.2781,6.2781,6.2781,6.2781,6.2781,6.2781,6.2781,6.2781,6.2781,6.2781,6.2781,6.2781,6.2781,6.2781,6.2781,6.2781,6.2781,6.2781,6.2781,6.2781,6.2781,6.2781,6.2781,6.2781,6.2781,6.2781,6.2781,6.2781,6.2781,6.2781,6.2781,6.2781,3.7406,3.9502,4.1685,4.5379,4.7266,0.0,4.8796,4.8913,4.8913,0.0,0.0,0.0,0.0,0.0,0.0,0.0,0.0,0.0,0.0,0.0,0.0,0.0,0.0,0.0,0.0,0.0,0.0,0.0,0.0,0.0,4.6928,4.6811,4.666,4.6308,4.623,4.6191,4.6191,4.6113,4.6074,4.6074,4.5723,4.5371,4.4996,4.5762,4.6133,4.6191,4.6191,4.623,4.6308,4.6308,4.6308,4.6352,4.6726,4.9318,5.2962,5.3333,5.6055,5.9483,5.9483,5.9483,5.9483,5.9483,5.9483,5.9483,5.9483,5.9483,5.9483,5.9483,5.9483,5.9483,5.9483,5.9483,5.9483,5.9483,5.9834,6.0462,6.1492,6.1868,6.2144,6.2596,6.2731,6.2781,6.2781,6.2781,6.2781,6.2781,6.2781,6.2781,6.2781,6.2781,6.2781,6.2781,6.2781,6.2781,6.2781,6.2781,6.2781,6.2781,6.2781,6.2781,6.2781,6.2781,6.2781,6.2781,6.2781,6.2781,6.2781,6.2781,6.2781,6.2781,6.2781,6.2781,3.2035,3.6038,4.1031,0.0,4.7266,4.832,0.0,0.0,4.8913,0.0,0.0,0.0,0.0,0.0,0.0,0.0,0.0,0.0,0.0,0.0,0.0,0.0,0.0,0.0,0.0,0.0,0.0,0.0,0.0,0.0,4.6889,4.6582,4.6367,4.6308,4.5957,4.5762,4.5762,4.5391,4.5153,4.5153,4.5137,4.5035,4.4996,4.5094,4.541,4.5762,4.5762,4.5976,4.6308,4.6308,4.6308,4.6464,4.8419,5.0694,5.3127,5.5026,5.7376,5.9483,5.9483,5.9483,5.9483,5.9483,5.9483,5.9483,5.9483,5.9483,5.9483,5.9483,5.9483,5.9483,5.9483,5.9483,5.9483,5.9483,5.9558,5.9784,6.0412,6.1316,6.2019,6.2094,6.2496,6.2781,6.2781,6.2781,6.2781,6.2781,6.2781,6.2781,6.2781,6.2781,6.2781,6.2781,6.2781,6.2781,6.2781,6.2781,6.2781,6.2781,6.2781,6.2781,6.2781,6.2781,6.2781,6.2781,6.2781,6.2781,6.2781,6.2781,6.2781,6.2781,6.2781,6.2781,3.3402,3.7144,4.1211,0.0,4.709,4.7969,4.8398,0.0,4.8913,4.8913,4.8913,0.0,0.0,0.0,0.0,0.0,0.0,0.0,0.0,0.0,0.0,0.0,0.0,0.0,0.0,0.0,0.0,0.0,0.0,4.6772,4.6601,4.6406,4.6191,4.5957,4.5781,4.5566,4.5312,4.5117,4.4902,4.4668,4.4668,4.4531,4.4277,4.4277,4.4668,4.5312,4.5312,4.5547,4.5957,4.5957,4.6835,4.8247,4.9211,5.1719,5.4882,5.5831,5.7588,5.9483,5.9483,5.9483,5.9483,5.9483,5.9483,5.9483,5.9483,5.9483,5.9483,5.9483,5.9483,5.9483,5.9483,5.9483,5.9483,5.9483,5.9483,5.9558,5.9809,6.0738,6.1718,6.2345,6.2631,6.2781,6.2781,6.2781,6.2781,6.2781,6.2781,6.2781,6.2781,6.2781,6.2781,6.2781,6.2781,6.2781,6.2781,6.2781,6.2781,6.2781,6.2781,6.2781,6.2781,6.2781,6.2781,6.2781,6.2781,6.2781,6.2781,6.2781,6.2781,6.2781,6.2781,6.2781,3.3653,3.668,3.9434,4.375,4.5801,4.6992,0.0,0.0,4.8776,0.0,4.8913,0.0,0.0,0.0,0.0,0.0,0.0,0.0,0.0,0.0,0.0,0.0,0.0,0.0,0.0,0.0,0.0,0.0,0.0,4.6582,4.6172,4.6152,4.5957,4.5527,4.541,4.5195,4.4863,4.4746,4.4531,4.4219,4.4219,4.4043,4.3711,4.3711,4.4062,4.4707,4.4824,4.5117,4.5508,4.5508,4.7078,4.9491,5.006,5.2705,5.6271,5.6828,5.8084,5.9483,5.9483,5.9483,5.9483,5.9483,5.9483,5.9483,5.9483,5.9483,5.9483,5.9483,5.9483,5.9483,5.9483,5.9483,5.9483,5.9483,5.9483,5.9583,5.9859,6.0588,6.1517,6.2581,6.2781,6.2781,6.2781,6.2781,6.2781,6.2781,6.2781,6.2781,6.2781,6.2781,6.2781,6.2781,6.2781,6.2781,6.2781,6.2781,6.2781,6.2781,6.2781,6.2781,6.2781,6.2781,6.2781,6.2781,6.2781,6.2781,6.2781,6.2781,6.2781,6.2781,6.2781,6.2781,2.9227,3.1543,3.3958,3.9453,4.2715,4.5098,0.0,0.0,4.8359,4.8815,4.8913,4.8913,0.0,0.0,0.0,0.0,0.0,0.0,0.0,0.0,0.0,0.0,0.0,0.0,0.0,0.0,0.0,0.0,0.0,4.6152,4.5723,4.5703,4.5508,4.5035,4.4668,4.4453,4.4433,4.3984,4.3769,4.373,4.373,4.373,4.3711,4.3711,4.373,4.3789,4.4238,4.4668,4.5058,4.5058,4.6615,4.9238,5.135,5.3819,5.6471,5.8539,5.9405,5.9483,5.9483,5.9483,5.9483,5.9483,5.9483,5.9483,5.9483,5.9483,5.9483,5.9483,5.9483,5.9483,5.9483,5.9483,5.9483,5.9483,5.9483,5.9784,6.0864,6.114,6.1517,6.2581,6.2781,6.2781,6.2781,6.2781,6.2781,6.2781,6.2781,6.2781,6.2781,6.2781,6.2781,6.2781,6.2781,6.2781,6.2781,6.2781,6.2781,6.2781,6.2781,6.2781,6.2781,6.2781,6.2781,6.2781,6.2781,6.2781,6.2781,6.2781,6.2781,6.2781,6.2781,6.2781,0.0,3.0576,3.3137,3.707,4.0215,4.2734,4.4336,4.6094,4.7422,4.7598,4.7851,4.8125,0.0,0.0,0.0,0.0,0.0,0.0,0.0,0.0,0.0,0.0,0.0,0.0,0.0,0.0,0.0,0.0,0.0,0.0,4.5703,4.5727,4.5351,4.4648,4.4473,4.4258,4.3945,4.3789,4.3711,4.3711,4.3711,4.3711,4.3711,4.3711,4.3711,4.3711,4.3887,4.4199,4.4694,4.6057,4.8166,5.0784,5.3303,5.5731,5.7939,5.9087,5.9483,5.9483,5.9483,5.9483,5.9483,5.9483,5.9483,5.9483,5.9483,5.9483,5.9483,5.9483,5.9483,5.9483,5.9483,5.9483,5.9483,5.9483,5.9483,5.9809,6.0939,6.119,6.1517,6.2581,6.2781,6.2781,6.2781,6.2781,6.2781,6.2781,6.2781,6.2781,6.2781,6.2781,6.2781,6.2781,6.2781,6.2781,6.2781,6.2781,6.2781,6.2781,6.2781,6.2781,6.2781,6.2781,6.2781,6.2781,6.2781,6.2781,6.2781,6.2781,6.2781,6.2781,6.2781,6.2781,2.6942,0.0,0.0,0.0,3.7438,3.9666,4.2793,4.4512,4.5621,4.6543,4.707,4.75,4.791,0.0,0.0,0.0,0.0,0.0,0.0,0.0,0.0,0.0,0.0,0.0,0.0,0.0,0.0,0.0,0.0,0.0,4.5273,4.5254,4.4922,4.4199,4.416,4.4023,4.3711,4.3711,4.3711,4.3711,4.3711,4.3711,4.3711,4.3711,4.3711,4.3711,4.3711,4.3887,4.4327,4.6413,4.8836,5.144,5.3944,5.644,5.8716,5.9106,5.9357,5.9483,5.9483,5.9483,5.9483,5.9483,5.9483,5.9483,5.9483,5.9483,5.9483,5.9483,5.9483,5.9483,5.9483,5.9483,5.9483,5.9483,5.9633,5.9815,5.9999,6.0622,6.1517,6.2581,6.2781,6.2781,6.2781,6.2781,6.2781,6.2781,6.2781,6.2781,6.2781,6.2781,6.2781,6.2781,6.2781,6.2781,6.2781,6.2781,6.2781,6.2781,6.2781,6.2781,6.2781,6.2781,6.2781,6.2781,6.2781,6.2781,6.2781,6.2781,6.2781,6.2781,6.2781,6.2781,0.0,0.0,0.0,0.0,0.0,0.0,4.2519,0.0,4.2969,4.5605,4.6484,4.6914,4.7441,0.0,0.0,0.0,0.0,0.0,0.0,0.0,0.0,0.0,0.0,0.0,0.0,0.0,0.0,0.0,0.0,4.5293,4.4453,4.4394,4.418,4.3711,4.3711,4.3691,4.3691,4.3691,4.3691,4.3691,4.3691,4.3711,4.3711,4.3711,4.3711,4.3711,4.3711,4.3752,4.3939,4.6042,4.842,5.0979,5.3169,5.5922,5.8704,5.8666,5.9056,5.9483,5.9483,5.9483,5.9483,5.9483,5.9483,5.9483,5.9483,5.9483,5.9483,5.9483,5.9483,5.9483,5.9483,5.9483,5.9483,5.9483,5.9871,5.9742,5.8051,5.9422,6.1332,6.2474,6.27,6.27,6.2781,6.2781,6.2781,6.2781,6.2781,6.2781,6.2781,6.2781,6.2781,6.2781,6.2781,6.2781,6.2781,6.2781,6.2781,6.2781,6.2781,6.2781,6.2781,6.2781,6.2781,6.2781,6.2781,6.2781,6.2781,6.2781,6.2781,6.2781,6.2781,6.2781,2.4852,0.0,0.0,0.0,0.0,0.0,0.0,0.0,3.834,4.1875,4.2676,4.3555,4.6172,4.6152,0.0,0.0,0.0,0.0,0.0,0.0,0.0,0.0,0.0,0.0,0.0,0.0,0.0,0.0,4.5391,4.4961,4.4433,4.4082,4.3828,4.3711,4.3711,4.3555,4.3262,4.3555,4.3555,4.3262,4.3555,4.3711,4.3711,4.3711,4.3711,4.3711,4.3711,4.4576,4.6184,4.828,4.9567,5.0623,5.4603,5.6962,5.8177,5.8579,5.9056,5.9483,5.9483,5.9483,5.9483,5.9483,5.9483,5.9483,5.9483,5.9483,5.9483,5.9483,5.9483,5.9483,5.9483,5.9483,5.9483,5.9483,5.8389,5.7373,5.7652,5.6954,5.7074,5.9769,6.0278,6.0803,6.2511,6.2781,6.2781,6.2781,6.2781,6.2781,6.2781,6.2781,6.2781,6.2781,6.2781,6.2781,6.2781,6.2781,6.2781,6.2781,6.2781,6.2781,6.2781,6.2781,6.2781,6.2781,6.2781,6.2781,6.2781,6.2781,6.2781,6.2781,6.2781,6.2781,0.0,0.0,0.0,0.0,0.0,0.0,0.0,3.4355,3.5781,0.0,4.1191,4.2148,4.4531,4.4687,0.0,0.0,0.0,0.0,0.0,0.0,0.0,0.0,0.0,0.0,0.0,4.5547,4.5332,4.5156,4.4902,4.457,4.4141,4.3848,4.3711,4.3711,4.3535,4.332,4.3127,4.3144,4.3144,4.3086,4.332,4.3535,4.3711,4.3711,4.3711,4.3752,4.4658,4.5738,4.7067,5.0064,5.1263,5.1654,5.5274,5.7173,5.7951,5.8252,5.8855,5.9483,5.9483,5.9483,5.9483,5.9483,5.9483,5.9483,5.9483,5.9483,5.9483,5.9483,5.9483,5.9483,5.9483,5.9483,5.9483,5.9483,5.7981,5.6479,5.6271,5.4662,5.4444,5.8508,5.9307,6.0069,6.2388,6.2781,6.2781,6.2781,6.2781,6.2781,6.2781,6.2781,6.2781,6.2781,6.2781,6.2781,6.2781,6.2781,6.2781,6.2781,6.2781,6.2781,6.2781,6.2781,6.2781,6.2781,6.2781,6.2781,6.2781,6.2781,6.2781,6.2781,6.2781,6.2781,0.0,0.0,0.0,0.0,0.0,0.0,3.3633,3.3835,3.4147,0.0,4.0176,4.1074,4.2226,4.2773,0.0,0.0,0.0,0.0,0.0,0.0,0.0,0.0,0.0,0.0,4.4977,4.4938,4.4805,4.4433,4.4355,4.4141,4.373,4.3652,4.3633,4.3633,4.3223,4.2988,4.297,4.2598,4.2598,4.297,4.3027,4.3281,4.3633,4.3691,4.3711,4.3835,4.5738,4.6647,4.7086,5.0839,5.2684,5.3289,5.5398,5.6897,5.7863,5.7612,5.8363,5.9444,5.9212,5.9289,5.9483,5.9483,5.9483,5.9483,5.9483,5.9483,5.9483,5.9483,5.9483,5.9483,5.9483,5.9483,5.9444,5.9212,5.7795,5.6046,5.4223,5.2475,5.2795,5.7937,5.8926,5.9751,6.2347,6.2781,6.2781,6.2781,6.2781,6.2781,6.2781,6.2781,6.2781,6.2781,6.2781,6.2781,6.2781,6.2781,6.2781,6.2781,6.2781,6.2781,6.2781,6.2781,6.2781,6.2781,6.2781,6.2781,6.2781,6.2781,6.2781,6.2781,6.2781,6.2781,0.0,0.0,2.8516,0.0,0.0,0.0,2.7825,2.8781,3.044,0.0,3.3691,3.4974,3.7891,3.8769,3.9199,0.0,0.0,0.0,0.0,0.0,0.0,0.0,0.0,0.0,4.4977,4.4726,4.4492,4.4414,4.4043,4.3808,4.3711,4.3379,4.3244,4.3244,4.2773,4.2383,4.2051,4.2265,4.2305,4.2051,4.2754,4.3125,4.3203,4.3555,4.3711,4.3691,4.4145,4.5251,4.6867,4.7685,5.0025,5.3289,5.5398,5.6897,5.7688,5.5915,5.706,5.9251,5.7455,5.8031,5.9483,5.9483,5.9483,5.9483,5.9483,5.9483,5.9483,5.9483,5.9483,5.9483,5.9483,5.9483,5.9056,5.7297,5.5217,5.3302,5.1874,4.9875,5.0005,5.5482,5.6573,5.7863,6.2101,6.2781,6.2781,6.2781,6.2781,6.2781,6.2781,6.2781,6.2781,6.2781,6.2781,6.2781,6.2781,6.2781,6.2781,6.2781,6.2781,6.2781,6.2781,6.2781,6.2781,6.2781,6.2781,6.2781,6.2781,6.2781,6.2781,6.2781,6.2781,6.2781,0.0,0.0,2.9394,2.8769,0.0,0.0,0.0,2.7942,2.8742,3.1582,3.1816,3.2324,3.4883,3.5527,3.6035,0.0,0.0,0.0,0.0,0.0,0.0,0.0,0.0,0.0,4.3689,4.3535,4.3516,4.373,4.332,4.3164,4.3379,4.2988,4.2754,4.2754,4.2344,4.2012,4.1797,4.1797,4.1797,4.1816,4.2226,4.2656,4.3127,4.3301,4.3496,4.3752,4.4822,4.588,4.6907,4.7963,4.9635,5.167,5.2698,5.3614,5.4236,5.3318,5.4949,5.7443,5.6502,5.7652,5.9483,5.9483,5.9483,5.9483,5.9483,5.9483,5.9483,5.9483,5.9483,5.9483,5.9483,5.8681,5.7573,5.6479,5.3661,5.114,5.067,4.9009,4.9194,5.4519,5.57,5.7349,6.1993,6.2781,6.2781,6.2781,6.2781,6.2781,6.2781,6.2781,6.2781,6.2781,6.2781,6.2781,6.2781,6.2781,6.2781,6.2781,6.2781,6.2781,6.2781,6.2781,6.2781,6.2781,6.2781,6.2781,6.2781,6.2781,6.2781,6.2781,6.2781,6.2781,0.0,0.0,0.0,0.0,0.0,2.8516,0.0,0.0,0.0,3.0879,0.0,0.0,0.0,0.0,0.0,0.0,0.0,0.0,0.0,0.0,0.0,0.0,0.0,0.0,0.0,4.1953,4.2129,4.2891,4.2246,4.2148,4.291,4.2539,4.2265,4.2265,4.1894,4.168,4.168,4.1348,4.1348,4.168,4.1758,4.2207,4.2949,4.3047,4.3301,4.3793,4.5535,4.6244,4.6344,4.8082,4.8772,4.8851,4.9674,5.0339,5.0793,5.0783,5.2839,5.5581,5.5586,5.7273,5.9483,5.9483,5.9483,5.9483,5.9483,5.9483,5.9483,5.9483,5.9483,5.9405,5.8993,5.7534,5.5975,5.5107,5.2177,4.9572,4.9557,4.8478,4.9013,5.4209,5.5474,5.7211,6.1969,6.2781,6.2781,6.2781,6.2781,6.2781,6.2781,6.2781,6.2781,6.2781,6.2781,6.2781,6.2781,6.2781,6.2781,6.2781,6.2781,6.2781,6.2781,6.2781,6.2781,6.2781,6.2781,6.2781,6.2781,6.2781,6.2781,6.2781,6.2781,6.2781,0.0,0.0,0.0,0.0,3.1738,0.0,0.0,0.0,2.8254,2.6811,0.0,0.0,0.0,0.0,0.0,0.0,0.0,0.0,0.0,0.0,0.0,0.0,0.0,0.0,0.0,4.0254,4.0391,4.2304,4.0684,4.043,4.2402,4.2109,4.1875,4.1875,4.1465,4.1289,4.1289,4.123,4.123,4.1289,4.1621,4.2051,4.2479,4.2891,4.3301,4.3711,4.3939,4.4062,4.4062,4.433,4.4412,4.4761,4.8535,5.0339,5.0634,4.9066,5.1514,5.5383,5.3828,5.5991,5.9483,5.9483,5.9483,5.9483,5.9483,5.9483,5.9483,5.9483,5.9483,5.9032,5.709,5.6375,5.5188,5.1282,4.9955,4.9165,4.759,4.713,4.8586,5.4143,5.5225,5.6882,6.1919,6.2781,6.2781,6.2781,6.2781,6.2781,6.2781,6.2781,6.2781,6.2781,6.2781,6.2781,6.2781,6.2781,6.2781,6.2781,6.2781,6.2781,6.2781,6.2781,6.2781,6.2781,6.2781,6.2781,6.2781,6.2781,6.2781,6.2781,6.2781,6.2781,0.0,0.0,0.0,0.0,0.0,0.0,0.0,0.0,2.6641,0.0,0.0,0.0,0.0,0.0,0.0,0.0,0.0,0.0,0.0,0.0,0.0,0.0,0.0,0.0,0.0,0.0,0.0,0.0,0.0,3.9414,4.1582,4.1523,4.1426,4.1426,4.1308,4.1211,4.1211,4.1211,4.1211,4.1211,4.1348,4.166,4.207,4.25,4.293,4.3359,4.3594,4.3711,4.3711,4.3711,4.3711,4.3856,4.5637,4.6468,4.6636,4.6407,4.9284,5.321,5.298,5.5791,5.9289,5.8006,5.7588,5.7376,5.6055,5.747,5.9251,5.7952,5.7588,5.7391,5.6455,5.4273,5.1886,5.004,4.8634,4.7485,4.6743,4.6758,4.8466,5.381,5.5021,5.6813,6.1894,6.2781,6.2781,6.2781,6.2781,6.2781,6.2781,6.2781,6.2781,6.2781,6.2781,6.2781,6.2781,6.2781,6.2781,6.2781,6.2781,6.2781,6.2781,6.2781,6.2781,6.2781,6.2781,6.2781,6.2781,6.2781,6.2781,6.2781,6.2781,6.2781,3.6367,0.0,0.0,0.0,0.0,0.0,0.0,0.0,0.0,0.0,0.0,0.0,0.0,0.0,0.0,0.0,0.0,0.0,0.0,0.0,0.0,0.0,0.0,0.0,0.0,0.0,0.0,0.0,0.0,0.0,4.084,4.0996,4.1093,4.1211,4.1211,4.1211,4.1211,4.1211,4.1211,4.1211,4.1211,4.1387,4.1816,4.2226,4.2656,4.3105,4.3516,4.3711,4.3711,4.3711,4.3711,4.3711,4.3711,4.3711,4.3808,4.4707,4.7423,5.0811,5.168,5.4476,5.7431,5.5831,5.5309,5.4986,5.3374,5.555,5.8266,5.6654,5.6215,5.6072,5.543,5.2467,4.9446,4.8827,4.7468,4.6308,4.6308,4.7006,4.903,5.3693,5.5348,5.7411,6.2017,6.2781,6.2781,6.2781,6.2781,6.2781,6.2781,6.2781,6.2552,6.1911,6.2429,6.2536,6.1911,6.2429,6.2781,6.2781,6.2781,6.2781,6.2781,6.2781,6.2781,6.2781,6.2781,6.2781,6.2781,6.2781,6.2781,6.2781,6.2781,6.2781,0.0,0.0,0.0,3.2996,0.0,0.0,0.0,0.0,2.8574,0.0,0.0,0.0,0.0,0.0,0.0,0.0,0.0,0.0,0.0,0.0,0.0,0.0,0.0,0.0,0.0,0.0,0.0,0.0,0.0,0.0,4.0312,4.0508,4.0742,4.1211,4.1211,4.1211,4.1211,4.1211,4.1211,4.1211,4.1211,4.1387,4.1816,4.2226,4.2656,4.3105,4.3516,4.3711,4.3711,4.3711,4.3711,4.3711,4.3711,4.3711,4.3808,4.4707,4.6439,4.8543,4.9386,5.1198,5.3086,5.3045,5.3004,5.3004,5.2921,5.4499,5.6295,5.6231,5.6215,5.5694,5.3538,5.1323,4.9041,4.6924,4.6333,4.6308,4.6308,4.7966,5.0528,5.3945,5.6332,5.8882,6.2213,6.2781,6.2781,6.2781,6.2781,6.2781,6.2781,6.2781,6.1952,5.9667,6.1408,6.187,5.9625,6.1515,6.2781,6.2781,6.2781,6.2781,6.2781,6.2781,6.2781,6.2781,6.2781,6.2781,6.2781,6.2781,6.2781,6.2781,6.2781,6.2781,0.0,0.0,4.1465,3.6562,0.0,0.0,0.0,0.0,0.0,0.0,0.0,0.0,0.0,0.0,0.0,0.0,0.0,0.0,0.0,0.0,0.0,0.0,0.0,0.0,0.0,0.0,0.0,0.0,3.498,0.0,0.0,4.0215,4.0586,4.0742,4.1035,4.1211,4.1211,4.1211,4.1211,4.1211,4.1211,4.1289,4.1406,4.1816,4.2246,4.2676,4.3105,4.3437,4.3711,4.3711,4.3711,4.3711,4.3711,4.3711,4.3769,4.4394,4.6197,4.8626,5.0976,5.1323,5.0736,5.0736,5.0736,5.0441,4.8998,5.1114,5.3702,5.226,5.1844,5.1636,5.0904,4.9083,4.7208,4.6464,4.6308,4.6726,4.8182,4.9083,5.1015,5.5832,5.7391,5.8964,6.2229,6.2781,6.2781,6.2781,6.2781,6.2781,6.2781,6.1408,6.0194,5.9391,6.0003,6.0152,5.9349,6.0003,6.0487,6.0487,6.0487,6.0487,6.0487,6.0487,6.1201,6.2781,6.1284,6.1242,6.2781,6.1242,6.0487,6.0445,5.895,5.9035,4.2344,4.2969,0.0,3.875,3.7129,0.0,3.1055,0.0,0.0,0.0,0.0,0.0,0.0,0.0,0.0,0.0,0.0,0.0,0.0,0.0,0.0,0.0,0.0,0.0,0.0,0.0,3.1094,3.4023,0.0,0.0,0.0,0.0,4.0195,4.0469,4.0957,4.1211,4.1211,4.1211,4.1211,4.1211,4.1211,4.1211,4.123,4.1758,4.2168,4.2421,4.3047,4.3457,4.3711,4.3711,4.3711,4.3711,4.3711,4.3711,4.3769,4.4219,4.5653,4.7668,4.9807,4.9616,4.8419,4.8419,4.8419,4.8161,4.6726,4.8827,5.1449,4.9998,4.9616,4.9616,4.9616,4.7966,4.6308,4.6308,4.6308,4.6924,4.9126,5.023,5.2171,5.6973,5.8545,5.9601,6.1277,6.1556,6.187,6.2659,6.2076,6.1556,6.1556,5.9541,5.8119,5.8119,5.8119,5.8119,5.8119,5.8053,5.8053,5.8119,5.8119,5.8119,5.8119,5.8119,5.8799,6.0302,5.9667,5.9667,6.0344,5.9625,5.8884,5.8034,5.5726,5.542]},{"header":{"parameterUnit":"m.s-1","parameterCategory":1,"la1":30.6,"la2":29.2853,"lo1":-89.7004,"lo2":-87.6739,"dy":0.0162,"dx":0.0183,"nx":112,"ny":82,"refTime":"2025-01-20T06:00:00:Z","depth":0,"parameterNumber":3,"parameterNumberName":"V-component_of_WINDS"},"data":[0.0,0.0,0.0,0.0,0.0,0.0,0.0,0.0,0.0,0.0,0.0,0.0,0.0,0.0,0.0,0.0,0.0,0.0,0.0,0.0,0.0,0.0,0.0,0.0,0.0,0.0,0.0,0.0,0.0,0.0,0.0,0.0,0.0,0.0,0.0,0.0,0.0,0.0,0.0,0.0,0.0,0.0,0.0,0.0,0.0,0.0,0.0,0.0,0.0,0.0,0.0,0.0,0.0,0.0,0.0,0.0,0.0,0.0,0.0,0.0,0.0,0.0,0.0,0.0,0.0,0.0,0.0,0.0,0.0,0.0,0.0,0.0,0.0,0.0,0.0,0.0,0.0,0.0,0.0,0.0,0.0,0.0,0.0,0.0,0.0,0.0,0.0,0.0,0.0,0.0,0.0,3.498,4.0083,4.3489,4.411,4.349,4.0979,3.6189,0.0,0.0,0.0,0.0,0.0,0.0,0.0,0.0,0.0,0.0,0.0,0.0,0.0,0.0,0.0,0.0,0.0,0.0,0.0,0.0,0.0,0.0,0.0,0.0,0.0,0.0,0.0,0.0,0.0,0.0,0.0,0.0,0.0,0.0,0.0,0.0,0.0,0.0,0.0,0.0,0.0,0.0,0.0,0.0,0.0,0.0,0.0,0.0,0.0,0.0,0.0,0.0,0.0,0.0,0.0,0.0,0.0,0.0,0.0,0.0,0.0,0.0,0.0,0.0,0.0,0.0,0.0,0.0,0.0,0.0,0.0,0.0,0.0,0.0,0.0,0.0,0.0,0.0,0.0,0.0,0.0,0.0,0.0,0.0,0.0,0.0,0.0,0.0,0.0,0.0,0.0,0.0,0.0,0.0,0.0,0.0,0.0,0.0,0.0,0.0,0.0,0.0,0.0,0.0,3.3279,4.2235,4.4262,4.559,4.7103,4.5037,4.1933,3.789,0.0,0.0,0.0,0.0,0.0,0.0,0.0,0.0,0.0,0.0,0.0,0.0,0.0,0.0,0.0,0.0,0.0,0.0,0.0,0.0,0.0,0.0,0.0,0.0,0.0,0.0,0.0,0.0,0.0,0.0,0.0,0.0,0.0,0.0,0.0,0.0,0.0,0.0,0.0,0.0,0.0,0.0,0.0,0.0,0.0,0.0,0.0,0.0,0.0,0.0,0.0,0.0,0.0,0.0,0.0,0.0,0.0,0.0,0.0,0.0,0.0,0.0,0.0,0.0,0.0,0.0,0.0,0.0,0.0,0.0,0.0,0.0,0.0,0.0,0.0,0.0,0.0,0.0,0.0,0.0,0.0,0.0,0.0,0.0,0.0,0.0,0.0,0.0,0.0,0.0,0.0,0.0,0.0,0.0,0.0,0.0,0.0,0.0,0.0,0.0,0.0,0.0,0.0,3.3848,3.8056,4.6171,4.742,4.7742,4.7895,4.5648,4.2459,3.8266,3.4073,0.0,0.0,0.0,0.0,0.0,0.0,0.0,0.0,0.0,0.0,0.0,0.0,0.0,0.0,0.0,0.0,0.0,0.0,0.0,0.0,0.0,0.0,0.0,0.0,0.0,0.0,0.0,0.0,0.0,0.0,0.0,0.0,0.0,0.0,0.0,0.0,0.0,0.0,0.0,0.0,0.0,0.0,0.0,0.0,0.0,0.0,0.0,0.0,0.0,0.0,0.0,0.0,0.0,0.0,0.0,0.0,0.0,0.0,0.0,0.0,0.0,0.0,0.0,0.0,0.0,0.0,0.0,0.0,0.0,0.0,0.0,0.0,0.0,0.0,0.0,0.0,0.0,0.0,0.0,0.0,0.0,0.0,0.0,0.0,0.0,0.0,0.0,0.0,0.0,0.0,0.0,0.0,0.0,0.0,0.0,0.0,0.0,0.0,0.0,0.0,0.0,0.0,4.0242,4.3022,4.8391,4.9371,4.9138,4.8008,4.5392,4.2155,3.8266,3.2867,0.0,0.0,0.0,0.0,0.0,0.0,0.0,0.0,0.0,0.0,0.0,0.0,0.0,0.0,0.0,0.0,0.0,0.0,0.0,0.0,0.0,0.0,0.0,0.0,0.0,0.0,0.0,0.0,0.0,0.0,0.0,0.0,0.0,0.0,0.0,0.0,0.0,0.0,0.0,0.0,0.0,0.0,0.0,0.0,0.0,0.0,0.0,0.0,0.0,0.0,0.0,0.0,0.0,0.0,0.0,0.0,0.0,0.0,0.0,0.0,0.0,0.0,0.0,0.0,0.0,0.0,0.0,0.0,0.0,0.0,0.0,0.0,0.0,0.0,0.0,0.0,0.0,0.0,0.0,0.0,0.0,0.0,0.0,0.0,0.0,0.0,0.0,0.0,0.0,0.0,0.0,0.0,0.0,0.0,0.0,0.0,0.0,0.0,0.0,0.0,0.0,0.0,4.2386,4.6787,4.9289,4.9565,4.9138,4.8008,4.3987,4.0524,3.8165,3.1411,0.0,0.0,0.0,0.0,0.0,0.0,0.0,0.0,0.0,0.0,0.0,0.0,0.0,0.0,0.0,0.0,0.0,0.0,0.0,0.0,0.0,0.0,0.0,0.0,0.0,0.0,0.0,0.0,0.0,0.0,0.0,0.0,0.0,0.0,0.0,0.0,0.0,0.0,0.0,0.0,0.0,0.0,0.0,0.0,0.0,0.0,0.0,0.0,0.0,0.0,0.0,0.0,0.0,0.0,0.0,0.0,0.0,0.0,0.0,0.0,0.0,0.0,0.0,0.0,0.0,0.0,0.0,0.0,0.0,0.0,0.0,0.0,0.0,0.0,0.0,0.0,0.0,0.0,0.0,0.0,0.0,0.0,0.0,0.0,0.0,0.0,0.0,0.0,0.0,0.0,0.0,0.0,0.0,0.0,0.0,0.0,0.0,0.0,0.0,0.0,0.0,0.0,4.2288,4.5999,0.0,4.959,4.9138,4.8008,4.5091,4.1679,3.7739,0.0,0.0,0.0,0.0,0.0,0.0,0.0,0.0,0.0,0.0,0.0,0.0,0.0,0.0,0.0,0.0,0.0,0.0,0.0,0.0,0.0,0.0,0.0,0.0,0.0,0.0,0.0,0.0,0.0,0.0,0.0,0.0,0.0,0.0,0.0,0.0,0.0,0.0,0.0,0.0,0.0,0.0,0.0,0.0,0.0,0.0,0.0,0.0,0.0,0.0,0.0,0.0,0.0,0.0,0.0,0.0,0.0,0.0,0.0,0.0,0.0,0.0,0.0,0.0,0.0,0.0,0.0,0.0,0.0,0.0,0.0,0.0,0.0,0.0,0.0,0.0,0.0,0.0,0.0,0.0,0.0,0.0,0.0,0.0,0.0,0.0,0.0,0.0,0.0,0.0,0.0,0.0,0.0,0.0,0.0,0.0,0.0,0.0,0.0,0.0,0.0,0.0,3.8893,4.2861,4.625,0.0,4.959,4.9138,4.8008,4.5217,4.1654,3.7211,0.0,0.0,0.0,0.0,0.0,0.0,0.0,0.0,0.0,0.0,0.0,0.0,0.0,0.0,0.0,0.0,0.0,0.0,0.0,0.0,0.0,0.0,0.0,0.0,0.0,0.0,0.0,0.0,0.0,0.0,0.0,0.0,0.0,0.0,0.0,0.0,0.0,0.0,0.0,0.0,0.0,0.0,0.0,0.0,0.0,0.0,0.0,0.0,0.0,0.0,0.0,0.0,0.0,0.0,0.0,0.0,0.0,0.0,0.0,0.0,0.0,0.0,0.0,0.0,0.0,0.0,0.0,0.0,0.0,0.0,0.0,0.0,0.0,0.0,0.0,0.0,0.0,0.0,0.0,0.0,0.0,0.0,0.0,0.0,0.0,0.0,0.0,0.0,0.0,0.0,0.0,0.0,0.0,0.0,0.0,0.0,0.0,0.0,0.0,0.0,0.0,0.0,3.9195,4.4493,4.8335,4.9464,4.959,4.9138,4.7983,4.3862,3.9922,0.0,0.0,0.0,0.0,0.0,0.0,0.0,0.0,0.0,0.0,0.0,0.0,0.0,0.0,0.0,0.0,0.0,0.0,0.0,0.0,0.0,0.0,0.0,0.0,0.0,0.0,0.0,0.0,0.0,0.0,0.0,0.0,0.0,0.0,0.0,0.0,0.0,0.0,0.0,0.0,0.0,0.0,0.0,0.0,0.0,0.0,0.0,0.0,0.0,0.0,0.0,0.0,0.0,0.0,0.0,0.0,0.0,0.0,0.0,0.0,0.0,0.0,0.0,0.0,0.0,0.0,0.0,0.0,0.0,0.0,0.0,0.0,0.0,0.0,0.0,0.0,0.0,0.0,0.0,0.0,0.0,0.0,0.0,0.0,0.0,0.0,0.0,0.0,0.0,0.0,0.0,0.0,0.0,0.0,0.0,0.0,0.0,0.0,0.0,0.0,0.0,0.0,0.0,0.0,4.4493,4.8335,4.9464,4.959,4.8987,4.745,4.5066,4.1227,3.5556,0.0,0.0,0.0,0.0,0.0,0.0,0.0,0.0,0.0,0.0,0.0,0.0,0.0,0.0,0.0,0.0,0.0,0.0,0.0,0.0,0.0,0.0,0.0,0.0,0.0,0.0,0.0,0.0,0.0,0.0,0.0,0.0,0.0,0.0,0.0,0.0,0.0,0.0,0.0,0.0,0.0,0.0,0.0,0.0,0.0,0.0,0.0,0.0,0.0,0.0,0.0,0.0,0.0,0.0,0.0,0.0,0.0,0.0,0.0,0.0,0.0,0.0,0.0,0.0,0.0,0.0,0.0,0.0,0.0,0.0,0.0,0.0,0.0,0.0,0.0,0.0,0.0,0.0,0.0,0.0,0.0,0.0,0.0,0.0,0.0,0.0,0.0,0.0,0.0,0.0,0.0,0.0,0.0,0.0,0.0,0.0,0.0,0.0,0.0,0.0,0.0,0.0,3.917,4.4493,4.8335,4.9464,4.959,4.9012,4.7525,4.5668,4.1955,3.578,0.0,0.0,0.0,0.0,0.0,0.0,0.0,0.0,0.0,0.0,0.0,0.0,0.0,0.0,0.0,0.0,0.0,0.0,0.0,0.0,0.0,0.0,0.0,0.0,0.0,0.0,0.0,0.0,0.0,0.0,0.0,0.0,0.0,0.0,0.0,0.0,0.0,0.0,0.0,0.0,0.0,0.0,0.0,0.0,0.0,0.0,0.0,0.0,0.0,0.0,0.0,0.0,0.0,0.0,0.0,0.0,0.0,0.0,0.0,0.0,0.0,0.0,0.0,0.0,0.0,0.0,0.0,0.0,0.0,0.0,0.0,0.0,0.0,0.0,0.0,0.0,0.0,0.0,0.0,0.0,0.0,0.0,0.0,0.0,0.0,0.0,0.0,0.0,0.0,0.0,0.0,0.0,0.0,0.0,0.0,0.0,0.0,0.0,0.0,0.0,0.0,0.0,3.9195,4.4518,4.8335,4.9464,4.959,4.9113,4.7933,4.5869,4.2359,3.6884,0.0,0.0,0.0,0.0,0.0,0.0,0.0,0.0,0.0,0.0,0.0,0.0,0.0,0.0,0.0,0.0,0.0,0.0,0.0,0.0,0.0,0.0,0.0,0.0,0.0,0.0,0.0,0.0,0.0,0.0,0.0,0.0,0.0,0.0,0.0,0.0,0.0,0.0,0.0,0.0,0.0,0.0,0.0,0.0,0.0,0.0,0.0,0.0,0.0,0.0,0.0,0.0,0.0,0.0,0.0,0.0,0.0,0.0,0.0,0.0,3.1692,0.0,0.0,0.0,0.0,0.0,0.0,0.0,0.0,0.0,0.0,0.0,0.0,0.0,0.0,0.0,0.0,0.0,0.0,0.0,0.0,0.0,0.0,0.0,0.0,0.0,0.0,0.0,0.0,0.0,0.0,0.0,0.0,0.0,0.0,0.0,0.0,0.0,0.0,0.0,0.0,0.0,3.9772,4.4769,4.8335,4.9464,4.959,4.8962,4.74,4.6075,4.3112,3.799,0.0,0.0,0.0,0.0,0.0,0.0,0.0,0.0,0.0,0.0,0.0,0.0,0.0,0.0,0.0,0.0,0.0,0.0,0.0,0.0,0.0,0.0,0.0,0.0,0.0,0.0,0.0,0.0,0.0,0.0,0.0,0.0,0.0,0.0,0.0,0.0,0.0,0.0,0.0,0.0,0.0,0.0,0.0,0.0,0.0,0.0,0.0,0.0,0.0,0.0,0.0,0.0,0.0,0.0,0.0,0.0,0.0,0.0,0.0,0.0,0.0,3.3498,0.0,0.0,0.0,0.0,0.0,0.0,0.0,0.0,0.0,0.0,0.0,0.0,0.0,0.0,0.0,0.0,0.0,0.0,0.0,0.0,0.0,0.0,0.0,0.0,0.0,0.0,0.0,0.0,0.0,0.0,0.0,0.0,0.0,0.0,0.0,0.0,0.0,0.0,0.0,0.0,3.9947,4.4844,4.8335,4.9464,4.959,4.9038,4.7631,4.6502,4.4091,3.9847,3.6207,0.0,0.0,0.0,0.0,0.0,0.0,0.0,0.0,0.0,0.0,0.0,0.0,0.0,0.0,0.0,0.0,0.0,0.0,0.0,0.0,0.0,0.0,0.0,0.0,0.0,0.0,0.0,0.0,0.0,0.0,0.0,0.0,0.0,0.0,0.0,0.0,0.0,0.0,0.0,0.0,0.0,0.0,0.0,0.0,0.0,0.0,0.0,0.0,0.0,0.0,0.0,0.0,0.0,0.0,4.2306,4.2758,4.2758,4.331,4.4095,4.0325,3.8668,3.8366,0.0,0.0,0.0,0.0,0.0,0.0,0.0,0.0,0.0,0.0,0.0,0.0,0.0,0.0,0.0,0.0,0.0,0.0,0.0,0.0,0.0,0.0,0.0,0.0,0.0,3.5774,3.5463,0.0,0.0,0.0,0.0,0.0,0.0,0.0,0.0,0.0,0.0,0.0,0.0,4.045,4.5095,4.846,4.949,4.959,4.9138,4.8008,4.7004,4.5116,4.208,3.8868,3.5602,0.0,0.0,0.0,0.0,0.0,0.0,0.0,0.0,0.0,0.0,0.0,0.0,0.0,0.0,0.0,0.0,0.0,0.0,0.0,0.0,0.0,0.0,0.0,0.0,0.0,0.0,0.0,0.0,0.0,0.0,0.0,0.0,3.5947,3.7289,0.0,0.0,0.0,0.0,0.0,0.0,0.0,0.0,0.0,0.0,0.0,0.0,0.0,0.0,4.1333,4.5337,4.6708,4.5472,4.7456,4.8435,4.851,4.851,4.8837,4.9389,4.8309,0.0,4.08,3.9897,0.0,0.0,0.0,0.0,0.0,0.0,0.0,0.0,0.0,0.0,0.0,0.0,0.0,0.0,0.0,0.0,0.0,0.0,0.0,0.0,0.0,0.0,3.9878,3.9944,4.1358,4.2221,0.0,3.4486,2.8892,2.7176,0.0,0.0,0.0,0.0,0.0,0.0,0.0,0.0,4.2185,4.6205,4.8944,4.9515,4.959,4.9138,4.8008,4.7324,4.6195,4.4288,4.1503,3.932,3.7864,3.3922,0.0,0.0,0.0,0.0,0.0,0.0,0.0,0.0,0.0,0.0,0.0,0.0,0.0,0.0,0.0,0.0,0.0,0.0,0.0,0.0,0.0,0.0,0.0,0.0,0.0,0.0,0.0,0.0,0.0,3.6733,3.9313,3.9459,3.9648,3.849,0.0,0.0,0.0,0.0,0.0,0.0,0.0,0.0,0.0,4.544,4.7617,4.8954,4.9392,5.224,5.3477,5.3063,5.433,5.5098,5.5445,5.5445,5.5017,5.4252,5.4052,5.1606,4.755,4.4188,4.1455,3.9145,0.0,0.0,0.0,0.0,0.0,3.7487,3.9044,0.0,0.0,0.0,0.0,0.0,0.0,0.0,0.0,0.0,0.0,0.0,0.0,0.0,0.0,4.4018,4.5281,4.5824,4.4719,4.1112,3.6969,0.0,3.1808,3.0397,2.7873,0.0,0.0,0.0,0.0,0.0,4.3201,4.7372,5.0016,4.9636,4.959,4.9264,4.846,4.7883,4.6973,4.5648,4.3812,4.203,4.0325,3.7487,3.4198,0.0,0.0,0.0,0.0,0.0,0.0,0.0,0.0,0.0,0.0,0.0,0.0,0.0,0.0,0.0,0.0,0.0,0.0,0.0,0.0,0.0,0.0,0.0,0.0,0.0,0.0,0.0,0.0,4.1077,4.2956,4.2137,4.3627,4.2789,0.0,0.0,0.0,0.0,0.0,0.0,4.4995,4.6728,4.9173,5.2603,5.4628,5.6004,5.6758,5.8435,5.9319,5.9455,5.9839,6.0361,6.0938,6.0938,6.0091,5.8642,5.8031,5.6399,5.3818,4.8346,4.5372,4.4019,4.1557,4.0602,4.0703,4.148,4.193,4.2482,4.4514,4.5242,4.4865,4.2559,0.0,3.8413,3.4986,0.0,0.0,0.0,0.0,3.6541,4.1011,0.0,4.4429,4.7114,4.8127,4.8259,4.7179,4.615,4.3966,0.0,3.7538,3.6073,3.2388,0.0,0.0,0.0,0.0,4.4544,4.5175,4.886,5.0928,4.9733,4.959,4.9364,4.8843,4.8234,4.7506,4.6547,4.5443,4.3962,4.203,4.0526,3.7763,0.0,0.0,0.0,0.0,0.0,0.0,0.0,0.0,0.0,0.0,0.0,0.0,0.0,0.0,0.0,0.0,0.0,0.0,0.0,0.0,0.0,0.0,0.0,0.0,0.0,0.0,0.0,0.0,0.0,0.0,4.7098,4.9775,0.0,0.0,0.0,0.0,4.3524,4.6088,4.865,5.0954,5.3861,5.6259,5.8066,6.0851,6.2076,6.1569,6.3281,6.359,6.249,6.2517,6.2816,6.3391,6.3391,6.299,6.2205,5.9977,5.855,5.7456,5.2264,4.9163,4.7481,4.5824,4.5175,4.5171,4.5221,4.5899,4.6798,4.6923,4.6973,4.7023,4.738,4.4992,4.1832,4.1023,3.886,0.0,0.0,4.0776,4.236,4.5858,4.7589,4.8654,4.9314,4.9891,4.9992,4.8919,4.8159,4.6577,0.0,4.0627,3.955,3.9544,0.0,4.079,4.3752,4.6453,4.8377,4.9104,5.0801,5.1341,4.9758,4.959,4.9364,4.8843,4.8234,4.7682,4.7099,4.605,4.492,4.3714,4.2612,4.0426,3.7034,3.3696,0.0,0.0,0.0,0.0,0.0,0.0,0.0,0.0,0.0,0.0,0.0,0.0,0.0,0.0,0.0,0.0,0.0,0.0,0.0,0.0,0.0,0.0,0.0,0.0,0.0,0.0,0.0,0.0,5.2929,5.479,0.0,0.0,5.0058,5.059,5.1072,5.2724,5.5224,5.8599,6.0116,6.2006,6.4537,6.5595,6.6241,6.6455,6.7091,6.7177,6.6773,6.6773,6.6857,6.709,6.709,6.6293,6.4912,6.4083,6.2014,5.9105,5.6876,5.4278,5.1473,4.9841,4.9213,4.9163,4.8812,4.9138,4.9791,4.9791,5.0042,5.0117,4.8862,4.7059,4.5255,4.471,4.4043,4.3727,4.4912,4.5801,4.6836,4.8735,4.954,4.9967,5.0544,5.082,5.087,5.0502,5.0487,5.0135,4.8767,4.6562,4.4618,4.3672,4.4941,4.624,4.6656,4.9838,5.2055,5.161,5.2738,5.2914,5.133,5.0213,4.9364,4.8843,4.8234,4.7531,4.6622,4.5899,4.497,4.384,4.2763,4.113,3.8843,3.6232,3.2641,0.0,0.0,0.0,0.0,0.0,0.0,0.0,0.0,0.0,0.0,0.0,0.0,0.0,0.0,0.0,0.0,0.0,0.0,0.0,0.0,0.0,0.0,0.0,0.0,0.0,0.0,5.5863,5.6761,5.9159,5.932,5.556,5.6121,5.7197,5.8233,5.9357,6.1573,6.504,6.5948,6.7275,6.9243,6.9544,6.9871,7.032,7.032,7.0201,6.9961,6.9961,6.9842,6.9632,6.9632,6.8875,6.7509,6.6921,6.4888,6.1921,6.0108,5.7939,5.5574,5.328,5.2436,5.2386,5.195,5.1925,5.2076,5.19,5.195,5.1875,5.0368,4.9289,4.846,4.8109,4.8234,4.8579,4.8962,4.9314,4.9873,5.0745,5.0971,5.1071,5.1473,5.1548,5.1699,5.2042,5.2386,5.2761,5.3324,5.1304,4.9189,4.8407,4.9926,5.1173,5.0921,5.3579,5.5186,5.4177,5.427,5.379,5.2148,5.0537,4.9364,4.8843,4.7908,4.6979,4.61,4.5171,4.4141,4.2983,4.2258,4.113,3.9472,3.7061,3.38,2.9735,0.0,0.0,0.0,0.0,0.0,0.0,0.0,0.0,0.0,0.0,0.0,0.0,0.0,0.0,0.0,0.0,0.0,0.0,0.0,0.0,0.0,0.0,0.0,5.0259,5.6107,5.9727,5.8534,6.2959,6.4248,5.9508,6.1876,6.3988,6.4749,6.5904,6.7604,6.9957,7.1281,7.1906,7.1906,7.2565,7.2924,7.2924,7.2924,7.2565,7.1906,7.1906,7.1547,7.0919,7.0919,7.059,6.9927,6.8181,6.7011,6.6016,6.1844,6.0084,5.9651,5.6045,5.4622,5.4622,5.4622,5.4245,5.3632,5.3096,5.2544,5.2126,5.2126,5.1774,5.1356,5.1356,5.1356,5.1356,5.1356,5.1356,5.1448,5.2,5.2126,5.2126,5.2194,5.2194,5.2497,5.3696,5.3954,5.4467,5.609,5.4542,5.3191,5.3896,5.4571,5.5521,5.697,5.7723,0.0,5.6875,5.5415,5.388,5.2302,5.0695,4.9524,4.8913,4.7347,4.6109,4.5502,4.3894,4.2459,4.1352,4.1277,4.0499,3.8944,3.6182,3.3696,3.1486,0.0,0.0,0.0,0.0,0.0,0.0,0.0,0.0,0.0,0.0,0.0,0.0,0.0,0.0,0.0,0.0,0.0,0.0,0.0,0.0,0.0,0.0,5.5589,5.6534,5.9907,6.3018,6.5054,6.655,6.7324,6.695,6.7241,6.8131,6.9767,7.018,7.0879,7.2023,7.2445,7.2624,7.2624,7.2804,7.2924,7.2924,7.2924,7.2834,7.2624,7.2116,7.1787,7.1607,7.1128,7.0799,7.0617,7.0132,6.8804,6.6907,6.5765,6.4205,6.207,5.7116,5.5164,5.5114,5.4748,5.4245,5.3683,5.3532,5.3155,5.2669,5.2669,5.2569,5.2477,5.2477,5.2477,5.2477,5.2477,5.2477,5.2468,5.2619,5.2669,5.2986,5.42,5.4507,5.4892,5.649,5.7401,5.8073,5.8526,5.8697,5.8338,5.6905,5.7369,5.81,5.8507,0.0,0.0,5.8466,5.7047,5.5907,5.5445,5.4002,5.2208,5.0072,4.8763,4.6969,0.0,4.2682,4.1628,4.1327,4.0549,3.9923,3.9471,3.7161,3.523,0.0,0.0,0.0,0.0,0.0,0.0,0.0,0.0,0.0,0.0,0.0,0.0,0.0,0.0,0.0,0.0,0.0,0.0,0.0,0.0,0.0,0.0,5.6872,6.1313,6.3378,6.4994,6.691,6.9365,6.9871,7.035,7.1128,7.0859,7.1218,7.2624,7.2714,7.3013,7.3702,7.3732,7.3732,7.3732,7.3732,7.3732,7.3732,7.3732,7.3612,7.3313,7.2924,7.2595,7.2295,7.1607,7.1308,0.0,7.1009,7.0097,6.873,6.7712,6.6461,0.0,0.0,0.0,0.0,0.0,5.4687,5.4386,5.4135,5.3708,5.3256,5.3256,5.3071,5.2895,5.2895,5.2895,5.3042,5.3742,5.3954,5.4122,5.4868,5.5068,5.5274,5.6271,5.6472,5.6956,5.8669,5.9526,6.0112,6.0852,0.0,0.0,5.9765,5.977,5.9937,5.9937,5.9937,5.9847,0.0,5.8101,5.7024,5.6707,5.5327,5.3645,5.1804,5.0401,0.0,0.0,0.0,4.1666,4.0351,3.9446,0.0,0.0,0.0,0.0,0.0,0.0,0.0,0.0,3.1636,3.0609,0.0,0.0,0.0,0.0,0.0,0.0,0.0,0.0,0.0,0.0,0.0,0.0,0.0,0.0,0.0,0.0,6.2002,6.5922,6.9782,7.0412,7.0831,7.1876,7.2535,7.2954,7.3013,7.3013,7.3283,7.3941,7.4001,7.427,7.4873,0.0,0.0,0.0,0.0,7.4903,7.4903,7.4903,7.4604,7.4001,7.3941,7.3582,7.3013,7.2235,7.1876,7.1846,7.1188,7.0889,7.0729,6.8572,6.7712,6.7391,6.4448,6.1879,5.9535,5.6652,5.5491,0.0,0.0,0.0,0.0,5.3708,5.3381,5.3005,5.3136,5.3179,5.3504,5.5214,5.5683,5.6043,5.7624,5.8005,5.8068,5.8257,5.8289,5.8731,6.0419,6.081,6.1258,6.2817,6.26,6.2211,6.2211,6.1613,6.1076,6.1076,6.1076,0.0,6.0266,5.8973,5.7858,5.7279,0.0,0.0,5.3963,5.2351,5.0188,4.7362,4.497,4.2294,3.9397,3.8868,3.9145,4.0124,4.0701,4.1455,4.2462,4.3413,4.3334,4.2081,3.6672,3.5502,0.0,0.0,0.0,0.0,0.0,0.0,0.0,0.0,0.0,0.0,0.0,0.0,0.0,0.0,0.0,6.1403,6.5443,6.9034,7.1936,7.2804,7.3043,7.2744,7.2834,7.3133,7.3642,7.3702,7.3971,7.4663,7.4723,7.4783,7.4903,7.4903,0.0,7.4903,7.4903,7.4903,7.4903,7.4903,7.4843,7.4723,0.0,0.0,7.3672,7.2445,7.1876,7.1846,7.1188,7.0889,7.0856,7.0382,7.0192,6.9618,6.3589,6.0704,5.9641,5.748,5.6143,5.5365,5.5265,5.4898,5.4371,5.3858,5.3632,5.3734,5.4663,5.4916,0.0,5.7016,5.7528,5.7592,5.791,5.8005,5.8352,5.9718,6.0024,6.0508,6.2233,6.2584,6.2701,6.305,6.3018,6.2928,6.2928,6.1912,6.1076,6.1076,6.1076,6.1046,6.0924,6.0643,6.0387,6.0238,5.9984,5.8861,5.6451,5.5101,5.2657,4.8613,4.5466,4.3093,4.1609,4.2258,4.2785,4.3011,4.351,4.394,4.4141,4.4338,4.4969,4.5947,4.2292,4.0534,0.0,0.0,0.0,0.0,0.0,0.0,0.0,0.0,0.0,0.0,0.0,4.9718,5.2577,0.0,6.1762,6.5443,6.8824,7.1547,7.3163,7.3971,7.427,7.3941,7.3881,7.4031,7.436,7.439,7.4544,7.4873,7.4903,7.4903,7.4903,7.4903,7.4903,7.4903,7.4903,7.4903,7.4903,7.4903,7.4903,7.4903,7.454,7.439,7.436,7.3343,7.2714,7.2355,7.1697,7.1218,7.0889,7.0889,7.0889,7.0376,6.5014,6.2604,6.1727,5.8254,5.6659,5.6168,5.5892,5.6035,5.632,5.5976,5.6321,5.6876,5.715,5.7223,5.7498,5.8846,5.9228,5.9442,6.0355,6.0567,6.0749,6.1585,6.1792,6.2028,6.2904,6.3108,6.3108,6.3108,6.3108,6.3108,6.3108,6.254,6.2091,6.2091,6.2091,6.1972,6.1642,6.1613,6.1493,6.1164,6.1076,6.0525,5.9113,5.6449,5.3185,4.9266,4.651,4.4543,4.3438,4.3915,4.4493,4.5045,4.5568,4.612,4.6702,4.7224,4.7927,4.873,4.7435,4.6443,0.0,0.0,0.0,0.0,0.0,0.0,0.0,0.0,4.5411,4.8034,5.1677,5.5336,5.8479,6.2527,6.6281,6.9093,7.1547,7.3343,7.4001,7.454,7.4903,7.4903,7.4903,7.4903,7.4903,7.4903,7.4903,7.4903,7.4903,7.4903,7.4903,7.4903,7.4903,7.4903,7.4903,7.4903,7.4903,7.4903,7.4903,7.4903,7.4903,7.4903,7.4903,7.418,7.3612,7.3073,7.2235,7.1517,7.0889,7.0889,7.0889,7.0534,6.71,6.5509,6.447,5.9127,5.7345,5.7438,5.6917,5.7645,5.875,5.8643,5.9317,6.0083,5.979,5.9575,5.9728,6.0856,6.1077,6.1318,6.2759,6.3108,6.3108,6.3108,6.3108,6.3108,6.3108,6.3108,6.3108,6.3108,6.3108,6.3108,6.3108,6.3108,6.3108,6.3108,6.3108,6.2898,6.2361,6.2301,6.2091,6.1553,6.1493,6.1292,6.0831,5.7134,5.3435,5.0175,4.8165,4.6652,4.5593,4.5668,4.6145,4.7079,4.7626,4.8385,4.9296,5.0142,5.0645,5.0745,5.1222,5.1197,4.4526,4.1883,4.069,4.2898,4.3342,4.4649,0.0,0.0,5.3408,5.6762,6.0704,6.383,6.4845,6.7803,7.044,7.1398,7.2804,7.4001,7.4659,7.4873,7.4903,7.4903,7.4903,7.4903,7.4903,7.4903,7.4903,7.4903,7.4903,7.4903,7.4903,7.4903,7.4903,7.4903,7.4903,7.4903,7.4903,7.4903,7.4903,7.4903,7.4903,7.4903,7.4903,7.418,7.3851,7.3702,7.2445,7.1517,7.0889,7.0889,7.0889,7.0694,6.8586,6.7718,6.6873,6.0237,5.8474,5.9303,5.8761,5.9728,6.1134,6.0644,6.059,6.0885,6.1807,6.1703,6.1551,6.315,6.3206,6.2846,6.305,6.3108,6.3108,6.3108,6.3108,6.3108,6.3108,6.3108,6.3108,6.3108,6.3108,6.3108,6.3108,6.3108,6.3108,6.3108,6.3108,6.3078,6.3018,6.2988,6.2958,6.2898,6.2898,6.1993,5.9856,5.7411,5.4954,5.2553,5.0877,4.969,4.9063,4.9515,4.9809,4.9934,5.0519,5.087,5.1029,5.1155,5.1423,5.1925,5.1975,5.1975,4.9613,4.8321,0.0,0.0,5.0138,5.269,5.5238,5.7271,5.9418,6.2411,6.5319,6.7657,6.8675,7.062,7.2295,0.0,7.3851,7.4604,7.4873,7.4903,7.4634,7.3821,7.442,7.4903,7.4903,7.4903,7.4903,7.4903,7.4903,7.4903,7.4903,7.4903,7.4903,7.4903,7.4903,7.4903,7.4903,7.4903,7.4903,7.4903,7.4903,7.4903,7.4903,7.4634,7.4061,7.3283,7.2295,7.1517,7.0889,7.0889,7.0889,7.0726,6.8822,6.8112,6.7559,6.325,6.1756,6.1771,6.1244,6.2001,6.3126,6.2903,6.3558,6.4423,6.4495,6.4357,6.4183,6.4487,6.4126,6.3617,6.3617,6.3377,6.3108,6.3108,6.3108,6.3108,6.3108,6.3108,6.3108,6.3108,6.3108,6.3108,6.3108,6.3108,6.3108,6.3108,6.3108,6.3108,6.3108,6.3108,6.3108,6.3108,6.3108,6.188,5.8889,5.7803,5.5853,5.2605,5.1772,5.1147,5.0594,5.0795,5.1071,5.1398,5.1649,5.1925,5.2226,5.2226,5.2352,5.2578,5.2578,5.2578,5.2187,0.0,0.0,5.312,5.632,5.9578,5.9909,6.1942,6.4366,6.664,6.8525,7.0201,7.1487,7.2684,7.3612,7.4091,7.4569,7.4903,7.4903,7.4569,7.3971,7.3043,7.3432,7.3911,7.43,7.4659,7.4903,7.4903,7.4903,7.4903,7.4903,7.4903,7.4903,7.4903,7.4903,7.4903,7.4903,7.4903,7.4903,7.4903,7.4903,7.4903,7.4903,7.4903,7.4151,7.286,7.2385,7.1697,7.0889,7.0889,7.0889,7.0759,6.9386,6.8856,6.8663,6.6862,6.5412,6.4349,6.36,6.4229,6.5306,6.5071,6.595,6.6909,6.643,6.6161,6.5922,6.5413,6.4785,6.4246,6.4036,6.3677,6.3317,6.3138,6.3108,6.3108,6.3108,6.3108,6.3108,6.3108,6.3108,6.3108,6.3108,6.3108,6.3108,6.3108,6.3108,6.3108,6.3108,6.3108,6.3108,6.3108,6.2672,6.1198,5.8257,5.756,5.585,5.2556,5.2327,5.2151,5.1749,5.1724,5.1925,5.2327,5.2327,5.2528,5.2895,5.2895,5.2895,5.2895,5.2895,5.2895,0.0,0.0,5.3977,5.7098,6.0446,6.3258,6.4486,6.637,6.8227,6.9604,7.0889,7.2206,7.3552,7.436,7.4873,7.4873,7.4903,7.4903,7.4903,7.3762,7.2954,7.2924,7.1787,7.1547,0.0,7.4121,7.4903,7.4903,7.4903,7.4903,7.4903,7.4903,7.4903,7.4903,7.4903,7.4903,7.4903,7.4903,7.4903,7.4903,7.4903,7.4903,7.4903,7.4903,7.4151,7.2924,7.2894,7.2146,7.0889,7.0889,7.0889,7.0889,7.0824,7.0791,7.0791,7.0729,6.9112,6.6835,6.5631,6.6387,6.7775,6.7117,6.6968,6.6999,6.6969,6.652,6.6011,6.5981,6.5473,6.4815,6.4186,6.3977,6.3827,6.3257,6.3108,6.3108,6.3108,6.3108,6.3108,6.3108,6.3108,6.3108,6.3108,6.3108,6.3108,6.3108,6.3108,6.3108,6.3108,6.3108,6.3108,6.3108,6.1585,5.9902,5.8163,5.644,5.4716,5.3007,5.287,5.287,5.2845,5.2845,5.2845,5.287,5.287,5.287,5.2895,5.2895,5.2895,5.2895,5.2895,5.2895,0.0,0.0,5.8919,6.0924,6.3887,6.67,6.7955,6.8824,6.9844,7.1577,7.1547,7.1517,7.2415,7.2744,7.3077,7.3492,7.3941,7.436,7.4843,7.448,7.3552,7.1787,7.2355,0.0,0.0,0.0,0.0,7.4843,7.4903,7.4903,7.4903,7.4903,7.4903,7.4903,7.4903,7.4903,7.4903,7.4903,7.4903,7.4903,7.4903,7.4903,7.4903,7.4903,7.4151,7.2924,7.2924,7.2146,7.0889,7.0889,7.0889,7.0889,7.0889,7.0889,7.0889,7.0889,7.0382,6.9503,6.8678,6.8233,6.7958,6.7748,6.7389,6.6999,6.6999,6.6819,6.667,6.667,6.6191,6.5622,6.5383,6.5024,6.4605,6.4425,6.4366,6.4366,6.4366,6.4366,6.4366,6.4366,6.4366,6.4216,6.3767,6.3677,6.3558,6.3168,6.3108,6.3108,6.3108,6.3108,6.3108,6.3108,6.1555,5.9841,5.8163,5.6402,5.4675,5.3033,5.2895,5.2895,5.2895,5.2895,5.2895,5.2895,5.2895,5.2895,5.2895,5.2895,5.3071,5.3432,5.3432,5.3658,5.6885,5.9847,6.2989,6.5054,6.7508,6.9662,7.0739,7.0829,7.0949,7.1996,7.1128,7.035,7.0769,7.0649,7.0949,7.2325,7.2894,7.3582,7.4753,7.4304,7.3253,7.1787,7.2146,7.2116,0.0,0.0,0.0,7.442,7.4783,7.4903,7.4903,7.4903,7.4903,7.4903,7.4903,7.4903,7.4903,7.4903,7.4903,7.4903,7.4903,7.4903,7.4903,7.4903,7.43,7.3253,7.3013,7.2295,7.1248,7.1009,7.0889,7.0889,7.0889,7.0889,7.0889,7.0889,7.0889,7.0799,7.0201,6.9454,6.8646,6.8167,6.7718,6.7298,6.7059,6.6999,6.6999,6.6999,6.67,6.6311,6.6071,6.5682,6.5293,6.5054,6.4994,6.4994,6.4994,6.4994,6.4994,6.4994,6.4994,6.4845,6.4455,6.4156,6.3797,6.3197,6.3108,6.3108,6.3108,6.3108,6.3108,6.3108,6.0989,5.9166,5.81,5.5873,5.4055,5.2964,5.2895,5.2895,5.2895,5.2895,5.2895,5.2895,5.2895,5.2895,5.2895,5.3071,5.3381,5.3708,5.3909,5.4245,6.0475,6.3259,6.6071,6.9273,7.1009,7.2116,7.2774,7.2325,7.1577,7.0889,6.9662,6.8675,0.0,0.0,6.8676,7.1191,7.1787,7.2624,7.4634,7.3286,7.2265,0.0,0.0,0.0,0.0,0.0,0.0,7.3791,0.0,7.4873,7.4903,7.4903,7.4903,7.4903,7.4903,7.4903,7.4903,7.4903,7.4903,7.4903,7.4903,7.4903,7.4903,7.4903,7.451,7.3851,7.3223,7.2565,7.1846,7.1218,7.0919,7.0889,7.0889,7.0889,7.0889,7.0889,7.0889,7.0829,7.0231,7.0053,6.9814,6.8526,6.8047,6.7898,6.7238,6.7029,6.6999,6.6999,6.6999,6.6849,6.6221,6.6071,6.5892,6.5233,6.5084,6.5084,6.5084,6.5084,6.5084,6.5084,6.5084,6.5054,6.5054,6.4485,6.3797,6.3227,6.3138,6.3108,6.3108,6.3108,6.3108,6.3108,6.0022,5.8005,5.8005,5.4868,5.2895,5.2895,5.2895,5.2895,5.2895,5.2895,5.2895,5.2945,5.2945,5.2945,5.297,5.3507,5.3758,5.3808,5.4477,5.4789,6.4006,6.7029,6.9722,7.1068,7.2026,7.2684,7.2864,7.1637,7.0173,6.9005,6.655,6.4155,0.0,0.0,0.0,6.7328,7.041,0.0,7.4693,7.4484,0.0,7.3013,0.0,7.2714,7.2206,7.2894,0.0,0.0,7.4061,7.436,7.4873,7.4903,7.4903,7.4903,7.4903,7.4903,7.4903,7.4903,7.4903,7.4903,7.4903,7.4903,7.4903,7.4903,7.451,7.3881,7.3732,7.2984,7.1876,7.1697,7.1338,7.0889,7.0889,7.0889,7.0889,7.0889,7.0889,7.0889,7.0709,7.038,6.9963,6.9604,6.8826,6.7958,6.7808,6.7419,6.6999,6.6999,6.6999,6.6939,6.6789,6.6759,6.67,6.652,6.649,6.649,6.649,6.649,6.649,6.649,6.6101,6.5772,6.5772,6.4784,6.3947,6.3797,6.3407,6.3108,6.3108,6.3108,6.3108,6.3108,6.0022,5.8005,5.8005,5.4868,5.2895,5.2895,5.2895,5.2895,5.2895,5.2895,5.3071,5.3507,5.3507,5.3708,5.4195,5.4321,5.4597,5.4999,5.6501,5.7425,6.7448,7.0141,7.2295,7.2684,7.3043,7.2984,7.1517,6.9901,6.7807,6.4754,6.2151,0.0,0.0,0.0,0.0,0.0,0.0,0.0,7.562,7.532,7.4599,0.0,7.3851,0.0,7.3253,7.3612,7.4001,0.0,7.433,7.448,7.4903,7.4903,7.4903,7.4903,7.4903,7.4903,7.4903,7.4903,7.4903,7.4903,7.4903,7.4903,7.4903,7.4903,7.4659,7.43,0.0,7.3313,7.2325,7.1996,7.1487,7.0889,7.0889,7.0889,7.0889,7.0889,7.0889,7.0889,7.0889,7.0679,7.035,7.0081,6.9514,6.8766,6.8167,6.7748,6.7389,6.7059,6.6999,6.6999,6.6999,6.6999,6.6999,6.6999,6.6999,6.6999,6.6999,6.6999,6.6999,6.6999,6.67,6.634,6.6071,6.5383,6.4784,6.4485,6.4156,6.3947,6.3947,6.3467,6.3108,6.3108,6.0022,5.8005,5.8005,5.4868,5.2995,5.3256,5.3256,5.3381,5.3632,5.3658,5.3783,5.4084,5.4084,5.4667,5.5785,5.6042,5.672,5.7781,5.9028,5.9803,7.1232,7.3126,7.4342,7.4252,7.39,7.2774,6.9482,6.7508,6.4874,5.9668,0.0,5.6017,5.467,5.7547,6.1659,6.6337,0.0,7.3332,7.6908,7.6051,7.5048,7.5138,7.4629,7.451,7.5113,7.454,7.439,7.4993,7.4963,7.4903,7.4903,7.4903,7.4903,7.4903,7.4903,7.4903,7.4903,7.4903,7.4903,7.4903,7.4903,7.4903,7.4903,7.4903,7.4903,7.4873,0.0,0.0,7.3013,7.2415,7.1697,7.1038,7.1038,7.0979,7.0889,7.0889,7.0889,7.0889,7.0889,7.0889,7.0799,7.029,7.0083,6.9752,6.8616,6.8137,6.7868,6.7329,6.7059,6.6999,6.6999,6.6999,6.6999,6.6999,6.6999,6.6999,6.6999,6.6999,6.6999,6.6999,6.6999,6.6819,6.6251,6.6071,6.5802,6.5203,6.5054,6.4994,6.4994,6.4036,6.3348,6.3348,6.0279,5.8253,5.8253,5.5103,5.3435,5.4141,5.4167,5.4394,5.4935,5.4961,5.4986,5.5062,5.5062,5.6009,5.7875,5.8347,5.9372,6.0922,6.1614,6.1964,7.664,7.7057,7.659,7.6035,7.4076,7.14,6.8076,6.5054,0.0,0.0,0.0,5.2486,5.0654,5.5731,6.1222,6.4497,6.94,7.4029,7.7626,0.0,7.5916,0.0,0.0,0.0,0.0,0.0,0.0,0.0,0.0,7.4903,7.4903,7.4903,7.4903,7.4903,7.4903,7.4903,7.4903,7.4903,7.4903,7.4903,7.4903,7.4903,7.4903,7.4903,7.4903,7.4903,0.0,0.0,7.3702,7.3582,7.2834,7.1727,7.1727,7.1398,7.0889,7.0889,7.0889,7.0889,7.0889,7.0889,7.0889,7.0769,7.041,6.9963,6.9692,6.8886,6.7987,6.7868,6.7449,6.6999,6.6999,6.6999,6.6999,6.6999,6.6999,6.6999,6.6999,6.6999,6.6999,6.6999,6.6999,6.6939,6.6849,6.637,6.5981,6.5832,6.5353,6.4994,6.4994,6.4815,6.4665,6.4665,6.1565,5.9496,5.9496,5.6311,5.4988,5.6578,5.6681,5.6707,5.6812,5.6838,5.7048,5.7485,5.7511,5.8594,6.0856,6.0965,6.1127,6.1524,6.3093,6.383,7.8726,7.8965,7.8219,7.6708,7.4214,7.0861,6.5874,0.0,0.0,0.0,5.1015,4.9404,4.8614,5.3183,0.0,6.2791,6.6508,7.0801,7.6493,7.5603,0.0,0.0,0.0,0.0,0.0,0.0,0.0,0.0,0.0,7.5258,7.4933,7.4903,7.4903,7.4903,7.4903,7.4903,7.4903,7.4903,7.4903,7.4903,7.4903,7.4903,7.4903,7.4903,7.4903,7.4903,7.4903,0.0,7.3881,7.3881,7.3313,7.2415,7.2415,7.2235,7.1906,7.1547,7.1427,7.1368,7.1009,7.0889,7.0889,7.0889,7.0709,7.041,7.0113,6.9574,6.8975,6.8615,6.8286,6.8046,6.8046,6.7777,6.7538,6.7538,6.7238,6.6999,6.6999,6.6999,6.6999,6.6999,6.6999,6.6999,6.6999,6.6729,6.652,6.652,6.6251,6.6041,6.6041,6.6041,6.5742,6.5084,6.2718,6.1214,6.1214,5.8847,5.7904,5.9041,5.9108,5.8833,5.8162,5.9053,5.9222,5.8515,5.9422,6.095,6.3018,6.3018,6.3476,6.4438,6.5646,6.6233,8.038,8.0558,7.9759,7.7459,7.4613,7.0687,6.4106,5.9205,0.0,0.0,4.8183,4.6996,4.7324,5.0908,5.5623,0.0,6.3654,6.7409,7.4929,7.4331,7.3911,0.0,0.0,0.0,0.0,0.0,0.0,0.0,0.0,0.0,7.4963,7.4903,7.4903,7.4903,7.4903,7.4903,7.4903,7.4903,7.4903,7.4903,7.4903,7.4903,7.4903,7.4903,7.4903,7.4903,7.4903,0.0,0.0,7.4091,7.3732,7.3133,7.3133,7.3043,7.2834,7.2146,7.1876,7.1787,7.1128,7.0889,7.0889,7.0889,7.0889,7.0799,7.032,7.0081,6.9903,6.9363,6.9123,6.9004,6.9004,6.8585,6.8227,6.8227,6.7807,6.7418,6.7418,6.7418,6.7418,6.7418,6.7298,6.7208,6.7208,6.7089,6.6999,6.6999,6.6999,6.6999,6.6999,6.6999,6.661,6.5532,6.3897,6.2875,6.2875,6.1325,6.0676,6.1505,6.1566,6.1098,6.01,6.1427,6.1495,6.0092,6.1599,6.3282,6.5089,6.5234,6.6019,6.7418,6.7987,6.8227,8.3522,8.3082,8.1447,7.9294,7.5561,7.07,6.4257,0.0,0.0,4.9005,4.6692,4.5684,4.6308,4.9745,5.4313,5.9871,0.0,6.6635,7.3599,7.4144,7.4749,7.7322,0.0,0.0,0.0,0.0,0.0,0.0,0.0,0.0,7.4963,7.4903,7.4903,7.4903,7.4903,7.4903,7.4903,7.4903,7.4903,7.4903,7.4903,7.4903,7.4903,7.4903,7.4903,7.4903,0.0,0.0,0.0,7.4813,7.439,7.3821,7.3821,7.3432,7.2834,7.2146,7.1876,7.1787,7.1128,7.0889,7.0889,7.0889,7.0889,7.0889,7.0829,7.044,6.9993,6.9933,6.9453,6.9004,6.9004,6.8944,6.8914,6.8914,6.8854,6.8824,6.8824,6.8824,6.8824,6.8824,6.8315,6.7928,6.7928,6.7419,6.6999,6.6999,6.6999,6.6999,6.6999,6.6999,6.6939,6.6819,6.5214,6.414,6.414,6.2488,6.2157,6.3873,6.397,6.3934,6.383,6.3959,6.3991,6.383,6.4569,6.5854,6.768,6.8275,6.8637,6.8824,6.8884,6.8914,8.3197,8.3807,8.2886,7.9771,7.5784,7.0931,6.4586,0.0,5.3153,4.9721,4.715,4.5755,4.6407,4.8044,5.1317,5.7498,5.7956,6.0269,6.819,6.8536,6.9926,7.5201,7.7105,0.0,0.0,0.0,0.0,0.0,0.0,0.0,7.4963,7.4903,7.4903,7.4903,7.4903,7.4903,7.4903,7.4903,7.4903,7.4903,7.4903,7.4903,7.4903,7.4903,7.4903,7.4903,0.0,0.0,0.0,7.4903,7.4753,7.448,7.448,7.433,7.3971,7.2894,7.2505,7.2355,7.1278,7.0889,7.0889,7.0889,7.0889,7.0889,7.0889,7.0739,7.053,7.053,7.035,7.0141,7.0141,6.9871,6.9482,6.9093,6.9004,6.9004,6.9004,6.9004,6.9004,6.9004,6.8764,6.8585,6.8585,6.8375,6.8076,6.7688,6.7598,6.7479,6.7029,6.6999,6.6999,6.6999,6.6353,6.595,6.595,6.5263,6.5168,6.5888,6.6304,6.6038,6.4954,6.6323,6.6622,6.5527,6.6824,6.7894,6.8585,6.8854,6.9004,6.9004,6.9393,6.8969,8.2035,8.3558,8.3489,8.0155,7.6136,7.125,0.0,5.83,5.2741,4.9594,4.6988,4.5485,4.6159,4.6685,4.8832,0.0,5.4144,5.5935,6.3693,6.4875,6.7114,0.0,0.0,0.0,0.0,0.0,0.0,0.0,0.0,0.0,0.0,7.4903,7.4903,7.4903,7.4903,7.4903,7.4903,7.4903,7.4903,7.4903,7.4903,7.4903,7.4903,7.4903,7.4903,7.4903,0.0,0.0,0.0,7.4903,7.4903,7.4903,7.4903,7.4903,7.4753,7.3402,7.2924,7.2714,7.1368,7.0889,7.0889,7.0889,7.0889,7.0889,7.0889,7.0889,7.0889,7.0889,7.0889,7.0889,7.0889,7.059,7.0141,6.9662,6.9572,6.9572,6.9572,6.9572,6.9572,6.9572,6.9423,6.9303,6.9303,6.9123,6.8824,6.8377,6.8317,6.8137,6.7657,6.7597,6.7597,6.7597,6.7597,6.7508,6.7298,6.7478,6.7597,6.7597,6.8016,6.7723,6.6455,6.8074,6.8404,6.7123,6.8548,6.9303,6.9303,6.9482,6.9572,6.9572,7.0051,6.9263,8.0513,8.2374,8.2983,8.0724,7.6826,7.1693,6.4695,5.8394,5.2661,4.7923,4.5533,4.4526,4.5205,4.5873,4.7377,5.0714,5.236,5.5294,6.131,6.4967,6.8312,0.0,0.0,7.7083,0.0,0.0,0.0,0.0,0.0,0.0,0.0,7.4903,7.4903,7.4903,7.4903,7.4903,7.4903,7.4903,7.4903,7.4903,7.4903,7.4903,7.4903,7.4903,7.4903,0.0,0.0,0.0,0.0,7.4903,7.4903,7.4903,7.4903,7.4903,7.4753,7.3402,7.2924,7.2714,7.1368,7.0889,7.0889,7.0889,7.0889,7.0889,7.0889,7.0889,7.0889,7.0889,7.0889,7.0889,7.0889,7.0889,7.0889,7.0889,7.0889,7.0889,7.0889,7.0889,7.0889,7.0889,7.038,6.9993,6.9993,6.9423,6.9004,6.9004,6.9004,6.9004,6.8974,6.8974,6.8974,6.8974,6.8974,6.8704,6.8047,6.8585,6.8974,6.8974,6.9004,6.9004,6.8942,6.9004,6.9004,6.8972,6.9632,6.9993,6.9993,7.059,7.0889,7.0889,7.0889,6.988,7.3753,7.5912,7.6657,7.3409,7.0364,6.6736,6.1264,5.6632,5.2219,4.7801,4.6016,4.5259,4.5299,4.5873,4.8101,5.3599,5.4983,0.0,0.0,0.0,0.0,7.4381,8.0419,8.3651,0.0,0.0,0.0,0.0,0.0,0.0,0.0,7.4903,7.4903,7.4903,7.4903,7.4903,7.4903,7.4903,7.4903,7.4903,7.4903,7.4903,7.4903,7.4903,0.0,0.0,0.0,0.0,0.0,7.4903,7.4903,7.5006,7.6102,7.6535,7.6382,7.5033,7.4542,7.4198,7.176,7.0889,7.0889,7.0889,7.0889,7.0889,7.0889,7.0889,7.0889,7.0889,7.0889,7.0889,7.0889,7.0889,7.0889,7.0889,7.0889,7.0889,7.0889,7.0889,7.0889,7.0889,7.0739,7.062,7.062,7.044,7.0171,6.9722,6.9662,6.9512,6.9064,6.9004,6.9004,6.9004,6.9393,6.9393,6.8734,6.8884,6.9004,6.9004,6.9423,6.9662,6.9662,7.0081,7.029,7.029,7.05,7.062,7.062,7.0799,7.0889,7.0856,6.9553,6.9353,6.7647,7.094,7.2326,6.9755,6.666,6.3133,5.8659,5.4528,5.0544,4.672,4.5712,4.5413,4.5008,4.5672,4.7718,5.2031,5.3855,5.6486,0.0,0.0,0.0,7.6648,0.0,0.0,0.0,0.0,0.0,0.0,0.0,0.0,0.0,7.4903,7.4903,7.4903,7.4903,7.4903,7.4903,7.4903,7.4903,7.4903,7.4903,7.4903,7.4903,7.4903,0.0,0.0,0.0,0.0,0.0,7.4903,7.5282,7.5899,7.6898,7.7489,7.7591,7.59,7.5121,7.4498,7.1833,7.0889,7.0889,7.0889,7.0889,7.0889,7.0889,7.0889,7.0889,7.0889,7.0889,7.0889,7.0889,7.0889,7.0889,7.0889,7.0889,7.0889,7.0889,7.0889,7.0889,7.0889,7.0889,7.0889,7.0889,7.0889,7.0769,7.038,7.032,7.0171,6.9782,6.9722,6.9722,6.9722,7.0081,7.0171,6.9752,6.9722,6.9722,6.9722,7.0111,7.032,7.032,7.0709,7.0889,7.0889,7.0889,7.0889,7.0889,7.0889,7.0889,7.0856,6.9715,6.9781,0.0,6.6523,6.8837,6.7993,6.4419,6.0118,5.6374,5.2098,0.0,4.4941,4.4796,4.5095,4.4655,4.5523,4.6629,4.7698,5.0424,5.4117,0.0,6.5125,0.0,0.0,0.0,0.0,0.0,0.0,0.0,0.0,0.0,0.0,0.0,7.4903,7.4903,7.4903,7.5006,7.504,7.4903,7.5006,7.5044,7.5044,7.5044,7.5044,7.5074,7.4937,0.0,0.0,0.0,0.0,0.0,7.504,7.5933,7.7322,7.7486,7.7999,7.8346,7.6213,7.4905,7.3911,7.165,7.0889,7.0889,7.0889,7.0889,7.0889,7.0889,7.0889,7.0889,7.0889,7.0889,7.0889,7.0889,7.0889,7.0889,7.0889,7.0889,7.0889,7.0889,7.0889,7.0889,7.0889,7.0889,7.0889,7.0889,7.0889,7.0889,7.0889,7.0889,7.0889,7.0889,7.0889,7.0889,7.0889,7.0889,7.0889,7.0889,7.0889,7.0889,7.0889,7.0889,7.0889,7.0889,7.0889,7.0889,7.0889,7.0889,7.0889,7.0889,7.0889,7.0889,7.0889,7.0889,7.0889,5.1322,0.0,5.7348,5.5436,5.4092,5.2681,0.0,4.8661,4.6883,4.474,0.0,4.5125,4.701,4.68,4.7856,5.2576,5.5299,5.8287,6.245,0.0,0.0,0.0,0.0,0.0,0.0,0.0,0.0,0.0,0.0,0.0,0.0,7.4903,7.4903,7.4903,7.6099,7.6136,7.4903,7.6133,7.6765,7.6765,7.6765,7.6765,7.67,7.5455,0.0,0.0,0.0,0.0,7.5006,7.6235,7.6963,7.7486,7.9464,7.9589,7.8555,7.6953,7.5513,7.4004,7.1683,7.0889,7.0889,7.0889,7.0889,7.0889,7.0889,7.0889,7.0889,7.0889,7.0889,7.0889,7.0889,7.0889,7.0889,7.0889,7.0889,7.0889,7.0889,7.0889,7.0889,7.0889,7.0889,7.0889,7.0889,7.0889,7.0889,7.0889,7.0889,7.0889,7.0889,7.0889,7.0889,7.0889,7.0889,7.0889,7.0889,7.0889,7.0889,7.0889,7.0889,7.0889,7.0889,7.0889,7.0889,7.0889,7.0889,7.0889,7.0889,7.0889,7.0889,7.0889,7.0889,7.0889,4.5334,4.9527,5.3508,5.2271,5.1351,5.04,4.9168,0.0,0.0,0.0,0.0,4.4745,4.6202,4.6651,4.8095,5.2223,5.5374,0.0,0.0,0.0,8.0635,8.3538,0.0,0.0,0.0,0.0,0.0,0.0,0.0,0.0,0.0,7.5594,7.5999,7.5999,7.7611,7.7644,7.6033,7.7612,7.8439,7.8439,7.7676,7.729,7.7225,7.5628,0.0,0.0,0.0,0.0,7.6036,7.659,7.7685,7.9135,8.0198,7.9879,7.8712,7.7245,7.5498,7.3602,7.1592,7.0889,7.0889,7.0889,7.0889,7.0889,7.0889,7.0889,7.0889,7.0889,7.0889,7.0889,7.0889,7.0889,7.0889,7.0889,7.0889,7.0889,7.0889,7.0889,7.0889,7.0889,7.0889,7.0889,7.0889,7.0889,7.0889,7.0889,7.0889,7.0889,7.0889,7.0889,7.0889,7.0889,7.0889,7.0889,7.0889,7.0889,7.0889,7.0889,7.0889,7.0889,7.0889,7.0889,7.0889,7.0889,7.0889,7.0889,7.0889,7.0889,7.0889,7.0889,7.0889,7.0889,4.286,4.7925,5.292,5.2327,5.1278,5.0138,4.9387,0.0,0.0,0.0,0.0,0.0,0.0,0.0,0.0,0.0,0.0,0.0,7.301,7.7854,8.1149,8.3582,0.0,0.0,0.0,0.0,0.0,0.0,0.0,0.0,0.0,7.6798,7.7676,7.7676,7.9281,7.9465,7.806,7.9465,8.0044,7.9773,7.8376,7.7548,7.7225,7.5628,7.4903,0.0,0.0,0.0,7.7136,7.6993,7.8531,8.088,8.0382,7.9551,7.8461,7.7062,7.5002,7.2736,7.1375,7.0889,7.0889,7.0889,7.0889,7.0889,7.0889,7.0889,7.0889,7.0889,7.0889,7.0889,7.0889,7.0889,7.0889,7.0889,7.0889,7.0889,7.0889,7.0889,7.0889,7.0889,7.0889,7.0889,7.0889,7.0889,7.0889,7.0889,7.0889,7.0889,7.0889,7.0889,7.0889,7.0889,7.0889,7.0889,7.0889,7.0889,7.0889,7.0889,7.0889,7.0889,7.0889,7.0889,7.0889,7.0889,7.0889,7.0889,7.0889,7.0889,7.0889,7.0889,7.0889,7.0889,4.4945,4.817,4.9912,4.6565,4.6803,4.7529,0.0,0.0,0.0,0.0,0.0,0.0,0.0,0.0,0.0,0.0,0.0,0.0,0.0,0.0,0.0,0.0,0.0,0.0,0.0,0.0,0.0,0.0,0.0,0.0,0.0,7.8502,7.9436,7.9435,8.1003,8.1708,8.1443,8.1676,8.115,7.9803,7.9528,7.8659,7.7225,7.5628,7.4903,0.0,0.0,7.672,7.6581,7.9225,8.0296,8.0238,8.0854,7.9423,7.695,7.6079,7.3872,7.1214,7.0986,7.0889,7.0889,7.0889,7.0889,7.0889,7.0889,7.0889,7.0889,7.0889,7.0889,7.0889,7.0889,7.0889,7.0889,7.0889,7.0889,7.0889,7.0889,7.0889,7.0889,7.0889,7.0889,7.0889,7.0889,7.0889,7.0889,7.0889,7.0889,7.0889,7.0889,7.0889,7.0889,7.0889,7.0889,7.0889,7.0889,7.0889,7.0889,7.0889,7.0889,7.0889,7.0889,7.0889,7.0889,7.0889,7.0889,7.0889,7.0889,7.0889,7.0889,7.0889,7.0889,7.0889,4.324,4.5574,4.7437,4.707,4.9015,5.069,0.0,0.0,0.0,0.0,0.0,0.0,0.0,0.0,0.0,0.0,0.0,0.0,0.0,0.0,0.0,0.0,0.0,0.0,0.0,0.0,0.0,0.0,0.0,0.0,0.0,0.0,8.1092,8.1121,8.2656,8.3503,8.3503,8.3503,8.2684,8.1092,8.0227,7.8941,7.7225,7.5628,7.5173,7.565,0.0,7.7277,7.8348,7.9471,8.0233,8.0715,8.0697,7.8815,7.5853,7.3812,7.2141,7.0889,7.0889,7.0889,7.0889,7.0889,7.0889,7.0889,7.0889,7.0889,7.0889,7.0889,7.0889,7.0889,7.0889,7.0889,7.0889,7.0889,7.0889,7.0889,7.0889,7.0889,7.0889,7.0889,7.0889,7.0889,7.0889,7.0889,7.0889,7.0889,7.0889,7.0889,7.0889,7.0889,7.0889,7.0889,7.0889,7.0889,7.0889,7.0889,7.0889,7.0889,7.0889,7.0889,7.0889,7.0889,7.0889,7.0889,7.0889,7.0889,7.0889,7.0889,7.0889,7.0889,7.0889,7.0889,4.275,4.4367,4.6411,0.0,0.0,0.0,0.0,0.0,0.0,0.0,0.0,0.0,0.0,6.0163,0.0,0.0,0.0,0.0,0.0,0.0,0.0,0.0,0.0,0.0,0.0,0.0,0.0,0.0,0.0,0.0,0.0,0.0,8.2741,8.2741,8.3981,8.4614,8.4614,8.4614,8.3586,8.1618,8.0766,7.9281,7.7257,7.6434,7.6329,7.6775,7.7183,7.8265,7.9732,7.9561,8.0101,8.1012,8.0412,7.8318,7.5261,7.2487,7.1244,7.0889,7.0889,7.0889,7.0889,7.0889,7.0889,7.0889,7.0889,7.0889,7.0889,7.0889,7.0889,7.0889,7.0889,7.0889,7.0889,7.0889,7.0889,7.0889,7.0889,7.0889,7.0889,7.0889,7.0889,7.0889,7.0889,7.1038,7.1128,7.1128,7.1278,7.1368,7.1368,7.1368,7.1368,7.1368,7.1368,7.1308,7.1158,7.0979,7.0889,7.0889,7.0889,7.0889,7.0889,7.0889,7.0889,7.0889,7.0889,7.0889,7.0889,7.0889,7.0979,7.1128,7.0979,7.1068,4.6822,4.7489,4.7788,0.0,0.0,0.0,0.0,0.0,0.0,0.0,0.0,0.0,0.0,0.0,7.4237,0.0,0.0,0.0,0.0,0.0,0.0,0.0,0.0,0.0,0.0,0.0,0.0,0.0,0.0,0.0,0.0,0.0,0.0,8.4419,8.4526,8.4614,8.4614,8.4614,8.3054,7.9984,8.1356,8.0376,7.7354,7.8785,7.9052,7.8502,8.0073,8.0068,7.909,8.0524,8.0809,8.0276,8.0209,7.8318,7.5406,7.3749,7.2173,7.0889,7.0889,7.0889,7.0889,7.0889,7.0889,7.0889,7.0889,7.0889,7.0889,7.0889,7.0889,7.0889,7.0889,7.0889,7.0889,7.0889,7.0889,7.0889,7.0889,7.0889,7.0889,7.0889,7.0889,7.0889,7.0889,7.1398,7.1816,7.1816,7.2355,7.2774,7.2774,7.2774,7.2774,7.2774,7.2774,7.2505,7.1876,7.1248,7.0889,7.0889,7.0889,7.0889,7.0889,7.0889,7.0889,7.0889,7.0889,7.0889,7.0889,7.0889,7.1218,7.1787,7.1188,7.1577,4.5304,4.6531,0.0,0.0,0.0,0.0,0.0,0.0,0.0,0.0,0.0,0.0,0.0,0.0,0.0,0.0,0.0,0.0,0.0,0.0,0.0,0.0,0.0,0.0,0.0,0.0,0.0,0.0,0.0,0.0,0.0,0.0,0.0,8.4614,8.4614,8.4614,8.4614,8.4167,8.2801,8.0613,8.1221,8.0321,7.812,7.8289,7.852,7.8828,7.9453,7.9697,7.9742,8.0377,8.0445,8.0099,7.915,7.8044,7.6748,7.423,7.2891,7.2205,7.1214,7.0889,7.0889,7.0889,7.0889,7.0889,7.0889,7.0889,7.0889,7.0889,7.0889,7.0889,7.0889,7.0889,7.0889,7.0889,7.0889,7.0889,7.0889,7.1218,7.1517,7.1517,7.1846,7.2146,7.2146,7.2355,7.2535,7.2535,7.2744,7.2924,7.2924,7.2924,7.2924,7.2924,7.2924,7.2624,7.1936,7.1667,7.1338,7.0919,7.0889,7.0889,7.0889,7.0889,7.0889,7.0889,7.1308,7.1517,7.1517,7.1936,7.2265,7.2505,7.2265,7.2445,4.4925,4.5942,0.0,0.0,0.0,0.0,0.0,0.0,0.0,0.0,0.0,0.0,0.0,0.0,0.0,0.0,0.0,0.0,0.0,0.0,0.0,0.0,0.0,0.0,0.0,0.0,0.0,0.0,0.0,0.0,0.0,0.0,0.0,0.0,8.4377,8.4242,8.4242,8.3524,8.2583,8.1508,8.1276,8.0438,7.9045,7.9054,7.9294,7.9654,7.9654,7.9845,8.0209,8.0209,8.0209,8.0074,7.9046,7.8318,7.761,7.4968,7.3687,7.3015,7.1439,7.0889,7.0889,7.0889,7.0889,7.0889,7.0889,7.0889,7.0889,7.0889,7.0889,7.0889,7.0889,7.0889,7.0949,7.1158,7.1218,7.1278,7.1487,7.1906,7.2206,7.2206,7.2595,7.2924,7.2924,7.3103,7.3223,7.3223,7.3402,7.3522,7.3522,7.3522,7.3522,7.3522,7.3343,7.3043,7.2565,7.2325,7.2026,7.1577,7.1547,7.1338,7.0919,7.1098,7.1218,7.1218,7.1876,7.2206,7.2206,7.2684,7.3013,7.3223,7.3013,7.3133,4.6659,4.63,0.0,0.0,0.0,0.0,0.0,0.0,0.0,0.0,0.0,0.0,0.0,0.0,0.0,0.0,0.0,0.0,0.0,0.0,0.0,0.0,0.0,0.0,0.0,0.0,0.0,0.0,0.0,0.0,0.0,0.0,0.0,0.0,8.3896,8.349,8.349,8.278,8.2408,8.2408,8.1629,8.0867,8.0056,8.165,8.1968,8.1283,8.1283,8.0885,8.0209,8.0209,8.0209,8.0209,8.0209,7.9288,7.7719,7.6152,7.4646,7.3077,7.1471,7.0889,7.0889,7.0889,7.0889,7.0889,7.0889,7.0889,7.0889,7.0889,7.0889,7.0889,7.0889,7.0889,7.1068,7.1727,7.1876,7.2086,7.2774,7.2924,7.2924,7.2924,7.2924,7.2924,7.2924,7.3462,7.3911,7.3911,7.445,7.4903,7.4903,7.4903,7.4903,7.4903,7.43,7.3911,7.3881,7.3283,7.2924,7.2924,7.2924,7.2325,7.0979,7.1547,7.1906,7.1906,7.2565,7.2924,7.2924,7.2924,7.3283,7.3881,7.3223,7.3642,4.6082,0.0,0.0,5.4612,0.0,0.0,0.0,0.0,0.0,0.0,0.0,0.0,0.0,0.0,0.0,0.0,0.0,0.0,0.0,0.0,0.0,0.0,0.0,0.0,0.0,0.0,0.0,0.0,0.0,0.0,0.0,0.0,0.0,0.0,8.3625,8.3253,8.2746,8.2002,8.1629,8.1596,8.0885,8.0681,8.0905,8.0875,8.0716,8.0513,8.0513,8.0412,8.0209,8.0209,8.0209,8.0209,8.0209,7.9288,7.7719,7.6152,7.4646,7.3077,7.1471,7.0889,7.0889,7.0889,7.0889,7.0889,7.0889,7.0889,7.0889,7.0889,7.0889,7.0889,7.0889,7.0889,7.1068,7.1727,7.2265,7.2654,7.2864,7.3283,7.3612,7.3612,7.3971,7.43,7.43,7.445,7.4604,7.4604,7.4783,7.4903,7.4903,7.4903,7.4903,7.4903,7.4723,7.439,7.3941,7.3702,7.3402,7.2954,7.2924,7.2744,7.2325,7.2505,7.2595,7.2595,7.3253,7.3612,7.3612,7.4061,7.439,7.4604,7.439,7.451,4.835,5.0811,0.0,5.9539,6.5431,0.0,0.0,0.0,0.0,0.0,0.0,0.0,0.0,0.0,0.0,0.0,0.0,0.0,0.0,0.0,0.0,0.0,0.0,0.0,0.0,0.0,0.0,0.0,0.0,0.0,0.0,0.0,0.0,0.0,8.278,8.2408,8.1968,8.1224,8.0851,8.0851,8.0412,8.0412,8.0851,8.0412,8.0209,8.0209,8.0209,8.0209,8.0209,8.0209,8.0209,8.0209,8.0209,7.9288,7.7719,7.6152,7.4646,7.3077,7.1471,7.0889,7.0889,7.0889,7.0889,7.0889,7.0889,7.0889,7.0889,7.0889,7.0889,7.0889,7.0889,7.1098,7.1457,7.2146,7.2624,7.3073,7.3582,7.4001,7.43,7.43,7.4599,7.4903,7.4903,7.4903,7.4903,7.4903,7.4903,7.4903,7.4903,7.4903,7.4903,7.4903,7.4903,7.4753,7.433,7.43,7.4121,7.3732,7.3702,7.3702,7.3702,7.3432,7.3313,7.3313,7.3941,7.43,7.43,7.4723,7.4903,7.4903,7.4903,7.4903,5.1971,5.4407,0.0,6.564,6.9239,0.0,0.0,0.0,0.0,0.0,0.0,0.0,0.0,0.0,0.0,0.0,0.0,0.0,0.0,0.0,0.0,0.0,0.0,0.0,0.0,0.0,0.0,0.0,0.0,0.0,0.0,0.0,0.0,8.234,8.1629,8.1283,8.1215,8.0513,8.0209,0.0,8.0209,8.0209,8.0209,8.0209,8.0209,8.0209,8.0209,8.0209,8.0209,8.0209,8.0209,8.0209,8.0209,7.915,7.7495,7.6124,7.4528,7.286,7.1407,7.0889,7.0889,7.0889,7.0889,7.0889,7.0889,7.0889,7.0889,7.0889,7.0889,7.0889,7.0889,7.1338,7.1966,7.2654,7.2924,7.3343,7.4574,7.4873,7.4903,7.4903,7.4903,7.4903,7.4903,7.4903,7.4903,7.4903,7.4903,7.4903,7.4903,7.4903,7.4903,7.4903,7.4903,7.4903,7.4903,7.4903,7.4903,7.4903,7.4903,7.4903,7.4903,7.43,7.3971,7.3971,7.4604,7.4903,7.4903,7.4903,7.4903,7.4903,7.4903,7.4903,5.0663,5.5654,0.0,0.0,7.4493,8.0461,8.3471,0.0,0.0,0.0,0.0,0.0,0.0,0.0,0.0,0.0,0.0,0.0,0.0,0.0,0.0,0.0,0.0,0.0,0.0,0.0,0.0,0.0,0.0,0.0,0.0,0.0,0.0,8.1562,8.1384,8.1021,8.0445,8.0276,8.0209,0.0,8.0209,8.0209,8.0209,8.0209,8.0209,8.0209,8.0209,8.0209,8.0209,8.0209,8.0209,8.0209,8.0209,7.8505,7.6038,7.5723,7.3839,7.1375,7.1018,7.0889,7.0889,7.0889,7.0889,7.0889,7.0889,7.0889,7.0889,7.0889,7.0889,7.0889,7.0889,7.1009,7.1278,7.1936,7.2924,7.3762,7.4031,7.4544,7.4903,7.4903,7.4903,7.4903,7.4903,7.4903,7.4903,7.4903,7.4903,7.4903,7.4903,7.4903,7.4903,7.4903,7.4903,7.4903,7.4903,7.4903,7.4903,7.4903,7.4903,7.4903,7.4903,7.4783,7.4659,7.4659,7.4843,7.4903,7.4903,7.4903,7.4903,7.4903,7.4903,7.4903,5.2901,5.8722,0.0,7.2854,0.0,8.3219,8.4343,8.4614,0.0,0.0,0.0,0.0,0.0,0.0,0.0,0.0,0.0,0.0,0.0,0.0,0.0,0.0,0.0,0.0,0.0,0.0,0.0,0.0,0.0,0.0,0.0,8.2069,8.1528,8.0784,8.075,8.0581,8.0209,8.0209,8.0209,8.0209,7.9837,7.9498,7.916,7.987,8.0209,8.0209,8.0209,8.0209,8.0209,8.0209,8.0209,8.0209,8.0209,7.8318,7.5608,7.5608,7.3596,7.0889,7.0889,7.0889,7.0889,7.0889,7.0889,7.0889,7.0889,7.0889,7.0889,7.0889,7.0889,7.0889,7.0889,7.0889,7.0979,7.1338,7.2206,7.3103,7.3762,7.4151,7.4544,7.4843,7.4903,7.4903,7.4903,7.4903,7.4903,7.4903,7.4903,7.4903,7.4903,7.4903,7.4903,7.4903,7.4903,7.4903,7.4903,7.4903,7.4903,7.4903,7.4903,7.4903,7.4903,7.4903,7.4903,7.4903,7.4903,7.4903,7.4903,7.4903,7.4903,7.4903,7.4903,7.4903,5.449,6.1119,6.819,7.7813,8.1866,0.0,8.4411,8.4614,8.4614,0.0,0.0,0.0,0.0,0.0,0.0,0.0,0.0,0.0,0.0,0.0,0.0,0.0,0.0,0.0,0.0,0.0,0.0,0.0,0.0,0.0,8.1384,8.1181,8.0818,8.0209,8.0073,8.0006,8.0006,7.987,7.9803,7.9803,7.9194,7.8585,7.8034,7.9261,7.9904,8.0006,8.0006,8.0073,8.0209,8.0209,8.0209,8.0183,7.9921,7.8071,7.5551,7.529,7.3384,7.0889,7.0889,7.0889,7.0889,7.0889,7.0889,7.0889,7.0889,7.0889,7.0889,7.0889,7.0889,7.0889,7.0889,7.0889,7.0889,7.0889,7.1308,7.2056,7.3283,7.3732,7.4061,7.4599,7.4843,7.4903,7.4903,7.4903,7.4903,7.4903,7.4903,7.4903,7.4903,7.4903,7.4903,7.4903,7.4903,7.4903,7.4903,7.4903,7.4903,7.4903,7.4903,7.4903,7.4903,7.4903,7.4903,7.4903,7.4903,7.4903,7.4903,7.4903,7.4903,7.4903,7.4903,7.4903,4.9154,5.9097,7.0445,0.0,8.1866,8.3693,0.0,0.0,8.4614,0.0,0.0,0.0,0.0,0.0,0.0,0.0,0.0,0.0,0.0,0.0,0.0,0.0,0.0,0.0,0.0,0.0,0.0,0.0,0.0,0.0,8.1317,8.0682,8.031,8.0209,7.96,7.9261,7.9261,7.8619,7.8305,7.8305,7.8179,7.8102,7.8034,7.8204,7.8653,7.9261,7.9261,7.9634,8.0209,8.0209,8.0209,8.0074,7.8723,7.7138,7.5435,7.411,7.2455,7.0889,7.0889,7.0889,7.0889,7.0889,7.0889,7.0889,7.0889,7.0889,7.0889,7.0889,7.0889,7.0889,7.0889,7.0889,7.0889,7.0889,7.0979,7.1248,7.1996,7.3073,7.3911,7.4001,7.448,7.4903,7.4903,7.4903,7.4903,7.4903,7.4903,7.4903,7.4903,7.4903,7.4903,7.4903,7.4903,7.4903,7.4903,7.4903,7.4903,7.4903,7.4903,7.4903,7.4903,7.4903,7.4903,7.4903,7.4903,7.4903,7.4903,7.4903,7.4903,7.4903,7.4903,7.4903,5.4574,6.3215,7.1379,0.0,8.1562,8.3084,8.3828,0.0,8.4614,8.4614,8.4614,0.0,0.0,0.0,0.0,0.0,0.0,0.0,0.0,0.0,0.0,0.0,0.0,0.0,0.0,0.0,0.0,0.0,0.0,8.1114,8.0716,8.0378,8.0006,7.96,7.9295,7.8923,7.8483,7.8145,7.7773,7.7367,7.7367,7.713,7.669,7.669,7.7367,7.8483,7.8483,7.8889,7.96,7.96,7.9313,7.8829,7.8184,7.6407,7.4168,7.3505,7.2237,7.0889,7.0889,7.0889,7.0889,7.0889,7.0889,7.0889,7.0889,7.0889,7.0889,7.0889,7.0889,7.0889,7.0889,7.0889,7.0889,7.0889,7.0889,7.0979,7.1278,7.2385,7.3552,7.43,7.4723,7.4903,7.4903,7.4903,7.4903,7.4903,7.4903,7.4903,7.4903,7.4903,7.4903,7.4903,7.4903,7.4903,7.4903,7.4903,7.4903,7.4903,7.4903,7.4903,7.4903,7.4903,7.4903,7.4903,7.4903,7.4903,7.4903,7.4903,7.4903,7.4903,7.4903,7.4903,5.7202,6.3531,6.8301,7.5777,7.9329,8.1393,0.0,0.0,8.4377,0.0,8.4614,0.0,0.0,0.0,0.0,0.0,0.0,0.0,0.0,0.0,0.0,0.0,0.0,0.0,0.0,0.0,0.0,0.0,0.0,8.0682,7.9972,7.9938,7.96,7.8855,7.8653,7.828,7.7705,7.7502,7.713,7.6589,7.6589,7.6284,7.5709,7.5709,7.6318,7.7435,7.7638,7.8145,7.8822,7.8822,7.835,7.7591,7.7178,7.5445,7.3169,7.2737,7.1889,7.0889,7.0889,7.0889,7.0889,7.0889,7.0889,7.0889,7.0889,7.0889,7.0889,7.0889,7.0889,7.0889,7.0889,7.0889,7.0889,7.0889,7.0889,7.1009,7.1338,7.2206,7.3313,7.4663,7.4903,7.4903,7.4903,7.4903,7.4903,7.4903,7.4903,7.4903,7.4903,7.4903,7.4903,7.4903,7.4903,7.4903,7.4903,7.4903,7.4903,7.4903,7.4903,7.4903,7.4903,7.4903,7.4903,7.4903,7.4903,7.4903,7.4903,7.4903,7.4903,7.4903,7.4903,7.4903,5.0558,5.4634,5.8743,6.8335,7.3984,7.8111,0.0,0.0,8.3761,8.4444,8.4614,8.4614,0.0,0.0,0.0,0.0,0.0,0.0,0.0,0.0,0.0,0.0,0.0,0.0,0.0,0.0,0.0,0.0,0.0,7.9938,7.9194,7.916,7.8822,7.8102,7.7367,7.6995,7.6961,7.6183,7.5811,7.5743,7.5743,7.5743,7.5709,7.5709,7.5743,7.5845,7.6623,7.7367,7.8044,7.8044,7.758,7.6733,7.5241,7.4075,7.3015,7.1569,7.0954,7.0889,7.0889,7.0889,7.0889,7.0889,7.0889,7.0889,7.0889,7.0889,7.0889,7.0889,7.0889,7.0889,7.0889,7.0889,7.0889,7.0889,7.0889,7.1248,7.2535,7.2864,7.3313,7.4663,7.4903,7.4903,7.4903,7.4903,7.4903,7.4903,7.4903,7.4903,7.4903,7.4903,7.4903,7.4903,7.4903,7.4903,7.4903,7.4903,7.4903,7.4903,7.4903,7.4903,7.4903,7.4903,7.4903,7.4903,7.4903,7.4903,7.4903,7.4903,7.4903,7.4903,7.4903,7.4903,0.0,5.2892,5.7322,6.4208,6.9654,7.4018,7.6792,7.9837,8.2137,8.2441,8.2881,8.3355,0.0,0.0,0.0,0.0,0.0,0.0,0.0,0.0,0.0,0.0,0.0,0.0,0.0,0.0,0.0,0.0,0.0,0.0,7.916,7.9101,7.8551,7.7333,7.7029,7.6657,7.6115,7.5845,7.5709,7.5709,7.5709,7.5709,7.5709,7.5709,7.5709,7.5709,7.6014,7.6555,7.7217,7.6274,7.5424,7.4587,7.3533,7.2303,7.1151,7.0965,7.0889,7.0889,7.0889,7.0889,7.0889,7.0889,7.0889,7.0889,7.0889,7.0889,7.0889,7.0889,7.0889,7.0889,7.0889,7.0889,7.0889,7.0889,7.0889,7.1278,7.2624,7.2924,7.3313,7.4663,7.4903,7.4903,7.4903,7.4903,7.4903,7.4903,7.4903,7.4903,7.4903,7.4903,7.4903,7.4903,7.4903,7.4903,7.4903,7.4903,7.4903,7.4903,7.4903,7.4903,7.4903,7.4903,7.4903,7.4903,7.4903,7.4903,7.4903,7.4903,7.4903,7.4903,7.4903,7.4903,4.5967,0.0,0.0,0.0,6.4762,6.8617,7.4119,7.7096,7.9117,8.0615,8.1528,8.2272,8.2983,0.0,0.0,0.0,0.0,0.0,0.0,0.0,0.0,0.0,0.0,0.0,0.0,0.0,0.0,0.0,0.0,0.0,7.8416,7.8382,7.7807,7.6555,7.6487,7.6251,7.5709,7.5709,7.5709,7.5709,7.5709,7.5709,7.5709,7.5709,7.5709,7.5709,7.5709,7.6014,7.6391,7.4912,7.3871,7.304,7.1993,7.0954,7.0053,7.044,7.0739,7.0889,7.0889,7.0889,7.0889,7.0889,7.0889,7.0889,7.0889,7.0889,7.0889,7.0889,7.0889,7.0889,7.0889,7.0889,7.0889,7.0889,7.1068,7.1681,7.3353,7.3295,7.3313,7.4663,7.4903,7.4903,7.4903,7.4903,7.4903,7.4903,7.4903,7.4903,7.4903,7.4903,7.4903,7.4903,7.4903,7.4903,7.4903,7.4903,7.4903,7.4903,7.4903,7.4903,7.4903,7.4903,7.4903,7.4903,7.4903,7.4903,7.4903,7.4903,7.4903,7.4903,7.4903,7.4903,0.0,0.0,0.0,0.0,0.0,0.0,7.3646,0.0,7.4424,7.8991,8.0513,8.1257,8.2171,0.0,0.0,0.0,0.0,0.0,0.0,0.0,0.0,0.0,0.0,0.0,0.0,0.0,0.0,0.0,0.0,7.845,7.6995,7.6893,7.6521,7.5709,7.5709,7.5676,7.5676,7.5676,7.5676,7.5676,7.5676,7.5709,7.5709,7.5709,7.5709,7.5709,7.5709,7.5686,7.5532,7.4131,7.3069,7.2217,7.0718,7.0068,6.9961,6.9993,7.038,7.0889,7.0889,7.0889,7.0889,7.0889,7.0889,7.0889,7.0889,7.0889,7.0889,7.0889,7.0889,7.0889,7.0889,7.0889,7.0889,7.0889,7.143,7.2553,7.4805,7.4121,7.3417,7.4702,7.4971,7.4971,7.4903,7.4903,7.4903,7.4903,7.4903,7.4903,7.4903,7.4903,7.4903,7.4903,7.4903,7.4903,7.4903,7.4903,7.4903,7.4903,7.4903,7.4903,7.4903,7.4903,7.4903,7.4903,7.4903,7.4903,7.4903,7.4903,7.4903,7.4903,7.4903,7.4903,4.2348,0.0,0.0,0.0,0.0,0.0,0.0,0.0,6.6406,7.2529,7.3916,7.5439,7.9972,7.9938,0.0,0.0,0.0,0.0,0.0,0.0,0.0,0.0,0.0,0.0,0.0,0.0,0.0,0.0,7.8619,7.7874,7.6961,7.6352,7.5912,7.5709,7.5709,7.5439,7.4931,7.5439,7.5439,7.4931,7.5439,7.5709,7.5709,7.5709,7.5709,7.5709,7.5709,7.5112,7.4089,7.2599,7.1869,7.1465,6.9419,6.8871,6.9333,6.9812,7.038,7.0889,7.0889,7.0889,7.0889,7.0889,7.0889,7.0889,7.0889,7.0889,7.0889,7.0889,7.0889,7.0889,7.0889,7.0889,7.0889,7.0889,7.1944,7.3352,7.4965,7.5839,7.6432,7.6586,7.6634,7.6268,7.5078,7.4903,7.4903,7.4903,7.4903,7.4903,7.4903,7.4903,7.4903,7.4903,7.4903,7.4903,7.4903,7.4903,7.4903,7.4903,7.4903,7.4903,7.4903,7.4903,7.4903,7.4903,7.4903,7.4903,7.4903,7.4903,7.4903,7.4903,7.4903,7.4903,0.0,0.0,0.0,0.0,0.0,0.0,0.0,5.9505,6.1975,0.0,7.1345,7.3003,7.713,7.7401,0.0,0.0,0.0,0.0,0.0,0.0,0.0,0.0,0.0,0.0,0.0,7.8889,7.8517,7.8213,7.7773,7.7198,7.6454,7.5946,7.5709,7.5709,7.5405,7.5033,7.4603,7.4728,7.4728,7.4627,7.5033,7.5405,7.5709,7.5709,7.5709,7.5686,7.5064,7.4365,7.3438,7.1333,7.0476,7.0287,6.8334,6.8136,6.9064,6.9423,7.0141,7.0889,7.0889,7.0889,7.0889,7.0889,7.0889,7.0889,7.0889,7.0889,7.0889,7.0889,7.0889,7.0889,7.0889,7.0889,7.0889,7.0889,7.2323,7.419,7.5959,7.7794,7.8755,7.7554,7.729,7.6798,7.518,7.4903,7.4903,7.4903,7.4903,7.4903,7.4903,7.4903,7.4903,7.4903,7.4903,7.4903,7.4903,7.4903,7.4903,7.4903,7.4903,7.4903,7.4903,7.4903,7.4903,7.4903,7.4903,7.4903,7.4903,7.4903,7.4903,7.4903,7.4903,7.4903,0.0,0.0,0.0,0.0,0.0,0.0,5.8254,5.8678,5.9219,0.0,6.9586,7.1142,7.3138,7.4086,0.0,0.0,0.0,0.0,0.0,0.0,0.0,0.0,0.0,0.0,7.8,7.7933,7.7604,7.6961,7.6826,7.6454,7.5743,7.5608,7.5574,7.5574,7.4864,7.4458,7.4333,7.3781,7.3781,7.4333,7.4525,7.4965,7.5574,7.5676,7.5709,7.5638,7.4365,7.3752,7.3379,7.0783,6.9519,6.9056,6.7578,6.7807,6.9035,6.9194,6.9941,7.0921,7.1115,7.1051,7.0889,7.0889,7.0889,7.0889,7.0889,7.0889,7.0889,7.0889,7.0889,7.0889,7.0889,7.0889,7.0921,7.1115,7.2821,7.5055,7.7529,7.9753,8.0525,7.803,7.758,7.6996,7.5214,7.4903,7.4903,7.4903,7.4903,7.4903,7.4903,7.4903,7.4903,7.4903,7.4903,7.4903,7.4903,7.4903,7.4903,7.4903,7.4903,7.4903,7.4903,7.4903,7.4903,7.4903,7.4903,7.4903,7.4903,7.4903,7.4903,7.4903,7.4903,7.4903,0.0,0.0,4.939,0.0,0.0,0.0,4.8255,4.9914,5.279,0.0,5.8355,6.0501,6.5628,6.7151,6.7895,0.0,0.0,0.0,0.0,0.0,0.0,0.0,0.0,0.0,7.8,7.7468,7.7063,7.6927,7.6284,7.5879,7.5709,7.5134,7.4806,7.4806,7.4086,7.3409,7.2834,7.3297,7.3274,7.2834,7.4052,7.4695,7.483,7.5439,7.5709,7.5676,7.5412,7.4662,7.3566,7.2992,7.136,6.9056,6.7578,6.7807,6.9131,7.0373,7.0858,7.1083,7.2393,7.1982,7.0889,7.0889,7.0889,7.0889,7.0889,7.0889,7.0889,7.0889,7.0889,7.0889,7.0889,7.0889,7.1244,7.2518,7.4113,7.6123,7.9027,8.0992,8.16,7.9699,7.9312,7.8376,7.5418,7.4903,7.4903,7.4903,7.4903,7.4903,7.4903,7.4903,7.4903,7.4903,7.4903,7.4903,7.4903,7.4903,7.4903,7.4903,7.4903,7.4903,7.4903,7.4903,7.4903,7.4903,7.4903,7.4903,7.4903,7.4903,7.4903,7.4903,7.4903,7.4903,0.0,0.0,5.0913,4.983,0.0,0.0,0.0,4.8458,4.9846,5.4702,5.5108,5.5987,6.0419,6.1535,6.2415,0.0,0.0,0.0,0.0,0.0,0.0,0.0,0.0,0.0,7.5767,7.5405,7.5371,7.5743,7.5033,7.4762,7.5134,7.4458,7.4052,7.4052,7.3341,7.2766,7.2394,7.2394,7.2394,7.2428,7.3138,7.3883,7.4603,7.4999,7.5337,7.5686,7.4966,7.4231,7.354,7.2809,7.1632,7.0227,6.9459,6.9792,7.0841,7.1972,7.2017,7.1653,7.2892,7.2236,7.0889,7.0889,7.0889,7.0889,7.0889,7.0889,7.0889,7.0889,7.0889,7.0889,7.0889,7.1503,7.2299,7.3108,7.5056,7.7265,7.9155,8.1063,8.1772,7.9604,7.9547,7.8753,7.5455,7.4903,7.4903,7.4903,7.4903,7.4903,7.4903,7.4903,7.4903,7.4903,7.4903,7.4903,7.4903,7.4903,7.4903,7.4903,7.4903,7.4903,7.4903,7.4903,7.4903,7.4903,7.4903,7.4903,7.4903,7.4903,7.4903,7.4903,7.4903,7.4903,0.0,0.0,0.0,0.0,0.0,4.939,0.0,0.0,0.0,5.3484,0.0,0.0,0.0,0.0,0.0,0.0,0.0,0.0,0.0,0.0,0.0,0.0,0.0,0.0,0.0,7.2665,7.2969,7.4289,7.3172,7.3003,7.4322,7.368,7.3297,7.3297,7.2563,7.2191,7.2191,7.1616,7.1616,7.2191,7.2326,7.3105,7.439,7.4559,7.4999,7.5662,7.4489,7.4005,7.3896,7.273,7.2223,7.2169,7.1605,7.1808,7.254,7.3545,7.3145,7.2271,7.3348,7.2487,7.0889,7.0889,7.0889,7.0889,7.0889,7.0889,7.0889,7.0889,7.0889,7.0954,7.1247,7.233,7.3445,7.405,7.6095,7.8188,7.9212,8.0881,8.1471,7.9059,7.9133,7.8564,7.5425,7.4903,7.4903,7.4903,7.4903,7.4903,7.4903,7.4903,7.4903,7.4903,7.4903,7.4903,7.4903,7.4903,7.4903,7.4903,7.4903,7.4903,7.4903,7.4903,7.4903,7.4903,7.4903,7.4903,7.4903,7.4903,7.4903,7.4903,7.4903,7.4903,0.0,0.0,0.0,0.0,5.4972,0.0,0.0,0.0,4.9,4.6496,0.0,0.0,0.0,0.0,0.0,0.0,0.0,0.0,0.0,0.0,0.0,0.0,0.0,0.0,0.0,6.9722,6.9958,7.3364,7.0466,7.0026,7.3443,7.2935,7.2529,7.2529,7.1819,7.1424,7.1424,7.1323,7.1323,7.1424,7.209,7.2834,7.3669,7.4289,7.4999,7.5709,7.5532,7.546,7.546,7.5258,7.5209,7.4957,7.2382,7.1808,7.265,7.4749,7.4084,7.2422,7.46,7.3383,7.0889,7.0889,7.0889,7.0889,7.0889,7.0889,7.0889,7.0889,7.0889,7.1214,7.2581,7.3138,7.3989,7.6748,7.7665,7.849,8.0591,8.1222,8.0861,7.8963,7.8687,7.7933,7.5365,7.4903,7.4903,7.4903,7.4903,7.4903,7.4903,7.4903,7.4903,7.4903,7.4903,7.4903,7.4903,7.4903,7.4903,7.4903,7.4903,7.4903,7.4903,7.4903,7.4903,7.4903,7.4903,7.4903,7.4903,7.4903,7.4903,7.4903,7.4903,7.4903,0.0,0.0,0.0,0.0,0.0,0.0,0.0,0.0,4.6143,0.0,0.0,0.0,0.0,0.0,0.0,0.0,0.0,0.0,0.0,0.0,0.0,0.0,0.0,0.0,0.0,0.0,0.0,0.0,0.0,6.8267,7.2022,7.1921,7.1751,7.1751,7.1458,7.1289,7.1289,7.1289,7.1289,7.1289,7.1616,7.2157,7.2868,7.3612,7.4356,7.51,7.5506,7.5709,7.5709,7.5709,7.5709,7.558,7.4381,7.4095,7.4543,7.6382,7.526,7.3069,7.4965,7.3535,7.1051,7.1952,7.2237,7.2455,7.3384,7.2331,7.1083,7.2046,7.2237,7.2393,7.3077,7.4615,7.6294,7.761,7.8591,7.9518,8.0454,8.0987,8.0661,7.8386,7.8305,7.7839,7.5335,7.4903,7.4903,7.4903,7.4903,7.4903,7.4903,7.4903,7.4903,7.4903,7.4903,7.4903,7.4903,7.4903,7.4903,7.4903,7.4903,7.4903,7.4903,7.4903,7.4903,7.4903,7.4903,7.4903,7.4903,7.4903,7.4903,7.4903,7.4903,7.4903,6.299,0.0,0.0,0.0,0.0,0.0,0.0,0.0,0.0,0.0,0.0,0.0,0.0,0.0,0.0,0.0,0.0,0.0,0.0,0.0,0.0,0.0,0.0,0.0,0.0,0.0,0.0,0.0,0.0,0.0,7.0737,7.1007,7.1086,7.1289,7.1289,7.1289,7.1289,7.1289,7.1289,7.1289,7.1289,7.1684,7.2428,7.3138,7.3883,7.4661,7.5371,7.5709,7.5709,7.5709,7.5709,7.5709,7.5709,7.5709,7.5879,7.7435,7.6262,7.419,7.5725,7.4466,7.2362,7.3505,7.3899,7.414,7.5261,7.3718,7.1792,7.2922,7.3261,7.3322,7.3808,7.5896,7.799,7.8425,7.9392,8.0209,8.0209,8.03,7.9815,7.785,7.7595,7.7058,7.5233,7.4903,7.4903,7.4903,7.4903,7.4903,7.4903,7.4903,7.5044,7.5523,7.5146,7.5108,7.5523,7.5146,7.4903,7.4903,7.4903,7.4903,7.4903,7.4903,7.4903,7.4903,7.4903,7.4903,7.4903,7.4903,7.4903,7.4903,7.4903,7.4903,0.0,0.0,0.0,5.7223,0.0,0.0,0.0,0.0,4.9492,0.0,0.0,0.0,0.0,0.0,0.0,0.0,0.0,0.0,0.0,0.0,0.0,0.0,0.0,0.0,0.0,0.0,0.0,0.0,0.0,0.0,6.9823,7.0251,7.0567,7.1289,7.1289,7.1289,7.1289,7.1289,7.1289,7.1289,7.1289,7.1684,7.2428,7.3138,7.3883,7.4661,7.5371,7.5709,7.5709,7.5709,7.5709,7.5709,7.5709,7.5709,7.5879,7.7435,7.7002,7.5832,7.7334,7.6804,7.5464,7.5493,7.5522,7.5522,7.5579,7.4498,7.32,7.3199,7.3261,7.3658,7.5144,7.672,7.8291,7.976,8.015,8.0209,8.0209,7.9046,7.7899,7.758,7.6302,7.5197,7.497,7.4903,7.4903,7.4903,7.4903,7.4903,7.4903,7.4903,7.5489,7.7061,7.5832,7.5557,7.7094,7.5796,7.4903,7.4903,7.4903,7.4903,7.4903,7.4903,7.4903,7.4903,7.4903,7.4903,7.4903,7.4903,7.4903,7.4903,7.4903,7.4903,0.0,0.0,7.1819,6.3328,0.0,0.0,0.0,0.0,0.0,0.0,0.0,0.0,0.0,0.0,0.0,0.0,0.0,0.0,0.0,0.0,0.0,0.0,0.0,0.0,0.0,0.0,0.0,0.0,6.0588,0.0,0.0,6.9654,7.0297,7.0567,7.1075,7.1289,7.1289,7.1289,7.1289,7.1289,7.1289,7.1424,7.1718,7.2428,7.3172,7.3916,7.4661,7.5236,7.5709,7.5709,7.5709,7.5709,7.5709,7.5709,7.5811,7.6893,7.6601,7.5779,7.6201,7.672,7.711,7.711,7.711,7.7303,7.8318,7.686,7.5027,7.6038,7.6322,7.6463,7.6999,7.8265,7.9546,8.0074,8.0209,7.9921,7.8915,7.8265,7.7534,7.6233,7.5558,7.5133,7.4906,7.4903,7.4903,7.4903,7.4903,7.4903,7.4903,7.5832,7.67,7.7225,7.68,7.6733,7.7257,7.68,7.6469,7.6469,7.6469,7.6469,7.6469,7.6469,7.5999,7.4903,7.5933,7.5966,7.4903,7.5966,7.6469,7.6502,7.7611,7.7547,7.3341,7.4424,0.0,6.7117,6.4309,0.0,5.3788,0.0,0.0,0.0,0.0,0.0,0.0,0.0,0.0,0.0,0.0,0.0,0.0,0.0,0.0,0.0,0.0,0.0,0.0,0.0,5.3856,5.893,0.0,0.0,0.0,0.0,6.962,7.0184,7.0939,7.1289,7.1289,7.1289,7.1289,7.1289,7.1289,7.1289,7.1323,7.2326,7.3037,7.3567,7.4559,7.527,7.5709,7.5709,7.5709,7.5709,7.5709,7.5709,7.5811,7.6589,7.6926,7.6937,7.7156,7.7882,7.8723,7.8723,7.8723,7.8881,7.9921,7.8425,7.6636,7.7637,7.7882,7.7882,7.7882,7.9046,8.0209,8.0209,8.0209,7.976,7.8238,7.744,7.6714,7.5434,7.4766,7.4678,7.5586,7.5762,7.5557,7.5006,7.5388,7.5762,7.5762,7.7159,7.8186,7.8186,7.8186,7.8186,7.8186,7.8187,7.8187,7.8186,7.8186,7.8186,7.8186,7.8186,7.7676,7.6665,7.7061,7.7061,7.6632,7.7094,7.7612,7.825,7.9862,8.0075]}]]